
<gpx xmlns="http://www.topografix.com/GPX/1/1" xmlns:gpxx="http://www.garmin.com/xmlschemas/GpxExtensions/v3" xmlns:xsi="http://www.w3.org/2001/XMLSchema-instance" version="1.1" creator="Adze - https://getadze.com/" xsi:schemaLocation="http://www.topografix.com/GPX/1/1 http://www.topografix.com/GPX/1/1/gpx.xsd http://www.garmin.com/xmlschemas/GpxExtensions/v3 http://www.garmin.com/xmlschemas/GpxExtensionsv3.xsd">
    <metadata>
        <name>Untitled Document</name>
        <link href="http://www.garmin.com"></link>
        <time>2018-03-08T03:56:58.566Z</time>
    </metadata>
    <wpt lon="99.229870" lat="13.555539">
        <ele>345.000000</ele>
        <name>Au Long Resort</name>
        <cmt>24-APR-09 15:10:53</cmt>
        <desc>24-APR-09 15:10:53</desc>
        <sym>City Hall</sym>
        <extensions>
            <gpxx:WaypointExtension xmlns:gpxx="http://www.garmin.com/xmlschemas/GpxExtensions/v3">
                <gpxx:DisplayMode>SymbolAndName</gpxx:DisplayMode>
            </gpxx:WaypointExtension>
        </extensions>
    </wpt>
    <wpt lon="99.284135" lat="13.510440">
        <ele>132.000000</ele>
        <name>April 2009 - Saturday water</name>
        <cmt>25-APR-09 15:04:29</cmt>
        <desc>25-APR-09 15:04:29</desc>
        <sym>Drinking Water</sym>
        <extensions>
            <gpxx:WaypointExtension xmlns:gpxx="http://www.garmin.com/xmlschemas/GpxExtensions/v3">
                <gpxx:DisplayMode>SymbolOnly</gpxx:DisplayMode>
            </gpxx:WaypointExtension>
        </extensions>
    </wpt>
    <trk>
        <name>April 2009 - Saturday shortcut</name>
        <extensions>
            <gpxx:TrackExtension xmlns:gpxx="http://www.garmin.com/xmlschemas/GpxExtensions/v3">
                <gpxx:DisplayColor>DarkRed</gpxx:DisplayColor>
            </gpxx:TrackExtension>
        </extensions>
        <trkseg>
            <trkpt lon="99.283345" lat="13.510807">
                <ele>134.241211</ele>
                <time>2009-04-25T08:21:31Z</time>
            </trkpt>
            <trkpt lon="99.283055" lat="13.510892">
                <ele>138.086548</ele>
                <time>2009-04-25T08:21:47Z</time>
            </trkpt>
            <trkpt lon="99.282646" lat="13.510999">
                <ele>138.567261</ele>
                <time>2009-04-25T08:22:05Z</time>
            </trkpt>
            <trkpt lon="99.282067" lat="13.510940">
                <ele>138.567261</ele>
                <time>2009-04-25T08:22:23Z</time>
            </trkpt>
            <trkpt lon="99.281415" lat="13.510818">
                <ele>138.567261</ele>
                <time>2009-04-25T08:22:39Z</time>
            </trkpt>
            <trkpt lon="99.281329" lat="13.510800">
                <ele>138.086548</ele>
                <time>2009-04-25T08:22:41Z</time>
            </trkpt>
            <trkpt lon="99.281113" lat="13.510614">
                <ele>137.605835</ele>
                <time>2009-04-25T08:22:47Z</time>
            </trkpt>
            <trkpt lon="99.280619" lat="13.509831">
                <ele>135.683106</ele>
                <time>2009-04-25T08:23:04Z</time>
            </trkpt>
            <trkpt lon="99.280005" lat="13.508757">
                <ele>132.799316</ele>
                <time>2009-04-25T08:23:24Z</time>
            </trkpt>
            <trkpt lon="99.279389" lat="13.508365">
                <ele>133.279907</ele>
                <time>2009-04-25T08:23:37Z</time>
            </trkpt>
            <trkpt lon="99.279182" lat="13.508313">
                <ele>133.279907</ele>
                <time>2009-04-25T08:23:41Z</time>
            </trkpt>
            <trkpt lon="99.278180" lat="13.508113">
                <ele>134.241211</ele>
                <time>2009-04-25T08:24:03Z</time>
            </trkpt>
            <trkpt lon="99.277419" lat="13.507985">
                <ele>136.163940</ele>
                <time>2009-04-25T08:24:22Z</time>
            </trkpt>
            <trkpt lon="99.276549" lat="13.507826">
                <ele>138.567261</ele>
                <time>2009-04-25T08:24:44Z</time>
            </trkpt>
            <trkpt lon="99.276076" lat="13.507749">
                <ele>140.970459</ele>
                <time>2009-04-25T08:25:01Z</time>
            </trkpt>
            <trkpt lon="99.275551" lat="13.507663">
                <ele>143.854370</ele>
                <time>2009-04-25T08:25:19Z</time>
            </trkpt>
            <trkpt lon="99.274819" lat="13.507527">
                <ele>145.296387</ele>
                <time>2009-04-25T08:25:40Z</time>
            </trkpt>
            <trkpt lon="99.273952" lat="13.507362">
                <ele>145.296387</ele>
                <time>2009-04-25T08:26:00Z</time>
            </trkpt>
            <trkpt lon="99.273064" lat="13.507202">
                <ele>146.738403</ele>
                <time>2009-04-25T08:26:20Z</time>
            </trkpt>
            <trkpt lon="99.272515" lat="13.507123">
                <ele>149.141602</ele>
                <time>2009-04-25T08:26:39Z</time>
            </trkpt>
            <trkpt lon="99.271965" lat="13.507075">
                <ele>152.025757</ele>
                <time>2009-04-25T08:26:59Z</time>
            </trkpt>
            <trkpt lon="99.271340" lat="13.507007">
                <ele>154.909546</ele>
                <time>2009-04-25T08:27:20Z</time>
            </trkpt>
            <trkpt lon="99.270595" lat="13.506929">
                <ele>153.467651</ele>
                <time>2009-04-25T08:27:37Z</time>
            </trkpt>
            <trkpt lon="99.269358" lat="13.506810">
                <ele>150.103027</ele>
                <time>2009-04-25T08:27:58Z</time>
            </trkpt>
            <trkpt lon="99.268920" lat="13.506768">
                <ele>152.506348</ele>
                <time>2009-04-25T08:28:11Z</time>
            </trkpt>
            <trkpt lon="99.268453" lat="13.506721">
                <ele>156.351562</ele>
                <time>2009-04-25T08:28:30Z</time>
            </trkpt>
            <trkpt lon="99.267976" lat="13.506708">
                <ele>157.793579</ele>
                <time>2009-04-25T08:28:47Z</time>
            </trkpt>
            <trkpt lon="99.267270" lat="13.506768">
                <ele>154.909546</ele>
                <time>2009-04-25T08:29:01Z</time>
            </trkpt>
            <trkpt lon="99.266156" lat="13.506904">
                <ele>152.025757</ele>
                <time>2009-04-25T08:29:17Z</time>
            </trkpt>
            <trkpt lon="99.265671" lat="13.507006">
                <ele>154.428955</ele>
                <time>2009-04-25T08:29:30Z</time>
            </trkpt>
            <trkpt lon="99.265086" lat="13.507138">
                <ele>156.351562</ele>
                <time>2009-04-25T08:29:50Z</time>
            </trkpt>
            <trkpt lon="99.264401" lat="13.507294">
                <ele>154.909546</ele>
                <time>2009-04-25T08:30:06Z</time>
            </trkpt>
            <trkpt lon="99.263689" lat="13.507440">
                <ele>154.909546</ele>
                <time>2009-04-25T08:30:22Z</time>
            </trkpt>
            <trkpt lon="99.262916" lat="13.507582">
                <ele>153.948364</ele>
                <time>2009-04-25T08:30:42Z</time>
            </trkpt>
            <trkpt lon="99.261877" lat="13.507675">
                <ele>152.506348</ele>
                <time>2009-04-25T08:31:01Z</time>
            </trkpt>
            <trkpt lon="99.260636" lat="13.507800">
                <ele>152.986939</ele>
                <time>2009-04-25T08:31:24Z</time>
            </trkpt>
            <trkpt lon="99.259654" lat="13.507976">
                <ele>153.467651</ele>
                <time>2009-04-25T08:31:47Z</time>
            </trkpt>
            <trkpt lon="99.259437" lat="13.508435">
                <ele>154.428955</ele>
                <time>2009-04-25T08:32:00Z</time>
            </trkpt>
            <trkpt lon="99.259363" lat="13.508953">
                <ele>156.832153</ele>
                <time>2009-04-25T08:32:17Z</time>
            </trkpt>
            <trkpt lon="99.259346" lat="13.509030">
                <ele>159.235474</ele>
                <time>2009-04-25T08:32:29Z</time>
            </trkpt>
            <trkpt lon="99.259390" lat="13.509023">
                <ele>162.119507</ele>
                <time>2009-04-25T08:32:53Z</time>
            </trkpt>
            <trkpt lon="99.259429" lat="13.508888">
                <ele>161.158203</ele>
                <time>2009-04-25T08:33:03Z</time>
            </trkpt>
            <trkpt lon="99.259382" lat="13.508882">
                <ele>160.196899</ele>
                <time>2009-04-25T08:33:08Z</time>
            </trkpt>
            <trkpt lon="99.259361" lat="13.508930">
                <ele>159.235474</ele>
                <time>2009-04-25T08:33:23Z</time>
            </trkpt>
            <trkpt lon="99.259353" lat="13.509104">
                <ele>158.754761</ele>
                <time>2009-04-25T08:33:46Z</time>
            </trkpt>
            <trkpt lon="99.259334" lat="13.509263">
                <ele>159.716186</ele>
                <time>2009-04-25T08:33:54Z</time>
            </trkpt>
            <trkpt lon="99.259308" lat="13.509367">
                <ele>160.677490</ele>
                <time>2009-04-25T08:33:59Z</time>
            </trkpt>
            <trkpt lon="99.259289" lat="13.509745">
                <ele>162.119507</ele>
                <time>2009-04-25T08:34:14Z</time>
            </trkpt>
            <trkpt lon="99.259252" lat="13.510302">
                <ele>165.003418</ele>
                <time>2009-04-25T08:34:34Z</time>
            </trkpt>
            <trkpt lon="99.259245" lat="13.510876">
                <ele>166.445312</ele>
                <time>2009-04-25T08:34:58Z</time>
            </trkpt>
            <trkpt lon="99.259243" lat="13.511294">
                <ele>171.732666</ele>
                <time>2009-04-25T08:35:18Z</time>
            </trkpt>
            <trkpt lon="99.259238" lat="13.511552">
                <ele>175.097290</ele>
                <time>2009-04-25T08:35:35Z</time>
            </trkpt>
            <trkpt lon="99.259200" lat="13.511867">
                <ele>174.135864</ele>
                <time>2009-04-25T08:35:50Z</time>
            </trkpt>
            <trkpt lon="99.259036" lat="13.512420">
                <ele>171.252075</ele>
                <time>2009-04-25T08:36:03Z</time>
            </trkpt>
            <trkpt lon="99.258687" lat="13.512888">
                <ele>166.926025</ele>
                <time>2009-04-25T08:36:12Z</time>
            </trkpt>
            <trkpt lon="99.258534" lat="13.513013">
                <ele>165.964722</ele>
                <time>2009-04-25T08:36:15Z</time>
            </trkpt>
            <trkpt lon="99.257893" lat="13.513194">
                <ele>163.561523</ele>
                <time>2009-04-25T08:36:25Z</time>
            </trkpt>
            <trkpt lon="99.257687" lat="13.513210">
                <ele>163.080811</ele>
                <time>2009-04-25T08:36:28Z</time>
            </trkpt>
            <trkpt lon="99.257405" lat="13.513165">
                <ele>162.600098</ele>
                <time>2009-04-25T08:36:32Z</time>
            </trkpt>
            <trkpt lon="99.256898" lat="13.512985">
                <ele>162.119507</ele>
                <time>2009-04-25T08:36:40Z</time>
            </trkpt>
            <trkpt lon="99.256742" lat="13.512868">
                <ele>161.158203</ele>
                <time>2009-04-25T08:36:43Z</time>
            </trkpt>
            <trkpt lon="99.256172" lat="13.512706">
                <ele>161.638916</ele>
                <time>2009-04-25T08:36:56Z</time>
            </trkpt>
            <trkpt lon="99.255706" lat="13.512688">
                <ele>163.080811</ele>
                <time>2009-04-25T08:37:13Z</time>
            </trkpt>
            <trkpt lon="99.255667" lat="13.512691">
                <ele>162.600098</ele>
                <time>2009-04-25T08:37:14Z</time>
            </trkpt>
            <trkpt lon="99.255379" lat="13.512773">
                <ele>162.119507</ele>
                <time>2009-04-25T08:37:21Z</time>
            </trkpt>
            <trkpt lon="99.254867" lat="13.513295">
                <ele>161.638916</ele>
                <time>2009-04-25T08:37:38Z</time>
            </trkpt>
            <trkpt lon="99.254540" lat="13.513958">
                <ele>161.158203</ele>
                <time>2009-04-25T08:37:54Z</time>
            </trkpt>
            <trkpt lon="99.254356" lat="13.514388">
                <ele>164.042114</ele>
                <time>2009-04-25T08:38:06Z</time>
            </trkpt>
            <trkpt lon="99.254138" lat="13.514899">
                <ele>164.042114</ele>
                <time>2009-04-25T08:38:24Z</time>
            </trkpt>
            <trkpt lon="99.253957" lat="13.515175">
                <ele>162.119507</ele>
                <time>2009-04-25T08:38:31Z</time>
            </trkpt>
            <trkpt lon="99.253647" lat="13.515493">
                <ele>164.042114</ele>
                <time>2009-04-25T08:38:44Z</time>
            </trkpt>
            <trkpt lon="99.253370" lat="13.515935">
                <ele>166.445312</ele>
                <time>2009-04-25T08:39:01Z</time>
            </trkpt>
            <trkpt lon="99.253128" lat="13.516558">
                <ele>166.445312</ele>
                <time>2009-04-25T08:39:18Z</time>
            </trkpt>
            <trkpt lon="99.253248" lat="13.517105">
                <ele>167.406738</ele>
                <time>2009-04-25T08:39:32Z</time>
            </trkpt>
            <trkpt lon="99.253502" lat="13.517703">
                <ele>167.887329</ele>
                <time>2009-04-25T08:39:48Z</time>
            </trkpt>
            <trkpt lon="99.253540" lat="13.517933">
                <ele>166.926025</ele>
                <time>2009-04-25T08:39:53Z</time>
            </trkpt>
            <trkpt lon="99.253499" lat="13.518317">
                <ele>165.964722</ele>
                <time>2009-04-25T08:40:00Z</time>
            </trkpt>
            <trkpt lon="99.253294" lat="13.518612">
                <ele>165.484131</ele>
                <time>2009-04-25T08:40:06Z</time>
            </trkpt>
            <trkpt lon="99.253039" lat="13.518982">
                <ele>167.406738</ele>
                <time>2009-04-25T08:40:19Z</time>
            </trkpt>
            <trkpt lon="99.252694" lat="13.519320">
                <ele>170.290649</ele>
                <time>2009-04-25T08:40:39Z</time>
            </trkpt>
        </trkseg>
    </trk>
    <trk>
        <name>April 2009 - Saturday</name>
        <extensions>
            <gpxx:TrackExtension xmlns:gpxx="http://www.garmin.com/xmlschemas/GpxExtensions/v3">
                <gpxx:DisplayColor>Red</gpxx:DisplayColor>
            </gpxx:TrackExtension>
        </extensions>
        <trkseg>
            <trkpt lon="99.230472" lat="13.554684">
                <ele>377.454834</ele>
                <time>2009-04-25T06:02:06Z</time>
            </trkpt>
            <trkpt lon="99.230387" lat="13.554700">
                <ele>376.493530</ele>
                <time>2009-04-25T06:02:41Z</time>
            </trkpt>
            <trkpt lon="99.230325" lat="13.554718">
                <ele>376.974243</ele>
                <time>2009-04-25T06:02:48Z</time>
            </trkpt>
            <trkpt lon="99.230278" lat="13.554710">
                <ele>376.493530</ele>
                <time>2009-04-25T06:02:52Z</time>
            </trkpt>
            <trkpt lon="99.230166" lat="13.554727">
                <ele>374.570801</ele>
                <time>2009-04-25T06:02:56Z</time>
            </trkpt>
            <trkpt lon="99.229934" lat="13.554897">
                <ele>370.244873</ele>
                <time>2009-04-25T06:03:01Z</time>
            </trkpt>
            <trkpt lon="99.229810" lat="13.554981">
                <ele>368.322266</ele>
                <time>2009-04-25T06:03:03Z</time>
            </trkpt>
            <trkpt lon="99.229657" lat="13.555038">
                <ele>368.802978</ele>
                <time>2009-04-25T06:03:06Z</time>
            </trkpt>
            <trkpt lon="99.229610" lat="13.554984">
                <ele>369.283691</ele>
                <time>2009-04-25T06:03:10Z</time>
            </trkpt>
            <trkpt lon="99.229637" lat="13.554973">
                <ele>369.283691</ele>
                <time>2009-04-25T06:03:11Z</time>
            </trkpt>
            <trkpt lon="99.229709" lat="13.554940">
                <ele>369.764282</ele>
                <time>2009-04-25T06:03:13Z</time>
            </trkpt>
            <trkpt lon="99.229826" lat="13.554813">
                <ele>369.283691</ele>
                <time>2009-04-25T06:03:17Z</time>
            </trkpt>
            <trkpt lon="99.229917" lat="13.554641">
                <ele>369.764282</ele>
                <time>2009-04-25T06:03:21Z</time>
            </trkpt>
            <trkpt lon="99.229992" lat="13.554327">
                <ele>367.360962</ele>
                <time>2009-04-25T06:03:26Z</time>
            </trkpt>
            <trkpt lon="99.230010" lat="13.554253">
                <ele>364.476929</ele>
                <time>2009-04-25T06:03:27Z</time>
            </trkpt>
            <trkpt lon="99.230064" lat="13.554097">
                <ele>361.593140</ele>
                <time>2009-04-25T06:03:29Z</time>
            </trkpt>
            <trkpt lon="99.230323" lat="13.553920">
                <ele>359.189697</ele>
                <time>2009-04-25T06:03:33Z</time>
            </trkpt>
            <trkpt lon="99.230575" lat="13.553995">
                <ele>354.383179</ele>
                <time>2009-04-25T06:03:36Z</time>
            </trkpt>
            <trkpt lon="99.230769" lat="13.553986">
                <ele>351.499145</ele>
                <time>2009-04-25T06:03:38Z</time>
            </trkpt>
            <trkpt lon="99.230873" lat="13.553961">
                <ele>350.537842</ele>
                <time>2009-04-25T06:03:39Z</time>
            </trkpt>
            <trkpt lon="99.231057" lat="13.553893">
                <ele>348.134644</ele>
                <time>2009-04-25T06:03:41Z</time>
            </trkpt>
            <trkpt lon="99.231342" lat="13.553749">
                <ele>344.770019</ele>
                <time>2009-04-25T06:03:44Z</time>
            </trkpt>
            <trkpt lon="99.231610" lat="13.553535">
                <ele>339.482666</ele>
                <time>2009-04-25T06:03:47Z</time>
            </trkpt>
            <trkpt lon="99.231875" lat="13.553287">
                <ele>336.118164</ele>
                <time>2009-04-25T06:03:50Z</time>
            </trkpt>
            <trkpt lon="99.232365" lat="13.552876">
                <ele>338.521484</ele>
                <time>2009-04-25T06:03:55Z</time>
            </trkpt>
            <trkpt lon="99.232449" lat="13.552656">
                <ele>337.079468</ele>
                <time>2009-04-25T06:03:59Z</time>
            </trkpt>
            <trkpt lon="99.232471" lat="13.552506">
                <ele>333.234131</ele>
                <time>2009-04-25T06:04:02Z</time>
            </trkpt>
            <trkpt lon="99.232528" lat="13.552399">
                <ele>331.311523</ele>
                <time>2009-04-25T06:04:04Z</time>
            </trkpt>
            <trkpt lon="99.232898" lat="13.551753">
                <ele>327.946777</ele>
                <time>2009-04-25T06:04:14Z</time>
            </trkpt>
            <trkpt lon="99.233000" lat="13.551536">
                <ele>326.024170</ele>
                <time>2009-04-25T06:04:17Z</time>
            </trkpt>
            <trkpt lon="99.233171" lat="13.551168">
                <ele>324.582275</ele>
                <time>2009-04-25T06:04:22Z</time>
            </trkpt>
            <trkpt lon="99.233384" lat="13.550731">
                <ele>327.946777</ele>
                <time>2009-04-25T06:04:28Z</time>
            </trkpt>
            <trkpt lon="99.233411" lat="13.550662">
                <ele>327.946777</ele>
                <time>2009-04-25T06:04:29Z</time>
            </trkpt>
            <trkpt lon="99.233464" lat="13.550530">
                <ele>327.946777</ele>
                <time>2009-04-25T06:04:31Z</time>
            </trkpt>
            <trkpt lon="99.233547" lat="13.550357">
                <ele>330.830933</ele>
                <time>2009-04-25T06:04:36Z</time>
            </trkpt>
            <trkpt lon="99.233610" lat="13.550223">
                <ele>331.792114</ele>
                <time>2009-04-25T06:04:42Z</time>
            </trkpt>
            <trkpt lon="99.233767" lat="13.550057">
                <ele>328.427612</ele>
                <time>2009-04-25T06:04:48Z</time>
            </trkpt>
            <trkpt lon="99.233803" lat="13.550024">
                <ele>328.427612</ele>
                <time>2009-04-25T06:04:49Z</time>
            </trkpt>
            <trkpt lon="99.234027" lat="13.549841">
                <ele>327.946777</ele>
                <time>2009-04-25T06:04:56Z</time>
            </trkpt>
            <trkpt lon="99.234107" lat="13.549764">
                <ele>326.985596</ele>
                <time>2009-04-25T06:04:59Z</time>
            </trkpt>
            <trkpt lon="99.234189" lat="13.549599">
                <ele>324.101562</ele>
                <time>2009-04-25T06:05:03Z</time>
            </trkpt>
            <trkpt lon="99.234266" lat="13.549326">
                <ele>321.698364</ele>
                <time>2009-04-25T06:05:08Z</time>
            </trkpt>
            <trkpt lon="99.234286" lat="13.549218">
                <ele>323.620972</ele>
                <time>2009-04-25T06:05:10Z</time>
            </trkpt>
            <trkpt lon="99.234294" lat="13.549165">
                <ele>322.659668</ele>
                <time>2009-04-25T06:05:11Z</time>
            </trkpt>
            <trkpt lon="99.234162" lat="13.548933">
                <ele>324.101562</ele>
                <time>2009-04-25T06:05:16Z</time>
            </trkpt>
            <trkpt lon="99.234120" lat="13.548889">
                <ele>324.101562</ele>
                <time>2009-04-25T06:05:17Z</time>
            </trkpt>
            <trkpt lon="99.234047" lat="13.548802">
                <ele>326.024170</ele>
                <time>2009-04-25T06:05:19Z</time>
            </trkpt>
            <trkpt lon="99.233839" lat="13.548661">
                <ele>329.388916</ele>
                <time>2009-04-25T06:05:26Z</time>
            </trkpt>
            <trkpt lon="99.233800" lat="13.548623">
                <ele>330.350220</ele>
                <time>2009-04-25T06:05:28Z</time>
            </trkpt>
            <trkpt lon="99.233766" lat="13.548545">
                <ele>330.350220</ele>
                <time>2009-04-25T06:05:32Z</time>
            </trkpt>
            <trkpt lon="99.233830" lat="13.548482">
                <ele>325.543579</ele>
                <time>2009-04-25T06:05:37Z</time>
            </trkpt>
            <trkpt lon="99.233896" lat="13.548466">
                <ele>321.217773</ele>
                <time>2009-04-25T06:05:39Z</time>
            </trkpt>
            <trkpt lon="99.233983" lat="13.548411">
                <ele>316.891724</ele>
                <time>2009-04-25T06:05:42Z</time>
            </trkpt>
            <trkpt lon="99.234040" lat="13.548360">
                <ele>312.565796</ele>
                <time>2009-04-25T06:05:44Z</time>
            </trkpt>
            <trkpt lon="99.234108" lat="13.548300">
                <ele>308.720459</ele>
                <time>2009-04-25T06:05:46Z</time>
            </trkpt>
            <trkpt lon="99.234219" lat="13.548200">
                <ele>301.991333</ele>
                <time>2009-04-25T06:05:49Z</time>
            </trkpt>
            <trkpt lon="99.234312" lat="13.548077">
                <ele>297.665405</ele>
                <time>2009-04-25T06:05:52Z</time>
            </trkpt>
            <trkpt lon="99.234381" lat="13.547927">
                <ele>293.820068</ele>
                <time>2009-04-25T06:05:55Z</time>
            </trkpt>
            <trkpt lon="99.234426" lat="13.547782">
                <ele>289.974853</ele>
                <time>2009-04-25T06:05:58Z</time>
            </trkpt>
            <trkpt lon="99.234486" lat="13.547650">
                <ele>286.129517</ele>
                <time>2009-04-25T06:06:02Z</time>
            </trkpt>
            <trkpt lon="99.234511" lat="13.547597">
                <ele>282.284302</ele>
                <time>2009-04-25T06:06:04Z</time>
            </trkpt>
            <trkpt lon="99.234580" lat="13.547503">
                <ele>278.919678</ele>
                <time>2009-04-25T06:06:08Z</time>
            </trkpt>
            <trkpt lon="99.234678" lat="13.547427">
                <ele>275.074463</ele>
                <time>2009-04-25T06:06:11Z</time>
            </trkpt>
            <trkpt lon="99.234698" lat="13.547380">
                <ele>273.151856</ele>
                <time>2009-04-25T06:06:13Z</time>
            </trkpt>
            <trkpt lon="99.234668" lat="13.547270">
                <ele>269.306519</ele>
                <time>2009-04-25T06:06:17Z</time>
            </trkpt>
            <trkpt lon="99.234636" lat="13.547243">
                <ele>268.825806</ele>
                <time>2009-04-25T06:06:18Z</time>
            </trkpt>
            <trkpt lon="99.234542" lat="13.547154">
                <ele>269.306519</ele>
                <time>2009-04-25T06:06:21Z</time>
            </trkpt>
            <trkpt lon="99.234530" lat="13.547080">
                <ele>267.864502</ele>
                <time>2009-04-25T06:06:23Z</time>
            </trkpt>
            <trkpt lon="99.234569" lat="13.546998">
                <ele>267.383911</ele>
                <time>2009-04-25T06:06:25Z</time>
            </trkpt>
            <trkpt lon="99.234703" lat="13.546873">
                <ele>263.538574</ele>
                <time>2009-04-25T06:06:29Z</time>
            </trkpt>
            <trkpt lon="99.234837" lat="13.546804">
                <ele>263.057861</ele>
                <time>2009-04-25T06:06:32Z</time>
            </trkpt>
            <trkpt lon="99.234928" lat="13.546557">
                <ele>263.057861</ele>
                <time>2009-04-25T06:06:38Z</time>
            </trkpt>
            <trkpt lon="99.234952" lat="13.546243">
                <ele>266.903198</ele>
                <time>2009-04-25T06:06:44Z</time>
            </trkpt>
            <trkpt lon="99.234975" lat="13.545879">
                <ele>267.383911</ele>
                <time>2009-04-25T06:06:53Z</time>
            </trkpt>
            <trkpt lon="99.234958" lat="13.545639">
                <ele>263.538574</ele>
                <time>2009-04-25T06:06:58Z</time>
            </trkpt>
            <trkpt lon="99.234957" lat="13.545594">
                <ele>263.057861</ele>
                <time>2009-04-25T06:06:59Z</time>
            </trkpt>
            <trkpt lon="99.234960" lat="13.545463">
                <ele>260.654541</ele>
                <time>2009-04-25T06:07:02Z</time>
            </trkpt>
            <trkpt lon="99.234971" lat="13.545280">
                <ele>258.731934</ele>
                <time>2009-04-25T06:07:06Z</time>
            </trkpt>
            <trkpt lon="99.235097" lat="13.545106">
                <ele>253.925415</ele>
                <time>2009-04-25T06:07:10Z</time>
            </trkpt>
            <trkpt lon="99.235281" lat="13.544738">
                <ele>253.444702</ele>
                <time>2009-04-25T06:07:17Z</time>
            </trkpt>
            <trkpt lon="99.235461" lat="13.544643">
                <ele>250.080200</ele>
                <time>2009-04-25T06:07:23Z</time>
            </trkpt>
            <trkpt lon="99.235570" lat="13.544454">
                <ele>248.638184</ele>
                <time>2009-04-25T06:07:27Z</time>
            </trkpt>
            <trkpt lon="99.235580" lat="13.544270">
                <ele>248.157593</ele>
                <time>2009-04-25T06:07:31Z</time>
            </trkpt>
            <trkpt lon="99.235579" lat="13.544187">
                <ele>247.676758</ele>
                <time>2009-04-25T06:07:35Z</time>
            </trkpt>
            <trkpt lon="99.235559" lat="13.544173">
                <ele>247.196045</ele>
                <time>2009-04-25T06:07:42Z</time>
            </trkpt>
            <trkpt lon="99.235546" lat="13.544152">
                <ele>247.676758</ele>
                <time>2009-04-25T06:07:50Z</time>
            </trkpt>
            <trkpt lon="99.235549" lat="13.544132">
                <ele>248.638184</ele>
                <time>2009-04-25T06:07:59Z</time>
            </trkpt>
            <trkpt lon="99.235547" lat="13.544093">
                <ele>247.196045</ele>
                <time>2009-04-25T06:08:03Z</time>
            </trkpt>
            <trkpt lon="99.235631" lat="13.544000">
                <ele>243.831543</ele>
                <time>2009-04-25T06:08:06Z</time>
            </trkpt>
            <trkpt lon="99.235866" lat="13.543967">
                <ele>241.908936</ele>
                <time>2009-04-25T06:08:10Z</time>
            </trkpt>
            <trkpt lon="99.236054" lat="13.543944">
                <ele>241.428223</ele>
                <time>2009-04-25T06:08:13Z</time>
            </trkpt>
            <trkpt lon="99.236273" lat="13.543861">
                <ele>241.428223</ele>
                <time>2009-04-25T06:08:17Z</time>
            </trkpt>
            <trkpt lon="99.236502" lat="13.543743">
                <ele>239.505493</ele>
                <time>2009-04-25T06:08:23Z</time>
            </trkpt>
            <trkpt lon="99.236540" lat="13.543672">
                <ele>239.505493</ele>
                <time>2009-04-25T06:08:25Z</time>
            </trkpt>
            <trkpt lon="99.236671" lat="13.543496">
                <ele>235.660278</ele>
                <time>2009-04-25T06:08:29Z</time>
            </trkpt>
            <trkpt lon="99.236766" lat="13.543142">
                <ele>234.699097</ele>
                <time>2009-04-25T06:08:35Z</time>
            </trkpt>
            <trkpt lon="99.236709" lat="13.542886">
                <ele>232.776489</ele>
                <time>2009-04-25T06:08:39Z</time>
            </trkpt>
            <trkpt lon="99.236661" lat="13.542485">
                <ele>229.892334</ele>
                <time>2009-04-25T06:08:45Z</time>
            </trkpt>
            <trkpt lon="99.236679" lat="13.542185">
                <ele>230.373047</ele>
                <time>2009-04-25T06:08:50Z</time>
            </trkpt>
            <trkpt lon="99.236670" lat="13.541971">
                <ele>229.411743</ele>
                <time>2009-04-25T06:08:54Z</time>
            </trkpt>
            <trkpt lon="99.236655" lat="13.541852">
                <ele>229.411743</ele>
                <time>2009-04-25T06:08:56Z</time>
            </trkpt>
            <trkpt lon="99.236731" lat="13.541367">
                <ele>227.969727</ele>
                <time>2009-04-25T06:09:04Z</time>
            </trkpt>
            <trkpt lon="99.236805" lat="13.541026">
                <ele>230.373047</ele>
                <time>2009-04-25T06:09:10Z</time>
            </trkpt>
            <trkpt lon="99.236815" lat="13.540976">
                <ele>230.853760</ele>
                <time>2009-04-25T06:09:11Z</time>
            </trkpt>
            <trkpt lon="99.236872" lat="13.540813">
                <ele>229.892334</ele>
                <time>2009-04-25T06:09:14Z</time>
            </trkpt>
            <trkpt lon="99.236902" lat="13.540569">
                <ele>227.489136</ele>
                <time>2009-04-25T06:09:18Z</time>
            </trkpt>
            <trkpt lon="99.236907" lat="13.540427">
                <ele>228.450439</ele>
                <time>2009-04-25T06:09:20Z</time>
            </trkpt>
            <trkpt lon="99.236949" lat="13.539930">
                <ele>229.892334</ele>
                <time>2009-04-25T06:09:28Z</time>
            </trkpt>
            <trkpt lon="99.236970" lat="13.539536">
                <ele>228.450439</ele>
                <time>2009-04-25T06:09:36Z</time>
            </trkpt>
            <trkpt lon="99.237001" lat="13.539117">
                <ele>228.450439</ele>
                <time>2009-04-25T06:09:42Z</time>
            </trkpt>
            <trkpt lon="99.237032" lat="13.538826">
                <ele>223.163208</ele>
                <time>2009-04-25T06:09:46Z</time>
            </trkpt>
            <trkpt lon="99.237056" lat="13.538674">
                <ele>222.201782</ele>
                <time>2009-04-25T06:09:48Z</time>
            </trkpt>
            <trkpt lon="99.237070" lat="13.538610">
                <ele>222.201782</ele>
                <time>2009-04-25T06:09:49Z</time>
            </trkpt>
            <trkpt lon="99.237205" lat="13.538497">
                <ele>221.240601</ele>
                <time>2009-04-25T06:09:53Z</time>
            </trkpt>
            <trkpt lon="99.237288" lat="13.538507">
                <ele>220.759888</ele>
                <time>2009-04-25T06:09:55Z</time>
            </trkpt>
            <trkpt lon="99.237414" lat="13.538560">
                <ele>218.837280</ele>
                <time>2009-04-25T06:09:58Z</time>
            </trkpt>
            <trkpt lon="99.237503" lat="13.538581">
                <ele>219.798584</ele>
                <time>2009-04-25T06:10:02Z</time>
            </trkpt>
            <trkpt lon="99.237600" lat="13.538643">
                <ele>217.875977</ele>
                <time>2009-04-25T06:10:07Z</time>
            </trkpt>
            <trkpt lon="99.237845" lat="13.538679">
                <ele>216.914673</ele>
                <time>2009-04-25T06:10:14Z</time>
            </trkpt>
            <trkpt lon="99.237878" lat="13.538677">
                <ele>215.953247</ele>
                <time>2009-04-25T06:10:15Z</time>
            </trkpt>
            <trkpt lon="99.238008" lat="13.538501">
                <ele>213.550049</ele>
                <time>2009-04-25T06:10:21Z</time>
            </trkpt>
            <trkpt lon="99.238054" lat="13.538400">
                <ele>215.953247</ele>
                <time>2009-04-25T06:10:27Z</time>
            </trkpt>
            <trkpt lon="99.238128" lat="13.538306">
                <ele>215.953247</ele>
                <time>2009-04-25T06:10:33Z</time>
            </trkpt>
            <trkpt lon="99.238222" lat="13.538211">
                <ele>215.472656</ele>
                <time>2009-04-25T06:10:42Z</time>
            </trkpt>
            <trkpt lon="99.238228" lat="13.538206">
                <ele>215.472656</ele>
                <time>2009-04-25T06:10:44Z</time>
            </trkpt>
            <trkpt lon="99.238396" lat="13.538098">
                <ele>214.511231</ele>
                <time>2009-04-25T06:10:52Z</time>
            </trkpt>
            <trkpt lon="99.238663" lat="13.537957">
                <ele>213.550049</ele>
                <time>2009-04-25T06:11:02Z</time>
            </trkpt>
            <trkpt lon="99.238846" lat="13.537896">
                <ele>212.588623</ele>
                <time>2009-04-25T06:11:10Z</time>
            </trkpt>
            <trkpt lon="99.238926" lat="13.537843">
                <ele>211.627441</ele>
                <time>2009-04-25T06:11:20Z</time>
            </trkpt>
            <trkpt lon="99.238947" lat="13.537805">
                <ele>213.069336</ele>
                <time>2009-04-25T06:11:29Z</time>
            </trkpt>
            <trkpt lon="99.239008" lat="13.537709">
                <ele>214.030640</ele>
                <time>2009-04-25T06:11:41Z</time>
            </trkpt>
            <trkpt lon="99.239018" lat="13.537682">
                <ele>214.991943</ele>
                <time>2009-04-25T06:11:43Z</time>
            </trkpt>
            <trkpt lon="99.238980" lat="13.537499">
                <ele>214.991943</ele>
                <time>2009-04-25T06:11:54Z</time>
            </trkpt>
            <trkpt lon="99.238944" lat="13.537365">
                <ele>217.395386</ele>
                <time>2009-04-25T06:12:05Z</time>
            </trkpt>
            <trkpt lon="99.238915" lat="13.537249">
                <ele>215.953247</ele>
                <time>2009-04-25T06:12:12Z</time>
            </trkpt>
            <trkpt lon="99.239004" lat="13.537072">
                <ele>216.914673</ele>
                <time>2009-04-25T06:12:19Z</time>
            </trkpt>
            <trkpt lon="99.239108" lat="13.537007">
                <ele>218.356567</ele>
                <time>2009-04-25T06:12:23Z</time>
            </trkpt>
            <trkpt lon="99.239297" lat="13.536905">
                <ele>219.317993</ele>
                <time>2009-04-25T06:12:31Z</time>
            </trkpt>
            <trkpt lon="99.239432" lat="13.536757">
                <ele>218.837280</ele>
                <time>2009-04-25T06:12:37Z</time>
            </trkpt>
            <trkpt lon="99.239468" lat="13.536715">
                <ele>218.356567</ele>
                <time>2009-04-25T06:12:39Z</time>
            </trkpt>
            <trkpt lon="99.239451" lat="13.536588">
                <ele>217.875977</ele>
                <time>2009-04-25T06:12:45Z</time>
            </trkpt>
            <trkpt lon="99.239429" lat="13.536474">
                <ele>215.953247</ele>
                <time>2009-04-25T06:12:51Z</time>
            </trkpt>
            <trkpt lon="99.239431" lat="13.536473">
                <ele>215.953247</ele>
                <time>2009-04-25T06:12:58Z</time>
            </trkpt>
            <trkpt lon="99.239459" lat="13.536431">
                <ele>215.472656</ele>
                <time>2009-04-25T06:14:06Z</time>
            </trkpt>
            <trkpt lon="99.239444" lat="13.536438">
                <ele>214.991943</ele>
                <time>2009-04-25T06:14:29Z</time>
            </trkpt>
            <trkpt lon="99.239455" lat="13.536445">
                <ele>214.991943</ele>
                <time>2009-04-25T06:14:45Z</time>
            </trkpt>
            <trkpt lon="99.239458" lat="13.536435">
                <ele>215.472656</ele>
                <time>2009-04-25T06:15:27Z</time>
            </trkpt>
            <trkpt lon="99.239438" lat="13.536434">
                <ele>215.953247</ele>
                <time>2009-04-25T06:15:52Z</time>
            </trkpt>
            <trkpt lon="99.239405" lat="13.536406">
                <ele>215.472656</ele>
                <time>2009-04-25T06:16:01Z</time>
            </trkpt>
            <trkpt lon="99.239313" lat="13.536362">
                <ele>216.914673</ele>
                <time>2009-04-25T06:16:11Z</time>
            </trkpt>
            <trkpt lon="99.239292" lat="13.536348">
                <ele>216.914673</ele>
                <time>2009-04-25T06:16:18Z</time>
            </trkpt>
            <trkpt lon="99.239179" lat="13.536299">
                <ele>216.914673</ele>
                <time>2009-04-25T06:16:26Z</time>
            </trkpt>
            <trkpt lon="99.239045" lat="13.536247">
                <ele>216.914673</ele>
                <time>2009-04-25T06:16:38Z</time>
            </trkpt>
            <trkpt lon="99.238924" lat="13.536210">
                <ele>217.395386</ele>
                <time>2009-04-25T06:16:46Z</time>
            </trkpt>
            <trkpt lon="99.238904" lat="13.536210">
                <ele>217.395386</ele>
                <time>2009-04-25T06:16:51Z</time>
            </trkpt>
            <trkpt lon="99.238862" lat="13.536198">
                <ele>218.356567</ele>
                <time>2009-04-25T06:16:59Z</time>
            </trkpt>
            <trkpt lon="99.238758" lat="13.536165">
                <ele>221.240601</ele>
                <time>2009-04-25T06:17:09Z</time>
            </trkpt>
            <trkpt lon="99.238749" lat="13.536162">
                <ele>221.721191</ele>
                <time>2009-04-25T06:17:10Z</time>
            </trkpt>
            <trkpt lon="99.238665" lat="13.536152">
                <ele>222.201782</ele>
                <time>2009-04-25T06:17:19Z</time>
            </trkpt>
            <trkpt lon="99.238589" lat="13.536149">
                <ele>222.201782</ele>
                <time>2009-04-25T06:17:24Z</time>
            </trkpt>
            <trkpt lon="99.238443" lat="13.536125">
                <ele>221.240601</ele>
                <time>2009-04-25T06:17:29Z</time>
            </trkpt>
            <trkpt lon="99.238143" lat="13.536046">
                <ele>220.759888</ele>
                <time>2009-04-25T06:17:37Z</time>
            </trkpt>
            <trkpt lon="99.237783" lat="13.535930">
                <ele>221.240601</ele>
                <time>2009-04-25T06:17:47Z</time>
            </trkpt>
            <trkpt lon="99.237696" lat="13.535746">
                <ele>221.240601</ele>
                <time>2009-04-25T06:17:53Z</time>
            </trkpt>
            <trkpt lon="99.237640" lat="13.535576">
                <ele>219.317993</ele>
                <time>2009-04-25T06:17:57Z</time>
            </trkpt>
            <trkpt lon="99.237633" lat="13.535397">
                <ele>221.240601</ele>
                <time>2009-04-25T06:18:01Z</time>
            </trkpt>
            <trkpt lon="99.237780" lat="13.534977">
                <ele>219.798584</ele>
                <time>2009-04-25T06:18:10Z</time>
            </trkpt>
            <trkpt lon="99.237917" lat="13.534516">
                <ele>216.914673</ele>
                <time>2009-04-25T06:18:18Z</time>
            </trkpt>
            <trkpt lon="99.237931" lat="13.534458">
                <ele>216.433960</ele>
                <time>2009-04-25T06:18:19Z</time>
            </trkpt>
            <trkpt lon="99.237974" lat="13.534200">
                <ele>216.914673</ele>
                <time>2009-04-25T06:18:24Z</time>
            </trkpt>
            <trkpt lon="99.238174" lat="13.533878">
                <ele>212.108032</ele>
                <time>2009-04-25T06:18:31Z</time>
            </trkpt>
            <trkpt lon="99.238351" lat="13.533645">
                <ele>211.627441</ele>
                <time>2009-04-25T06:18:36Z</time>
            </trkpt>
            <trkpt lon="99.238546" lat="13.533423">
                <ele>210.185425</ele>
                <time>2009-04-25T06:18:42Z</time>
            </trkpt>
            <trkpt lon="99.238648" lat="13.533205">
                <ele>209.224121</ele>
                <time>2009-04-25T06:18:46Z</time>
            </trkpt>
            <trkpt lon="99.238859" lat="13.532969">
                <ele>206.820679</ele>
                <time>2009-04-25T06:18:51Z</time>
            </trkpt>
            <trkpt lon="99.238979" lat="13.532895">
                <ele>206.820679</ele>
                <time>2009-04-25T06:18:54Z</time>
            </trkpt>
            <trkpt lon="99.239170" lat="13.532776">
                <ele>206.820679</ele>
                <time>2009-04-25T06:18:59Z</time>
            </trkpt>
            <trkpt lon="99.239225" lat="13.532676">
                <ele>205.859497</ele>
                <time>2009-04-25T06:19:01Z</time>
            </trkpt>
            <trkpt lon="99.239521" lat="13.532153">
                <ele>203.456177</ele>
                <time>2009-04-25T06:19:11Z</time>
            </trkpt>
            <trkpt lon="99.239551" lat="13.532103">
                <ele>202.014282</ele>
                <time>2009-04-25T06:19:12Z</time>
            </trkpt>
            <trkpt lon="99.239641" lat="13.531902">
                <ele>202.975464</ele>
                <time>2009-04-25T06:19:16Z</time>
            </trkpt>
            <trkpt lon="99.239850" lat="13.531541">
                <ele>202.494873</ele>
                <time>2009-04-25T06:19:23Z</time>
            </trkpt>
            <trkpt lon="99.240128" lat="13.531187">
                <ele>204.417481</ele>
                <time>2009-04-25T06:19:31Z</time>
            </trkpt>
            <trkpt lon="99.240183" lat="13.531111">
                <ele>205.378784</ele>
                <time>2009-04-25T06:19:33Z</time>
            </trkpt>
            <trkpt lon="99.240386" lat="13.530926">
                <ele>205.859497</ele>
                <time>2009-04-25T06:19:40Z</time>
            </trkpt>
            <trkpt lon="99.240553" lat="13.530789">
                <ele>204.417481</ele>
                <time>2009-04-25T06:19:45Z</time>
            </trkpt>
            <trkpt lon="99.240667" lat="13.530561">
                <ele>202.494873</ele>
                <time>2009-04-25T06:19:50Z</time>
            </trkpt>
            <trkpt lon="99.240759" lat="13.530327">
                <ele>199.130127</ele>
                <time>2009-04-25T06:19:54Z</time>
            </trkpt>
            <trkpt lon="99.240804" lat="13.530221">
                <ele>198.168945</ele>
                <time>2009-04-25T06:19:56Z</time>
            </trkpt>
            <trkpt lon="99.240821" lat="13.530168">
                <ele>197.207519</ele>
                <time>2009-04-25T06:19:57Z</time>
            </trkpt>
            <trkpt lon="99.240860" lat="13.530049">
                <ele>196.246338</ele>
                <time>2009-04-25T06:19:59Z</time>
            </trkpt>
            <trkpt lon="99.240878" lat="13.529991">
                <ele>196.246338</ele>
                <time>2009-04-25T06:20:00Z</time>
            </trkpt>
            <trkpt lon="99.240789" lat="13.529772">
                <ele>198.168945</ele>
                <time>2009-04-25T06:20:05Z</time>
            </trkpt>
            <trkpt lon="99.240669" lat="13.529652">
                <ele>199.610840</ele>
                <time>2009-04-25T06:20:09Z</time>
            </trkpt>
            <trkpt lon="99.240566" lat="13.529462">
                <ele>200.572266</ele>
                <time>2009-04-25T06:20:15Z</time>
            </trkpt>
            <trkpt lon="99.240669" lat="13.529275">
                <ele>202.014282</ele>
                <time>2009-04-25T06:20:23Z</time>
            </trkpt>
            <trkpt lon="99.240762" lat="13.529200">
                <ele>200.091675</ele>
                <time>2009-04-25T06:20:27Z</time>
            </trkpt>
            <trkpt lon="99.241009" lat="13.528959">
                <ele>202.014282</ele>
                <time>2009-04-25T06:20:35Z</time>
            </trkpt>
            <trkpt lon="99.241039" lat="13.528930">
                <ele>202.014282</ele>
                <time>2009-04-25T06:20:36Z</time>
            </trkpt>
            <trkpt lon="99.241188" lat="13.528767">
                <ele>202.494873</ele>
                <time>2009-04-25T06:20:43Z</time>
            </trkpt>
            <trkpt lon="99.241269" lat="13.528676">
                <ele>200.572266</ele>
                <time>2009-04-25T06:20:46Z</time>
            </trkpt>
            <trkpt lon="99.241535" lat="13.528371">
                <ele>199.610840</ele>
                <time>2009-04-25T06:20:54Z</time>
            </trkpt>
            <trkpt lon="99.241629" lat="13.528229">
                <ele>199.130127</ele>
                <time>2009-04-25T06:21:01Z</time>
            </trkpt>
            <trkpt lon="99.241659" lat="13.528159">
                <ele>197.688232</ele>
                <time>2009-04-25T06:21:06Z</time>
            </trkpt>
            <trkpt lon="99.241683" lat="13.528088">
                <ele>196.726929</ele>
                <time>2009-04-25T06:21:12Z</time>
            </trkpt>
            <trkpt lon="99.241726" lat="13.527925">
                <ele>194.804321</ele>
                <time>2009-04-25T06:21:18Z</time>
            </trkpt>
            <trkpt lon="99.241733" lat="13.527883">
                <ele>195.284912</ele>
                <time>2009-04-25T06:21:19Z</time>
            </trkpt>
            <trkpt lon="99.241780" lat="13.527759">
                <ele>192.881714</ele>
                <time>2009-04-25T06:21:22Z</time>
            </trkpt>
            <trkpt lon="99.241958" lat="13.527480">
                <ele>192.881714</ele>
                <time>2009-04-25T06:21:29Z</time>
            </trkpt>
            <trkpt lon="99.242138" lat="13.527284">
                <ele>191.920288</ele>
                <time>2009-04-25T06:21:34Z</time>
            </trkpt>
            <trkpt lon="99.242373" lat="13.526956">
                <ele>191.439575</ele>
                <time>2009-04-25T06:21:41Z</time>
            </trkpt>
            <trkpt lon="99.242460" lat="13.526823">
                <ele>191.439575</ele>
                <time>2009-04-25T06:21:44Z</time>
            </trkpt>
            <trkpt lon="99.242733" lat="13.526417">
                <ele>191.439575</ele>
                <time>2009-04-25T06:21:53Z</time>
            </trkpt>
            <trkpt lon="99.242982" lat="13.526063">
                <ele>189.997681</ele>
                <time>2009-04-25T06:22:00Z</time>
            </trkpt>
            <trkpt lon="99.243028" lat="13.525956">
                <ele>189.036377</ele>
                <time>2009-04-25T06:22:02Z</time>
            </trkpt>
            <trkpt lon="99.243163" lat="13.525809">
                <ele>190.478394</ele>
                <time>2009-04-25T06:22:06Z</time>
            </trkpt>
            <trkpt lon="99.243337" lat="13.525657">
                <ele>188.555786</ele>
                <time>2009-04-25T06:22:10Z</time>
            </trkpt>
            <trkpt lon="99.243540" lat="13.525407">
                <ele>186.633179</ele>
                <time>2009-04-25T06:22:15Z</time>
            </trkpt>
            <trkpt lon="99.243952" lat="13.524777">
                <ele>184.710571</ele>
                <time>2009-04-25T06:22:26Z</time>
            </trkpt>
            <trkpt lon="99.244120" lat="13.524298">
                <ele>187.113769</ele>
                <time>2009-04-25T06:22:33Z</time>
            </trkpt>
            <trkpt lon="99.244217" lat="13.523805">
                <ele>183.749023</ele>
                <time>2009-04-25T06:22:40Z</time>
            </trkpt>
            <trkpt lon="99.244274" lat="13.523571">
                <ele>181.826416</ele>
                <time>2009-04-25T06:22:43Z</time>
            </trkpt>
            <trkpt lon="99.244594" lat="13.522940">
                <ele>181.826416</ele>
                <time>2009-04-25T06:22:52Z</time>
            </trkpt>
            <trkpt lon="99.244637" lat="13.522875">
                <ele>181.345825</ele>
                <time>2009-04-25T06:22:53Z</time>
            </trkpt>
            <trkpt lon="99.245016" lat="13.522359">
                <ele>179.903809</ele>
                <time>2009-04-25T06:23:01Z</time>
            </trkpt>
            <trkpt lon="99.245068" lat="13.522296">
                <ele>180.384522</ele>
                <time>2009-04-25T06:23:02Z</time>
            </trkpt>
            <trkpt lon="99.245762" lat="13.521726">
                <ele>179.423218</ele>
                <time>2009-04-25T06:23:13Z</time>
            </trkpt>
            <trkpt lon="99.246437" lat="13.521194">
                <ele>178.942627</ele>
                <time>2009-04-25T06:23:24Z</time>
            </trkpt>
            <trkpt lon="99.246619" lat="13.521048">
                <ele>178.461914</ele>
                <time>2009-04-25T06:23:30Z</time>
            </trkpt>
            <trkpt lon="99.246740" lat="13.520962">
                <ele>177.500610</ele>
                <time>2009-04-25T06:23:34Z</time>
            </trkpt>
            <trkpt lon="99.246812" lat="13.520927">
                <ele>177.500610</ele>
                <time>2009-04-25T06:23:38Z</time>
            </trkpt>
            <trkpt lon="99.246931" lat="13.520796">
                <ele>177.020019</ele>
                <time>2009-04-25T06:23:46Z</time>
            </trkpt>
            <trkpt lon="99.246975" lat="13.520749">
                <ele>176.539307</ele>
                <time>2009-04-25T06:23:48Z</time>
            </trkpt>
            <trkpt lon="99.247204" lat="13.520298">
                <ele>175.577881</ele>
                <time>2009-04-25T06:23:59Z</time>
            </trkpt>
            <trkpt lon="99.247413" lat="13.519706">
                <ele>176.539307</ele>
                <time>2009-04-25T06:24:11Z</time>
            </trkpt>
            <trkpt lon="99.247603" lat="13.519140">
                <ele>176.058594</ele>
                <time>2009-04-25T06:24:22Z</time>
            </trkpt>
            <trkpt lon="99.247831" lat="13.518471">
                <ele>177.020019</ele>
                <time>2009-04-25T06:24:34Z</time>
            </trkpt>
            <trkpt lon="99.247882" lat="13.518310">
                <ele>178.461914</ele>
                <time>2009-04-25T06:24:37Z</time>
            </trkpt>
            <trkpt lon="99.248181" lat="13.517625">
                <ele>179.423218</ele>
                <time>2009-04-25T06:24:51Z</time>
            </trkpt>
            <trkpt lon="99.248475" lat="13.517234">
                <ele>177.500610</ele>
                <time>2009-04-25T06:24:59Z</time>
            </trkpt>
            <trkpt lon="99.248674" lat="13.517015">
                <ele>176.058594</ele>
                <time>2009-04-25T06:25:03Z</time>
            </trkpt>
            <trkpt lon="99.249255" lat="13.516405">
                <ele>175.577881</ele>
                <time>2009-04-25T06:25:15Z</time>
            </trkpt>
            <trkpt lon="99.249608" lat="13.516149">
                <ele>173.174683</ele>
                <time>2009-04-25T06:25:21Z</time>
            </trkpt>
            <trkpt lon="99.250016" lat="13.515805">
                <ele>172.213257</ele>
                <time>2009-04-25T06:25:28Z</time>
            </trkpt>
            <trkpt lon="99.250196" lat="13.515533">
                <ele>172.693970</ele>
                <time>2009-04-25T06:25:35Z</time>
            </trkpt>
            <trkpt lon="99.250357" lat="13.515227">
                <ele>172.213257</ele>
                <time>2009-04-25T06:25:44Z</time>
            </trkpt>
            <trkpt lon="99.250370" lat="13.515206">
                <ele>172.213257</ele>
                <time>2009-04-25T06:25:45Z</time>
            </trkpt>
            <trkpt lon="99.250466" lat="13.514959">
                <ele>172.213257</ele>
                <time>2009-04-25T06:25:54Z</time>
            </trkpt>
            <trkpt lon="99.250624" lat="13.514719">
                <ele>172.693970</ele>
                <time>2009-04-25T06:26:02Z</time>
            </trkpt>
            <trkpt lon="99.250706" lat="13.514562">
                <ele>172.213257</ele>
                <time>2009-04-25T06:26:08Z</time>
            </trkpt>
            <trkpt lon="99.250666" lat="13.514564">
                <ele>173.174683</ele>
                <time>2009-04-25T06:26:13Z</time>
            </trkpt>
            <trkpt lon="99.250657" lat="13.514643">
                <ele>171.732666</ele>
                <time>2009-04-25T06:26:17Z</time>
            </trkpt>
            <trkpt lon="99.250482" lat="13.514894">
                <ele>172.213257</ele>
                <time>2009-04-25T06:26:27Z</time>
            </trkpt>
            <trkpt lon="99.250294" lat="13.515266">
                <ele>170.771362</ele>
                <time>2009-04-25T06:26:38Z</time>
            </trkpt>
            <trkpt lon="99.250129" lat="13.515666">
                <ele>171.732666</ele>
                <time>2009-04-25T06:26:49Z</time>
            </trkpt>
            <trkpt lon="99.249916" lat="13.515914">
                <ele>171.252075</ele>
                <time>2009-04-25T06:26:58Z</time>
            </trkpt>
            <trkpt lon="99.249715" lat="13.516079">
                <ele>172.213257</ele>
                <time>2009-04-25T06:27:07Z</time>
            </trkpt>
            <trkpt lon="99.249424" lat="13.516277">
                <ele>174.135864</ele>
                <time>2009-04-25T06:27:20Z</time>
            </trkpt>
            <trkpt lon="99.249259" lat="13.516414">
                <ele>175.577881</ele>
                <time>2009-04-25T06:27:28Z</time>
            </trkpt>
            <trkpt lon="99.249026" lat="13.516648">
                <ele>176.539307</ele>
                <time>2009-04-25T06:27:39Z</time>
            </trkpt>
            <trkpt lon="99.248766" lat="13.516934">
                <ele>177.020019</ele>
                <time>2009-04-25T06:27:51Z</time>
            </trkpt>
            <trkpt lon="99.248514" lat="13.517209">
                <ele>177.020019</ele>
                <time>2009-04-25T06:28:02Z</time>
            </trkpt>
            <trkpt lon="99.248270" lat="13.517511">
                <ele>177.500610</ele>
                <time>2009-04-25T06:28:15Z</time>
            </trkpt>
            <trkpt lon="99.248146" lat="13.517675">
                <ele>177.981201</ele>
                <time>2009-04-25T06:28:22Z</time>
            </trkpt>
            <trkpt lon="99.247981" lat="13.517993">
                <ele>178.461914</ele>
                <time>2009-04-25T06:28:32Z</time>
            </trkpt>
            <trkpt lon="99.247940" lat="13.518114">
                <ele>176.539307</ele>
                <time>2009-04-25T06:28:35Z</time>
            </trkpt>
            <trkpt lon="99.247796" lat="13.518119">
                <ele>176.539307</ele>
                <time>2009-04-25T06:28:39Z</time>
            </trkpt>
            <trkpt lon="99.247712" lat="13.518011">
                <ele>177.020019</ele>
                <time>2009-04-25T06:28:44Z</time>
            </trkpt>
            <trkpt lon="99.247540" lat="13.517874">
                <ele>178.942627</ele>
                <time>2009-04-25T06:28:53Z</time>
            </trkpt>
            <trkpt lon="99.247244" lat="13.517711">
                <ele>181.345825</ele>
                <time>2009-04-25T06:29:07Z</time>
            </trkpt>
            <trkpt lon="99.247078" lat="13.517618">
                <ele>183.268433</ele>
                <time>2009-04-25T06:29:18Z</time>
            </trkpt>
            <trkpt lon="99.246860" lat="13.517483">
                <ele>182.307129</ele>
                <time>2009-04-25T06:29:31Z</time>
            </trkpt>
            <trkpt lon="99.246692" lat="13.517351">
                <ele>182.787842</ele>
                <time>2009-04-25T06:29:40Z</time>
            </trkpt>
            <trkpt lon="99.246646" lat="13.517292">
                <ele>186.152466</ele>
                <time>2009-04-25T06:29:44Z</time>
            </trkpt>
            <trkpt lon="99.246636" lat="13.517278">
                <ele>185.191162</ele>
                <time>2009-04-25T06:29:45Z</time>
            </trkpt>
            <trkpt lon="99.246623" lat="13.517131">
                <ele>186.152466</ele>
                <time>2009-04-25T06:29:55Z</time>
            </trkpt>
            <trkpt lon="99.246636" lat="13.517027">
                <ele>187.113769</ele>
                <time>2009-04-25T06:30:02Z</time>
            </trkpt>
            <trkpt lon="99.246627" lat="13.516995">
                <ele>187.594360</ele>
                <time>2009-04-25T06:30:13Z</time>
            </trkpt>
            <trkpt lon="99.246657" lat="13.516954">
                <ele>186.152466</ele>
                <time>2009-04-25T06:31:03Z</time>
            </trkpt>
            <trkpt lon="99.246717" lat="13.516752">
                <ele>186.152466</ele>
                <time>2009-04-25T06:31:12Z</time>
            </trkpt>
            <trkpt lon="99.246821" lat="13.516351">
                <ele>186.633179</ele>
                <time>2009-04-25T06:31:26Z</time>
            </trkpt>
            <trkpt lon="99.246935" lat="13.515966">
                <ele>187.594360</ele>
                <time>2009-04-25T06:31:39Z</time>
            </trkpt>
            <trkpt lon="99.246987" lat="13.515859">
                <ele>187.113769</ele>
                <time>2009-04-25T06:31:43Z</time>
            </trkpt>
            <trkpt lon="99.246953" lat="13.515644">
                <ele>188.075073</ele>
                <time>2009-04-25T06:31:52Z</time>
            </trkpt>
            <trkpt lon="99.246955" lat="13.515529">
                <ele>188.075073</ele>
                <time>2009-04-25T06:31:59Z</time>
            </trkpt>
            <trkpt lon="99.246933" lat="13.515384">
                <ele>189.036377</ele>
                <time>2009-04-25T06:32:08Z</time>
            </trkpt>
            <trkpt lon="99.246882" lat="13.515243">
                <ele>188.555786</ele>
                <time>2009-04-25T06:32:17Z</time>
            </trkpt>
            <trkpt lon="99.246701" lat="13.515137">
                <ele>189.997681</ele>
                <time>2009-04-25T06:32:29Z</time>
            </trkpt>
            <trkpt lon="99.246536" lat="13.515020">
                <ele>190.478394</ele>
                <time>2009-04-25T06:32:41Z</time>
            </trkpt>
            <trkpt lon="99.246359" lat="13.514925">
                <ele>190.958984</ele>
                <time>2009-04-25T06:32:53Z</time>
            </trkpt>
            <trkpt lon="99.246236" lat="13.514853">
                <ele>193.362305</ele>
                <time>2009-04-25T06:33:03Z</time>
            </trkpt>
            <trkpt lon="99.246107" lat="13.514840">
                <ele>193.362305</ele>
                <time>2009-04-25T06:33:12Z</time>
            </trkpt>
            <trkpt lon="99.245951" lat="13.514817">
                <ele>194.323731</ele>
                <time>2009-04-25T06:33:22Z</time>
            </trkpt>
            <trkpt lon="99.245938" lat="13.514806">
                <ele>193.843018</ele>
                <time>2009-04-25T06:33:23Z</time>
            </trkpt>
            <trkpt lon="99.245898" lat="13.514654">
                <ele>196.726929</ele>
                <time>2009-04-25T06:33:33Z</time>
            </trkpt>
            <trkpt lon="99.245930" lat="13.514534">
                <ele>195.765625</ele>
                <time>2009-04-25T06:33:41Z</time>
            </trkpt>
            <trkpt lon="99.246018" lat="13.514428">
                <ele>195.284912</ele>
                <time>2009-04-25T06:33:48Z</time>
            </trkpt>
            <trkpt lon="99.246176" lat="13.514315">
                <ele>194.323731</ele>
                <time>2009-04-25T06:33:54Z</time>
            </trkpt>
            <trkpt lon="99.246418" lat="13.514116">
                <ele>193.362305</ele>
                <time>2009-04-25T06:34:03Z</time>
            </trkpt>
            <trkpt lon="99.246664" lat="13.513925">
                <ele>191.920288</ele>
                <time>2009-04-25T06:34:10Z</time>
            </trkpt>
            <trkpt lon="99.246704" lat="13.513890">
                <ele>191.439575</ele>
                <time>2009-04-25T06:34:11Z</time>
            </trkpt>
            <trkpt lon="99.246765" lat="13.513816">
                <ele>191.920288</ele>
                <time>2009-04-25T06:34:13Z</time>
            </trkpt>
            <trkpt lon="99.246841" lat="13.513688">
                <ele>190.478394</ele>
                <time>2009-04-25T06:34:16Z</time>
            </trkpt>
            <trkpt lon="99.246979" lat="13.513487">
                <ele>189.997681</ele>
                <time>2009-04-25T06:34:22Z</time>
            </trkpt>
            <trkpt lon="99.247129" lat="13.513412">
                <ele>186.633179</ele>
                <time>2009-04-25T06:34:27Z</time>
            </trkpt>
            <trkpt lon="99.247168" lat="13.513400">
                <ele>187.113769</ele>
                <time>2009-04-25T06:34:28Z</time>
            </trkpt>
            <trkpt lon="99.247408" lat="13.513320">
                <ele>184.229858</ele>
                <time>2009-04-25T06:34:34Z</time>
            </trkpt>
            <trkpt lon="99.247697" lat="13.513176">
                <ele>181.826416</ele>
                <time>2009-04-25T06:34:42Z</time>
            </trkpt>
            <trkpt lon="99.247782" lat="13.513114">
                <ele>181.345825</ele>
                <time>2009-04-25T06:34:45Z</time>
            </trkpt>
            <trkpt lon="99.247933" lat="13.512889">
                <ele>178.942627</ele>
                <time>2009-04-25T06:34:50Z</time>
            </trkpt>
            <trkpt lon="99.248217" lat="13.512386">
                <ele>176.058594</ele>
                <time>2009-04-25T06:34:58Z</time>
            </trkpt>
            <trkpt lon="99.248347" lat="13.512168">
                <ele>176.539307</ele>
                <time>2009-04-25T06:35:02Z</time>
            </trkpt>
            <trkpt lon="99.248512" lat="13.512165">
                <ele>175.577881</ele>
                <time>2009-04-25T06:35:06Z</time>
            </trkpt>
            <trkpt lon="99.248918" lat="13.512277">
                <ele>177.500610</ele>
                <time>2009-04-25T06:35:15Z</time>
            </trkpt>
            <trkpt lon="99.249073" lat="13.512264">
                <ele>177.500610</ele>
                <time>2009-04-25T06:35:21Z</time>
            </trkpt>
            <trkpt lon="99.249300" lat="13.512191">
                <ele>177.020019</ele>
                <time>2009-04-25T06:35:29Z</time>
            </trkpt>
            <trkpt lon="99.249498" lat="13.512038">
                <ele>177.500610</ele>
                <time>2009-04-25T06:35:35Z</time>
            </trkpt>
            <trkpt lon="99.249762" lat="13.511621">
                <ele>177.981201</ele>
                <time>2009-04-25T06:35:45Z</time>
            </trkpt>
            <trkpt lon="99.249978" lat="13.511231">
                <ele>176.058594</ele>
                <time>2009-04-25T06:35:53Z</time>
            </trkpt>
            <trkpt lon="99.250330" lat="13.510611">
                <ele>177.500610</ele>
                <time>2009-04-25T06:36:05Z</time>
            </trkpt>
            <trkpt lon="99.250381" lat="13.510510">
                <ele>178.942627</ele>
                <time>2009-04-25T06:36:07Z</time>
            </trkpt>
            <trkpt lon="99.250337" lat="13.510411">
                <ele>179.423218</ele>
                <time>2009-04-25T06:36:12Z</time>
            </trkpt>
            <trkpt lon="99.250058" lat="13.510262">
                <ele>180.865234</ele>
                <time>2009-04-25T06:36:23Z</time>
            </trkpt>
            <trkpt lon="99.249767" lat="13.510164">
                <ele>178.942627</ele>
                <time>2009-04-25T06:36:31Z</time>
            </trkpt>
            <trkpt lon="99.249521" lat="13.510050">
                <ele>178.461914</ele>
                <time>2009-04-25T06:36:38Z</time>
            </trkpt>
            <trkpt lon="99.249365" lat="13.509863">
                <ele>175.577881</ele>
                <time>2009-04-25T06:36:43Z</time>
            </trkpt>
            <trkpt lon="99.249221" lat="13.509554">
                <ele>178.461914</ele>
                <time>2009-04-25T06:36:49Z</time>
            </trkpt>
            <trkpt lon="99.249207" lat="13.509511">
                <ele>179.423218</ele>
                <time>2009-04-25T06:36:52Z</time>
            </trkpt>
            <trkpt lon="99.249117" lat="13.509352">
                <ele>178.942627</ele>
                <time>2009-04-25T06:37:00Z</time>
            </trkpt>
            <trkpt lon="99.249075" lat="13.509300">
                <ele>178.461914</ele>
                <time>2009-04-25T06:37:02Z</time>
            </trkpt>
            <trkpt lon="99.248767" lat="13.508970">
                <ele>178.461914</ele>
                <time>2009-04-25T06:37:12Z</time>
            </trkpt>
            <trkpt lon="99.248482" lat="13.508621">
                <ele>178.461914</ele>
                <time>2009-04-25T06:37:22Z</time>
            </trkpt>
            <trkpt lon="99.248398" lat="13.508512">
                <ele>175.097290</ele>
                <time>2009-04-25T06:37:25Z</time>
            </trkpt>
            <trkpt lon="99.248370" lat="13.508473">
                <ele>176.058594</ele>
                <time>2009-04-25T06:37:26Z</time>
            </trkpt>
            <trkpt lon="99.248273" lat="13.508354">
                <ele>176.058594</ele>
                <time>2009-04-25T06:37:29Z</time>
            </trkpt>
            <trkpt lon="99.248184" lat="13.508193">
                <ele>177.020019</ele>
                <time>2009-04-25T06:37:33Z</time>
            </trkpt>
            <trkpt lon="99.248072" lat="13.507919">
                <ele>179.903809</ele>
                <time>2009-04-25T06:37:42Z</time>
            </trkpt>
            <trkpt lon="99.248004" lat="13.507592">
                <ele>180.384522</ele>
                <time>2009-04-25T06:37:54Z</time>
            </trkpt>
            <trkpt lon="99.247949" lat="13.507332">
                <ele>181.826416</ele>
                <time>2009-04-25T06:38:04Z</time>
            </trkpt>
            <trkpt lon="99.247925" lat="13.507148">
                <ele>181.826416</ele>
                <time>2009-04-25T06:38:12Z</time>
            </trkpt>
            <trkpt lon="99.247903" lat="13.506929">
                <ele>181.826416</ele>
                <time>2009-04-25T06:38:20Z</time>
            </trkpt>
            <trkpt lon="99.247888" lat="13.506804">
                <ele>180.865234</ele>
                <time>2009-04-25T06:38:28Z</time>
            </trkpt>
            <trkpt lon="99.247916" lat="13.506748">
                <ele>181.345825</ele>
                <time>2009-04-25T06:38:36Z</time>
            </trkpt>
            <trkpt lon="99.247912" lat="13.506702">
                <ele>182.307129</ele>
                <time>2009-04-25T06:38:43Z</time>
            </trkpt>
            <trkpt lon="99.247907" lat="13.506659">
                <ele>181.826416</ele>
                <time>2009-04-25T06:38:50Z</time>
            </trkpt>
            <trkpt lon="99.247891" lat="13.506643">
                <ele>180.865234</ele>
                <time>2009-04-25T06:38:53Z</time>
            </trkpt>
            <trkpt lon="99.247867" lat="13.506598">
                <ele>179.423218</ele>
                <time>2009-04-25T06:38:57Z</time>
            </trkpt>
            <trkpt lon="99.247829" lat="13.506485">
                <ele>177.981201</ele>
                <time>2009-04-25T06:39:01Z</time>
            </trkpt>
            <trkpt lon="99.247791" lat="13.506086">
                <ele>177.981201</ele>
                <time>2009-04-25T06:39:10Z</time>
            </trkpt>
            <trkpt lon="99.247725" lat="13.505588">
                <ele>179.903809</ele>
                <time>2009-04-25T06:39:20Z</time>
            </trkpt>
            <trkpt lon="99.247715" lat="13.505512">
                <ele>180.384522</ele>
                <time>2009-04-25T06:39:22Z</time>
            </trkpt>
            <trkpt lon="99.247685" lat="13.505268">
                <ele>177.981201</ele>
                <time>2009-04-25T06:39:28Z</time>
            </trkpt>
            <trkpt lon="99.247612" lat="13.504765">
                <ele>176.539307</ele>
                <time>2009-04-25T06:39:37Z</time>
            </trkpt>
            <trkpt lon="99.247502" lat="13.504460">
                <ele>176.539307</ele>
                <time>2009-04-25T06:39:42Z</time>
            </trkpt>
            <trkpt lon="99.247477" lat="13.504220">
                <ele>177.981201</ele>
                <time>2009-04-25T06:39:46Z</time>
            </trkpt>
            <trkpt lon="99.247492" lat="13.504008">
                <ele>175.097290</ele>
                <time>2009-04-25T06:39:50Z</time>
            </trkpt>
            <trkpt lon="99.247496" lat="13.503953">
                <ele>175.577881</ele>
                <time>2009-04-25T06:39:51Z</time>
            </trkpt>
            <trkpt lon="99.247480" lat="13.503568">
                <ele>178.942627</ele>
                <time>2009-04-25T06:39:58Z</time>
            </trkpt>
            <trkpt lon="99.247478" lat="13.503522">
                <ele>178.942627</ele>
                <time>2009-04-25T06:39:59Z</time>
            </trkpt>
            <trkpt lon="99.247436" lat="13.503238">
                <ele>177.981201</ele>
                <time>2009-04-25T06:40:07Z</time>
            </trkpt>
            <trkpt lon="99.247309" lat="13.502840">
                <ele>177.981201</ele>
                <time>2009-04-25T06:40:17Z</time>
            </trkpt>
            <trkpt lon="99.247253" lat="13.502707">
                <ele>179.423218</ele>
                <time>2009-04-25T06:40:20Z</time>
            </trkpt>
            <trkpt lon="99.247116" lat="13.502364">
                <ele>181.345825</ele>
                <time>2009-04-25T06:40:30Z</time>
            </trkpt>
            <trkpt lon="99.246948" lat="13.502197">
                <ele>181.826416</ele>
                <time>2009-04-25T06:40:39Z</time>
            </trkpt>
            <trkpt lon="99.246761" lat="13.502095">
                <ele>183.749023</ele>
                <time>2009-04-25T06:40:47Z</time>
            </trkpt>
            <trkpt lon="99.246732" lat="13.502040">
                <ele>183.268433</ele>
                <time>2009-04-25T06:40:51Z</time>
            </trkpt>
            <trkpt lon="99.246730" lat="13.501966">
                <ele>183.749023</ele>
                <time>2009-04-25T06:40:55Z</time>
            </trkpt>
            <trkpt lon="99.246716" lat="13.501929">
                <ele>183.268433</ele>
                <time>2009-04-25T06:40:57Z</time>
            </trkpt>
            <trkpt lon="99.246678" lat="13.501677">
                <ele>184.710571</ele>
                <time>2009-04-25T06:41:08Z</time>
            </trkpt>
            <trkpt lon="99.246605" lat="13.501460">
                <ele>185.671753</ele>
                <time>2009-04-25T06:41:17Z</time>
            </trkpt>
            <trkpt lon="99.246526" lat="13.501128">
                <ele>185.671753</ele>
                <time>2009-04-25T06:41:30Z</time>
            </trkpt>
            <trkpt lon="99.246550" lat="13.500855">
                <ele>187.594360</ele>
                <time>2009-04-25T06:41:39Z</time>
            </trkpt>
            <trkpt lon="99.246596" lat="13.500464">
                <ele>188.555786</ele>
                <time>2009-04-25T06:41:51Z</time>
            </trkpt>
            <trkpt lon="99.246584" lat="13.500185">
                <ele>188.075073</ele>
                <time>2009-04-25T06:41:59Z</time>
            </trkpt>
            <trkpt lon="99.246455" lat="13.499952">
                <ele>190.958984</ele>
                <time>2009-04-25T06:42:07Z</time>
            </trkpt>
            <trkpt lon="99.246410" lat="13.499757">
                <ele>193.843018</ele>
                <time>2009-04-25T06:42:16Z</time>
            </trkpt>
            <trkpt lon="99.246370" lat="13.499566">
                <ele>195.284912</ele>
                <time>2009-04-25T06:42:27Z</time>
            </trkpt>
            <trkpt lon="99.246347" lat="13.499454">
                <ele>195.765625</ele>
                <time>2009-04-25T06:42:34Z</time>
            </trkpt>
            <trkpt lon="99.246351" lat="13.499384">
                <ele>197.688232</ele>
                <time>2009-04-25T06:42:38Z</time>
            </trkpt>
            <trkpt lon="99.246375" lat="13.499233">
                <ele>198.649536</ele>
                <time>2009-04-25T06:42:47Z</time>
            </trkpt>
            <trkpt lon="99.246384" lat="13.499064">
                <ele>199.610840</ele>
                <time>2009-04-25T06:42:57Z</time>
            </trkpt>
            <trkpt lon="99.246376" lat="13.498851">
                <ele>201.052856</ele>
                <time>2009-04-25T06:43:09Z</time>
            </trkpt>
            <trkpt lon="99.246410" lat="13.498707">
                <ele>201.052856</ele>
                <time>2009-04-25T06:43:19Z</time>
            </trkpt>
            <trkpt lon="99.246488" lat="13.498751">
                <ele>200.091675</ele>
                <time>2009-04-25T06:43:24Z</time>
            </trkpt>
            <trkpt lon="99.246573" lat="13.498912">
                <ele>197.688232</ele>
                <time>2009-04-25T06:43:30Z</time>
            </trkpt>
            <trkpt lon="99.246639" lat="13.499083">
                <ele>199.130127</ele>
                <time>2009-04-25T06:43:38Z</time>
            </trkpt>
            <trkpt lon="99.246723" lat="13.499243">
                <ele>200.572266</ele>
                <time>2009-04-25T06:43:48Z</time>
            </trkpt>
            <trkpt lon="99.246783" lat="13.499415">
                <ele>200.572266</ele>
                <time>2009-04-25T06:43:59Z</time>
            </trkpt>
            <trkpt lon="99.246829" lat="13.499402">
                <ele>201.533569</ele>
                <time>2009-04-25T06:44:03Z</time>
            </trkpt>
            <trkpt lon="99.246917" lat="13.499318">
                <ele>203.936890</ele>
                <time>2009-04-25T06:44:11Z</time>
            </trkpt>
            <trkpt lon="99.247035" lat="13.499261">
                <ele>204.898071</ele>
                <time>2009-04-25T06:44:19Z</time>
            </trkpt>
            <trkpt lon="99.247171" lat="13.499255">
                <ele>208.262817</ele>
                <time>2009-04-25T06:44:28Z</time>
            </trkpt>
            <trkpt lon="99.247297" lat="13.499291">
                <ele>209.704834</ele>
                <time>2009-04-25T06:44:37Z</time>
            </trkpt>
            <trkpt lon="99.247465" lat="13.499340">
                <ele>211.627441</ele>
                <time>2009-04-25T06:44:48Z</time>
            </trkpt>
            <trkpt lon="99.247606" lat="13.499338">
                <ele>210.666016</ele>
                <time>2009-04-25T06:44:57Z</time>
            </trkpt>
            <trkpt lon="99.247618" lat="13.499244">
                <ele>209.704834</ele>
                <time>2009-04-25T06:45:04Z</time>
            </trkpt>
            <trkpt lon="99.247565" lat="13.499189">
                <ele>209.224121</ele>
                <time>2009-04-25T06:45:06Z</time>
            </trkpt>
            <trkpt lon="99.247489" lat="13.499066">
                <ele>208.262817</ele>
                <time>2009-04-25T06:45:09Z</time>
            </trkpt>
            <trkpt lon="99.247511" lat="13.498837">
                <ele>208.743408</ele>
                <time>2009-04-25T06:45:14Z</time>
            </trkpt>
            <trkpt lon="99.247550" lat="13.498788">
                <ele>209.224121</ele>
                <time>2009-04-25T06:45:16Z</time>
            </trkpt>
            <trkpt lon="99.247754" lat="13.498646">
                <ele>211.146728</ele>
                <time>2009-04-25T06:45:29Z</time>
            </trkpt>
            <trkpt lon="99.247919" lat="13.498486">
                <ele>210.666016</ele>
                <time>2009-04-25T06:45:41Z</time>
            </trkpt>
            <trkpt lon="99.247915" lat="13.498298">
                <ele>207.782105</ele>
                <time>2009-04-25T06:45:45Z</time>
            </trkpt>
            <trkpt lon="99.247891" lat="13.498187">
                <ele>205.859497</ele>
                <time>2009-04-25T06:45:47Z</time>
            </trkpt>
            <trkpt lon="99.247861" lat="13.497886">
                <ele>202.014282</ele>
                <time>2009-04-25T06:45:51Z</time>
            </trkpt>
            <trkpt lon="99.247849" lat="13.497801">
                <ele>201.533569</ele>
                <time>2009-04-25T06:45:52Z</time>
            </trkpt>
            <trkpt lon="99.247860" lat="13.497611">
                <ele>204.898071</ele>
                <time>2009-04-25T06:45:55Z</time>
            </trkpt>
            <trkpt lon="99.247958" lat="13.497389">
                <ele>202.014282</ele>
                <time>2009-04-25T06:45:59Z</time>
            </trkpt>
            <trkpt lon="99.248062" lat="13.497205">
                <ele>198.649536</ele>
                <time>2009-04-25T06:46:02Z</time>
            </trkpt>
            <trkpt lon="99.248103" lat="13.497141">
                <ele>198.649536</ele>
                <time>2009-04-25T06:46:03Z</time>
            </trkpt>
            <trkpt lon="99.248220" lat="13.497014">
                <ele>203.456177</ele>
                <time>2009-04-25T06:46:06Z</time>
            </trkpt>
            <trkpt lon="99.248249" lat="13.496988">
                <ele>202.975464</ele>
                <time>2009-04-25T06:46:07Z</time>
            </trkpt>
            <trkpt lon="99.248588" lat="13.496838">
                <ele>203.456177</ele>
                <time>2009-04-25T06:46:16Z</time>
            </trkpt>
            <trkpt lon="99.248626" lat="13.496823">
                <ele>203.456177</ele>
                <time>2009-04-25T06:46:17Z</time>
            </trkpt>
            <trkpt lon="99.248895" lat="13.496760">
                <ele>199.130127</ele>
                <time>2009-04-25T06:46:22Z</time>
            </trkpt>
            <trkpt lon="99.249120" lat="13.496723">
                <ele>202.014282</ele>
                <time>2009-04-25T06:46:26Z</time>
            </trkpt>
            <trkpt lon="99.249196" lat="13.496708">
                <ele>202.975464</ele>
                <time>2009-04-25T06:46:28Z</time>
            </trkpt>
            <trkpt lon="99.249444" lat="13.496582">
                <ele>202.014282</ele>
                <time>2009-04-25T06:46:36Z</time>
            </trkpt>
            <trkpt lon="99.249448" lat="13.496548">
                <ele>202.014282</ele>
                <time>2009-04-25T06:46:37Z</time>
            </trkpt>
            <trkpt lon="99.249401" lat="13.496353">
                <ele>198.168945</ele>
                <time>2009-04-25T06:46:41Z</time>
            </trkpt>
            <trkpt lon="99.249340" lat="13.496181">
                <ele>193.843018</ele>
                <time>2009-04-25T06:46:44Z</time>
            </trkpt>
            <trkpt lon="99.249317" lat="13.496119">
                <ele>194.323731</ele>
                <time>2009-04-25T06:46:45Z</time>
            </trkpt>
            <trkpt lon="99.249212" lat="13.495791">
                <ele>190.958984</ele>
                <time>2009-04-25T06:46:51Z</time>
            </trkpt>
            <trkpt lon="99.249203" lat="13.495686">
                <ele>188.555786</ele>
                <time>2009-04-25T06:46:54Z</time>
            </trkpt>
            <trkpt lon="99.249213" lat="13.495668">
                <ele>189.516968</ele>
                <time>2009-04-25T06:46:55Z</time>
            </trkpt>
            <trkpt lon="99.249351" lat="13.495661">
                <ele>188.555786</ele>
                <time>2009-04-25T06:47:00Z</time>
            </trkpt>
            <trkpt lon="99.249383" lat="13.495682">
                <ele>188.075073</ele>
                <time>2009-04-25T06:47:01Z</time>
            </trkpt>
            <trkpt lon="99.249527" lat="13.495751">
                <ele>189.997681</ele>
                <time>2009-04-25T06:47:07Z</time>
            </trkpt>
            <trkpt lon="99.249550" lat="13.495761">
                <ele>189.997681</ele>
                <time>2009-04-25T06:47:08Z</time>
            </trkpt>
            <trkpt lon="99.249625" lat="13.495778">
                <ele>188.555786</ele>
                <time>2009-04-25T06:47:10Z</time>
            </trkpt>
            <trkpt lon="99.249717" lat="13.495803">
                <ele>187.113769</ele>
                <time>2009-04-25T06:47:12Z</time>
            </trkpt>
            <trkpt lon="99.250080" lat="13.495913">
                <ele>186.633179</ele>
                <time>2009-04-25T06:47:20Z</time>
            </trkpt>
            <trkpt lon="99.250218" lat="13.495862">
                <ele>185.671753</ele>
                <time>2009-04-25T06:47:24Z</time>
            </trkpt>
            <trkpt lon="99.250290" lat="13.495745">
                <ele>187.594360</ele>
                <time>2009-04-25T06:47:29Z</time>
            </trkpt>
            <trkpt lon="99.250297" lat="13.495734">
                <ele>188.075073</ele>
                <time>2009-04-25T06:47:30Z</time>
            </trkpt>
            <trkpt lon="99.250406" lat="13.495762">
                <ele>187.594360</ele>
                <time>2009-04-25T06:47:36Z</time>
            </trkpt>
            <trkpt lon="99.250645" lat="13.495884">
                <ele>188.555786</ele>
                <time>2009-04-25T06:47:45Z</time>
            </trkpt>
            <trkpt lon="99.250730" lat="13.495904">
                <ele>189.997681</ele>
                <time>2009-04-25T06:47:50Z</time>
            </trkpt>
            <trkpt lon="99.250886" lat="13.495968">
                <ele>189.997681</ele>
                <time>2009-04-25T06:48:00Z</time>
            </trkpt>
            <trkpt lon="99.251090" lat="13.496029">
                <ele>190.958984</ele>
                <time>2009-04-25T06:48:06Z</time>
            </trkpt>
            <trkpt lon="99.251391" lat="13.496142">
                <ele>189.516968</ele>
                <time>2009-04-25T06:48:15Z</time>
            </trkpt>
            <trkpt lon="99.251483" lat="13.496189">
                <ele>188.555786</ele>
                <time>2009-04-25T06:48:17Z</time>
            </trkpt>
            <trkpt lon="99.251682" lat="13.496276">
                <ele>186.152466</ele>
                <time>2009-04-25T06:48:21Z</time>
            </trkpt>
            <trkpt lon="99.251776" lat="13.496323">
                <ele>186.152466</ele>
                <time>2009-04-25T06:48:23Z</time>
            </trkpt>
            <trkpt lon="99.251963" lat="13.496570">
                <ele>185.671753</ele>
                <time>2009-04-25T06:48:31Z</time>
            </trkpt>
            <trkpt lon="99.251999" lat="13.496586">
                <ele>185.671753</ele>
                <time>2009-04-25T06:48:32Z</time>
            </trkpt>
            <trkpt lon="99.252106" lat="13.496661">
                <ele>183.749023</ele>
                <time>2009-04-25T06:48:35Z</time>
            </trkpt>
            <trkpt lon="99.252195" lat="13.496661">
                <ele>183.268433</ele>
                <time>2009-04-25T06:48:37Z</time>
            </trkpt>
            <trkpt lon="99.252283" lat="13.496647">
                <ele>182.787842</ele>
                <time>2009-04-25T06:48:39Z</time>
            </trkpt>
            <trkpt lon="99.252486" lat="13.496718">
                <ele>182.787842</ele>
                <time>2009-04-25T06:48:44Z</time>
            </trkpt>
            <trkpt lon="99.252612" lat="13.496798">
                <ele>180.865234</ele>
                <time>2009-04-25T06:48:47Z</time>
            </trkpt>
            <trkpt lon="99.252742" lat="13.496822">
                <ele>178.942627</ele>
                <time>2009-04-25T06:48:50Z</time>
            </trkpt>
            <trkpt lon="99.253046" lat="13.496758">
                <ele>178.461914</ele>
                <time>2009-04-25T06:48:57Z</time>
            </trkpt>
            <trkpt lon="99.253242" lat="13.496639">
                <ele>178.461914</ele>
                <time>2009-04-25T06:49:03Z</time>
            </trkpt>
            <trkpt lon="99.253359" lat="13.496521">
                <ele>178.942627</ele>
                <time>2009-04-25T06:49:09Z</time>
            </trkpt>
            <trkpt lon="99.253459" lat="13.496456">
                <ele>178.461914</ele>
                <time>2009-04-25T06:49:18Z</time>
            </trkpt>
            <trkpt lon="99.253638" lat="13.496386">
                <ele>178.942627</ele>
                <time>2009-04-25T06:49:30Z</time>
            </trkpt>
            <trkpt lon="99.253768" lat="13.496323">
                <ele>178.942627</ele>
                <time>2009-04-25T06:49:41Z</time>
            </trkpt>
            <trkpt lon="99.253964" lat="13.496241">
                <ele>180.384522</ele>
                <time>2009-04-25T06:49:52Z</time>
            </trkpt>
            <trkpt lon="99.254127" lat="13.496213">
                <ele>177.020019</ele>
                <time>2009-04-25T06:49:59Z</time>
            </trkpt>
            <trkpt lon="99.254127" lat="13.496213">
                <ele>177.020019</ele>
                <time>2009-04-25T06:49:59Z</time>
            </trkpt>
            <trkpt lon="99.254531" lat="13.496261">
                <ele>176.539307</ele>
                <time>2009-04-25T06:50:13Z</time>
            </trkpt>
            <trkpt lon="99.254836" lat="13.496420">
                <ele>176.058594</ele>
                <time>2009-04-25T06:50:23Z</time>
            </trkpt>
            <trkpt lon="99.255079" lat="13.496557">
                <ele>173.174683</ele>
                <time>2009-04-25T06:50:29Z</time>
            </trkpt>
            <trkpt lon="99.255455" lat="13.496747">
                <ele>172.213257</ele>
                <time>2009-04-25T06:50:36Z</time>
            </trkpt>
            <trkpt lon="99.255933" lat="13.496883">
                <ele>172.693970</ele>
                <time>2009-04-25T06:50:45Z</time>
            </trkpt>
            <trkpt lon="99.256443" lat="13.496952">
                <ele>172.213257</ele>
                <time>2009-04-25T06:50:54Z</time>
            </trkpt>
            <trkpt lon="99.256780" lat="13.497122">
                <ele>170.290649</ele>
                <time>2009-04-25T06:51:02Z</time>
            </trkpt>
            <trkpt lon="99.256807" lat="13.497132">
                <ele>170.290649</ele>
                <time>2009-04-25T06:51:03Z</time>
            </trkpt>
            <trkpt lon="99.257082" lat="13.497165">
                <ele>169.810059</ele>
                <time>2009-04-25T06:51:13Z</time>
            </trkpt>
            <trkpt lon="99.257206" lat="13.497333">
                <ele>170.771362</ele>
                <time>2009-04-25T06:51:21Z</time>
            </trkpt>
            <trkpt lon="99.257332" lat="13.497473">
                <ele>167.887329</ele>
                <time>2009-04-25T06:51:26Z</time>
            </trkpt>
            <trkpt lon="99.257596" lat="13.497827">
                <ele>166.445312</ele>
                <time>2009-04-25T06:51:37Z</time>
            </trkpt>
            <trkpt lon="99.257696" lat="13.497925">
                <ele>166.445312</ele>
                <time>2009-04-25T06:51:40Z</time>
            </trkpt>
            <trkpt lon="99.257859" lat="13.497965">
                <ele>166.926025</ele>
                <time>2009-04-25T06:51:44Z</time>
            </trkpt>
            <trkpt lon="99.258139" lat="13.497931">
                <ele>168.848755</ele>
                <time>2009-04-25T06:51:52Z</time>
            </trkpt>
            <trkpt lon="99.258282" lat="13.497834">
                <ele>167.887329</ele>
                <time>2009-04-25T06:51:58Z</time>
            </trkpt>
            <trkpt lon="99.258370" lat="13.497762">
                <ele>167.406738</ele>
                <time>2009-04-25T06:52:01Z</time>
            </trkpt>
            <trkpt lon="99.258531" lat="13.497719">
                <ele>167.887329</ele>
                <time>2009-04-25T06:52:06Z</time>
            </trkpt>
            <trkpt lon="99.258615" lat="13.497722">
                <ele>168.848755</ele>
                <time>2009-04-25T06:52:09Z</time>
            </trkpt>
            <trkpt lon="99.258880" lat="13.497720">
                <ele>168.368042</ele>
                <time>2009-04-25T06:52:16Z</time>
            </trkpt>
            <trkpt lon="99.259046" lat="13.497628">
                <ele>168.848755</ele>
                <time>2009-04-25T06:52:21Z</time>
            </trkpt>
            <trkpt lon="99.259203" lat="13.497603">
                <ele>169.329468</ele>
                <time>2009-04-25T06:52:26Z</time>
            </trkpt>
            <trkpt lon="99.259367" lat="13.497676">
                <ele>165.964722</ele>
                <time>2009-04-25T06:52:30Z</time>
            </trkpt>
            <trkpt lon="99.259414" lat="13.497697">
                <ele>166.926025</ele>
                <time>2009-04-25T06:52:31Z</time>
            </trkpt>
            <trkpt lon="99.259734" lat="13.497824">
                <ele>165.003418</ele>
                <time>2009-04-25T06:52:37Z</time>
            </trkpt>
            <trkpt lon="99.259815" lat="13.497896">
                <ele>165.964722</ele>
                <time>2009-04-25T06:52:41Z</time>
            </trkpt>
            <trkpt lon="99.259884" lat="13.497817">
                <ele>165.964722</ele>
                <time>2009-04-25T06:52:44Z</time>
            </trkpt>
            <trkpt lon="99.260008" lat="13.497598">
                <ele>164.522705</ele>
                <time>2009-04-25T06:52:50Z</time>
            </trkpt>
            <trkpt lon="99.260018" lat="13.497538">
                <ele>165.964722</ele>
                <time>2009-04-25T06:52:52Z</time>
            </trkpt>
            <trkpt lon="99.259985" lat="13.497512">
                <ele>166.926025</ele>
                <time>2009-04-25T06:52:54Z</time>
            </trkpt>
            <trkpt lon="99.259692" lat="13.497384">
                <ele>166.445312</ele>
                <time>2009-04-25T06:53:06Z</time>
            </trkpt>
            <trkpt lon="99.259525" lat="13.497253">
                <ele>166.926025</ele>
                <time>2009-04-25T06:53:14Z</time>
            </trkpt>
            <trkpt lon="99.259504" lat="13.497129">
                <ele>167.887329</ele>
                <time>2009-04-25T06:53:21Z</time>
            </trkpt>
            <trkpt lon="99.259566" lat="13.496958">
                <ele>169.810059</ele>
                <time>2009-04-25T06:53:31Z</time>
            </trkpt>
            <trkpt lon="99.259746" lat="13.496837">
                <ele>171.252075</ele>
                <time>2009-04-25T06:53:42Z</time>
            </trkpt>
            <trkpt lon="99.259838" lat="13.496703">
                <ele>172.693970</ele>
                <time>2009-04-25T06:53:51Z</time>
            </trkpt>
            <trkpt lon="99.259936" lat="13.496593">
                <ele>174.135864</ele>
                <time>2009-04-25T06:54:01Z</time>
            </trkpt>
            <trkpt lon="99.260014" lat="13.496594">
                <ele>176.539307</ele>
                <time>2009-04-25T06:54:06Z</time>
            </trkpt>
            <trkpt lon="99.260193" lat="13.496588">
                <ele>177.981201</ele>
                <time>2009-04-25T06:54:17Z</time>
            </trkpt>
            <trkpt lon="99.260322" lat="13.496504">
                <ele>177.500610</ele>
                <time>2009-04-25T06:54:26Z</time>
            </trkpt>
            <trkpt lon="99.260468" lat="13.496384">
                <ele>176.539307</ele>
                <time>2009-04-25T06:54:33Z</time>
            </trkpt>
            <trkpt lon="99.260569" lat="13.496235">
                <ele>173.655273</ele>
                <time>2009-04-25T06:54:39Z</time>
            </trkpt>
            <trkpt lon="99.260651" lat="13.496042">
                <ele>170.771362</ele>
                <time>2009-04-25T06:54:46Z</time>
            </trkpt>
            <trkpt lon="99.260653" lat="13.496011">
                <ele>170.771362</ele>
                <time>2009-04-25T06:54:47Z</time>
            </trkpt>
            <trkpt lon="99.260659" lat="13.495904">
                <ele>169.810059</ele>
                <time>2009-04-25T06:54:51Z</time>
            </trkpt>
            <trkpt lon="99.260750" lat="13.495920">
                <ele>168.368042</ele>
                <time>2009-04-25T06:54:56Z</time>
            </trkpt>
            <trkpt lon="99.260759" lat="13.495940">
                <ele>168.368042</ele>
                <time>2009-04-25T06:54:57Z</time>
            </trkpt>
            <trkpt lon="99.260814" lat="13.496009">
                <ele>167.887329</ele>
                <time>2009-04-25T06:55:00Z</time>
            </trkpt>
            <trkpt lon="99.260941" lat="13.496025">
                <ele>167.406738</ele>
                <time>2009-04-25T06:55:04Z</time>
            </trkpt>
            <trkpt lon="99.261088" lat="13.495932">
                <ele>168.368042</ele>
                <time>2009-04-25T06:55:13Z</time>
            </trkpt>
            <trkpt lon="99.261171" lat="13.495809">
                <ele>169.329468</ele>
                <time>2009-04-25T06:55:21Z</time>
            </trkpt>
            <trkpt lon="99.261213" lat="13.495745">
                <ele>169.810059</ele>
                <time>2009-04-25T06:55:25Z</time>
            </trkpt>
            <trkpt lon="99.261247" lat="13.495736">
                <ele>170.771362</ele>
                <time>2009-04-25T06:55:27Z</time>
            </trkpt>
            <trkpt lon="99.261282" lat="13.495737">
                <ele>170.771362</ele>
                <time>2009-04-25T06:55:29Z</time>
            </trkpt>
            <trkpt lon="99.261523" lat="13.495717">
                <ele>170.771362</ele>
                <time>2009-04-25T06:55:42Z</time>
            </trkpt>
            <trkpt lon="99.261681" lat="13.495653">
                <ele>171.732666</ele>
                <time>2009-04-25T06:55:52Z</time>
            </trkpt>
            <trkpt lon="99.261832" lat="13.495636">
                <ele>173.174683</ele>
                <time>2009-04-25T06:56:01Z</time>
            </trkpt>
            <trkpt lon="99.261978" lat="13.495641">
                <ele>175.577881</ele>
                <time>2009-04-25T06:56:10Z</time>
            </trkpt>
            <trkpt lon="99.262100" lat="13.495587">
                <ele>175.577881</ele>
                <time>2009-04-25T06:56:17Z</time>
            </trkpt>
            <trkpt lon="99.262259" lat="13.495520">
                <ele>172.213257</ele>
                <time>2009-04-25T06:56:22Z</time>
            </trkpt>
            <trkpt lon="99.262503" lat="13.495506">
                <ele>167.887329</ele>
                <time>2009-04-25T06:56:27Z</time>
            </trkpt>
            <trkpt lon="99.262559" lat="13.495505">
                <ele>166.926025</ele>
                <time>2009-04-25T06:56:28Z</time>
            </trkpt>
            <trkpt lon="99.262722" lat="13.495419">
                <ele>168.368042</ele>
                <time>2009-04-25T06:56:33Z</time>
            </trkpt>
            <trkpt lon="99.262737" lat="13.495407">
                <ele>168.368042</ele>
                <time>2009-04-25T06:56:34Z</time>
            </trkpt>
            <trkpt lon="99.262834" lat="13.495384">
                <ele>169.329468</ele>
                <time>2009-04-25T06:56:39Z</time>
            </trkpt>
            <trkpt lon="99.263045" lat="13.495367">
                <ele>167.887329</ele>
                <time>2009-04-25T06:56:48Z</time>
            </trkpt>
            <trkpt lon="99.263189" lat="13.495341">
                <ele>165.964722</ele>
                <time>2009-04-25T06:56:53Z</time>
            </trkpt>
            <trkpt lon="99.263269" lat="13.495345">
                <ele>165.484131</ele>
                <time>2009-04-25T06:56:55Z</time>
            </trkpt>
            <trkpt lon="99.263488" lat="13.495396">
                <ele>165.003418</ele>
                <time>2009-04-25T06:57:02Z</time>
            </trkpt>
            <trkpt lon="99.263555" lat="13.495337">
                <ele>163.080811</ele>
                <time>2009-04-25T06:57:06Z</time>
            </trkpt>
            <trkpt lon="99.263587" lat="13.495226">
                <ele>165.003418</ele>
                <time>2009-04-25T06:57:11Z</time>
            </trkpt>
            <trkpt lon="99.263648" lat="13.494990">
                <ele>165.964722</ele>
                <time>2009-04-25T06:57:22Z</time>
            </trkpt>
            <trkpt lon="99.263686" lat="13.494775">
                <ele>165.484131</ele>
                <time>2009-04-25T06:57:31Z</time>
            </trkpt>
            <trkpt lon="99.263721" lat="13.494449">
                <ele>165.964722</ele>
                <time>2009-04-25T06:57:42Z</time>
            </trkpt>
            <trkpt lon="99.263676" lat="13.494107">
                <ele>163.080811</ele>
                <time>2009-04-25T06:57:50Z</time>
            </trkpt>
            <trkpt lon="99.263588" lat="13.493755">
                <ele>159.716186</ele>
                <time>2009-04-25T06:57:56Z</time>
            </trkpt>
            <trkpt lon="99.263553" lat="13.493626">
                <ele>159.235474</ele>
                <time>2009-04-25T06:57:58Z</time>
            </trkpt>
            <trkpt lon="99.263463" lat="13.493298">
                <ele>156.832153</ele>
                <time>2009-04-25T06:58:03Z</time>
            </trkpt>
            <trkpt lon="99.263381" lat="13.492992">
                <ele>158.274170</ele>
                <time>2009-04-25T06:58:08Z</time>
            </trkpt>
            <trkpt lon="99.263205" lat="13.492353">
                <ele>158.754761</ele>
                <time>2009-04-25T06:58:20Z</time>
            </trkpt>
            <trkpt lon="99.263193" lat="13.492301">
                <ele>159.235474</ele>
                <time>2009-04-25T06:58:21Z</time>
            </trkpt>
            <trkpt lon="99.263268" lat="13.491998">
                <ele>158.274170</ele>
                <time>2009-04-25T06:58:27Z</time>
            </trkpt>
            <trkpt lon="99.263341" lat="13.491926">
                <ele>157.793579</ele>
                <time>2009-04-25T06:58:29Z</time>
            </trkpt>
            <trkpt lon="99.263803" lat="13.491562">
                <ele>157.312866</ele>
                <time>2009-04-25T06:58:40Z</time>
            </trkpt>
            <trkpt lon="99.264153" lat="13.491285">
                <ele>159.716186</ele>
                <time>2009-04-25T06:58:49Z</time>
            </trkpt>
            <trkpt lon="99.264386" lat="13.491055">
                <ele>160.677490</ele>
                <time>2009-04-25T06:58:58Z</time>
            </trkpt>
            <trkpt lon="99.264576" lat="13.490787">
                <ele>160.677490</ele>
                <time>2009-04-25T06:59:08Z</time>
            </trkpt>
            <trkpt lon="99.264822" lat="13.490414">
                <ele>160.196899</ele>
                <time>2009-04-25T06:59:21Z</time>
            </trkpt>
            <trkpt lon="99.265114" lat="13.489978">
                <ele>159.716186</ele>
                <time>2009-04-25T06:59:35Z</time>
            </trkpt>
            <trkpt lon="99.265398" lat="13.489507">
                <ele>159.235474</ele>
                <time>2009-04-25T06:59:47Z</time>
            </trkpt>
            <trkpt lon="99.265572" lat="13.489038">
                <ele>156.832153</ele>
                <time>2009-04-25T06:59:56Z</time>
            </trkpt>
            <trkpt lon="99.265677" lat="13.488766">
                <ele>156.351562</ele>
                <time>2009-04-25T07:00:01Z</time>
            </trkpt>
            <trkpt lon="99.265946" lat="13.488397">
                <ele>155.390259</ele>
                <time>2009-04-25T07:00:10Z</time>
            </trkpt>
            <trkpt lon="99.266114" lat="13.488175">
                <ele>156.832153</ele>
                <time>2009-04-25T07:00:18Z</time>
            </trkpt>
            <trkpt lon="99.266281" lat="13.487955">
                <ele>157.793579</ele>
                <time>2009-04-25T07:00:28Z</time>
            </trkpt>
            <trkpt lon="99.266323" lat="13.487835">
                <ele>158.274170</ele>
                <time>2009-04-25T07:00:34Z</time>
            </trkpt>
            <trkpt lon="99.266360" lat="13.487799">
                <ele>157.793579</ele>
                <time>2009-04-25T07:00:37Z</time>
            </trkpt>
            <trkpt lon="99.266391" lat="13.487681">
                <ele>158.754761</ele>
                <time>2009-04-25T07:00:47Z</time>
            </trkpt>
            <trkpt lon="99.266386" lat="13.487648">
                <ele>158.754761</ele>
                <time>2009-04-25T07:00:51Z</time>
            </trkpt>
            <trkpt lon="99.266341" lat="13.487688">
                <ele>158.754761</ele>
                <time>2009-04-25T07:00:55Z</time>
            </trkpt>
            <trkpt lon="99.266243" lat="13.487933">
                <ele>157.312866</ele>
                <time>2009-04-25T07:01:03Z</time>
            </trkpt>
            <trkpt lon="99.265991" lat="13.488282">
                <ele>156.351562</ele>
                <time>2009-04-25T07:01:14Z</time>
            </trkpt>
            <trkpt lon="99.265704" lat="13.488682">
                <ele>157.312866</ele>
                <time>2009-04-25T07:01:25Z</time>
            </trkpt>
            <trkpt lon="99.265510" lat="13.489133">
                <ele>157.312866</ele>
                <time>2009-04-25T07:01:36Z</time>
            </trkpt>
            <trkpt lon="99.265382" lat="13.489534">
                <ele>158.754761</ele>
                <time>2009-04-25T07:01:47Z</time>
            </trkpt>
            <trkpt lon="99.265312" lat="13.489695">
                <ele>158.274170</ele>
                <time>2009-04-25T07:01:53Z</time>
            </trkpt>
            <trkpt lon="99.265119" lat="13.489984">
                <ele>160.196899</ele>
                <time>2009-04-25T07:02:04Z</time>
            </trkpt>
            <trkpt lon="99.264867" lat="13.490361">
                <ele>159.716186</ele>
                <time>2009-04-25T07:02:18Z</time>
            </trkpt>
            <trkpt lon="99.264867" lat="13.490318">
                <ele>159.716186</ele>
                <time>2009-04-25T07:02:22Z</time>
            </trkpt>
            <trkpt lon="99.264968" lat="13.490331">
                <ele>159.235474</ele>
                <time>2009-04-25T07:02:27Z</time>
            </trkpt>
            <trkpt lon="99.265088" lat="13.490375">
                <ele>159.235474</ele>
                <time>2009-04-25T07:02:32Z</time>
            </trkpt>
            <trkpt lon="99.265179" lat="13.490384">
                <ele>159.716186</ele>
                <time>2009-04-25T07:02:36Z</time>
            </trkpt>
            <trkpt lon="99.265283" lat="13.490416">
                <ele>159.716186</ele>
                <time>2009-04-25T07:02:39Z</time>
            </trkpt>
            <trkpt lon="99.265552" lat="13.490513">
                <ele>157.793579</ele>
                <time>2009-04-25T07:02:47Z</time>
            </trkpt>
            <trkpt lon="99.265614" lat="13.490529">
                <ele>157.793579</ele>
                <time>2009-04-25T07:02:52Z</time>
            </trkpt>
            <trkpt lon="99.265614" lat="13.490530">
                <ele>158.274170</ele>
                <time>2009-04-25T07:02:53Z</time>
            </trkpt>
            <trkpt lon="99.265708" lat="13.490499">
                <ele>157.793579</ele>
                <time>2009-04-25T07:03:03Z</time>
            </trkpt>
            <trkpt lon="99.265730" lat="13.490503">
                <ele>157.312866</ele>
                <time>2009-04-25T07:03:05Z</time>
            </trkpt>
            <trkpt lon="99.265866" lat="13.490563">
                <ele>155.870972</ele>
                <time>2009-04-25T07:03:13Z</time>
            </trkpt>
            <trkpt lon="99.266088" lat="13.490687">
                <ele>153.948364</ele>
                <time>2009-04-25T07:03:22Z</time>
            </trkpt>
            <trkpt lon="99.266180" lat="13.490666">
                <ele>152.986939</ele>
                <time>2009-04-25T07:03:28Z</time>
            </trkpt>
            <trkpt lon="99.266336" lat="13.490621">
                <ele>152.986939</ele>
                <time>2009-04-25T07:03:36Z</time>
            </trkpt>
            <trkpt lon="99.266494" lat="13.490538">
                <ele>152.986939</ele>
                <time>2009-04-25T07:03:46Z</time>
            </trkpt>
            <trkpt lon="99.266639" lat="13.490446">
                <ele>154.428955</ele>
                <time>2009-04-25T07:03:57Z</time>
            </trkpt>
            <trkpt lon="99.266730" lat="13.490410">
                <ele>154.909546</ele>
                <time>2009-04-25T07:04:03Z</time>
            </trkpt>
            <trkpt lon="99.266835" lat="13.490413">
                <ele>155.870972</ele>
                <time>2009-04-25T07:04:12Z</time>
            </trkpt>
            <trkpt lon="99.266918" lat="13.490414">
                <ele>156.351562</ele>
                <time>2009-04-25T07:04:23Z</time>
            </trkpt>
            <trkpt lon="99.267017" lat="13.490407">
                <ele>156.832153</ele>
                <time>2009-04-25T07:04:32Z</time>
            </trkpt>
            <trkpt lon="99.267143" lat="13.490398">
                <ele>156.351562</ele>
                <time>2009-04-25T07:04:42Z</time>
            </trkpt>
            <trkpt lon="99.267247" lat="13.490406">
                <ele>157.312866</ele>
                <time>2009-04-25T07:04:48Z</time>
            </trkpt>
            <trkpt lon="99.267277" lat="13.490368">
                <ele>156.351562</ele>
                <time>2009-04-25T07:04:55Z</time>
            </trkpt>
            <trkpt lon="99.267312" lat="13.490339">
                <ele>156.832153</ele>
                <time>2009-04-25T07:05:02Z</time>
            </trkpt>
            <trkpt lon="99.267330" lat="13.490331">
                <ele>157.793579</ele>
                <time>2009-04-25T07:05:07Z</time>
            </trkpt>
            <trkpt lon="99.267447" lat="13.490351">
                <ele>157.312866</ele>
                <time>2009-04-25T07:05:13Z</time>
            </trkpt>
            <trkpt lon="99.267523" lat="13.490406">
                <ele>155.390259</ele>
                <time>2009-04-25T07:05:18Z</time>
            </trkpt>
            <trkpt lon="99.267629" lat="13.490421">
                <ele>153.948364</ele>
                <time>2009-04-25T07:05:24Z</time>
            </trkpt>
            <trkpt lon="99.267689" lat="13.490425">
                <ele>152.986939</ele>
                <time>2009-04-25T07:05:28Z</time>
            </trkpt>
            <trkpt lon="99.267734" lat="13.490486">
                <ele>151.064209</ele>
                <time>2009-04-25T07:05:34Z</time>
            </trkpt>
            <trkpt lon="99.267779" lat="13.490556">
                <ele>147.218994</ele>
                <time>2009-04-25T07:05:40Z</time>
            </trkpt>
            <trkpt lon="99.267787" lat="13.490573">
                <ele>146.738403</ele>
                <time>2009-04-25T07:05:41Z</time>
            </trkpt>
            <trkpt lon="99.267822" lat="13.490629">
                <ele>145.296387</ele>
                <time>2009-04-25T07:05:44Z</time>
            </trkpt>
            <trkpt lon="99.267888" lat="13.490722">
                <ele>144.815796</ele>
                <time>2009-04-25T07:05:53Z</time>
            </trkpt>
            <trkpt lon="99.267926" lat="13.490786">
                <ele>143.373657</ele>
                <time>2009-04-25T07:05:59Z</time>
            </trkpt>
            <trkpt lon="99.267984" lat="13.490784">
                <ele>142.893066</ele>
                <time>2009-04-25T07:06:02Z</time>
            </trkpt>
            <trkpt lon="99.268032" lat="13.490726">
                <ele>142.893066</ele>
                <time>2009-04-25T07:06:10Z</time>
            </trkpt>
            <trkpt lon="99.268052" lat="13.490739">
                <ele>143.373657</ele>
                <time>2009-04-25T07:06:17Z</time>
            </trkpt>
            <trkpt lon="99.268090" lat="13.490735">
                <ele>143.854370</ele>
                <time>2009-04-25T07:06:32Z</time>
            </trkpt>
            <trkpt lon="99.268134" lat="13.490731">
                <ele>142.893066</ele>
                <time>2009-04-25T07:06:41Z</time>
            </trkpt>
            <trkpt lon="99.268157" lat="13.490727">
                <ele>144.335205</ele>
                <time>2009-04-25T07:06:51Z</time>
            </trkpt>
            <trkpt lon="99.268242" lat="13.490690">
                <ele>147.218994</ele>
                <time>2009-04-25T07:07:04Z</time>
            </trkpt>
            <trkpt lon="99.268304" lat="13.490698">
                <ele>147.218994</ele>
                <time>2009-04-25T07:07:14Z</time>
            </trkpt>
            <trkpt lon="99.268343" lat="13.490775">
                <ele>147.699707</ele>
                <time>2009-04-25T07:07:27Z</time>
            </trkpt>
            <trkpt lon="99.268360" lat="13.490854">
                <ele>148.180420</ele>
                <time>2009-04-25T07:07:38Z</time>
            </trkpt>
            <trkpt lon="99.268363" lat="13.490891">
                <ele>146.738403</ele>
                <time>2009-04-25T07:07:46Z</time>
            </trkpt>
            <trkpt lon="99.268382" lat="13.490908">
                <ele>146.738403</ele>
                <time>2009-04-25T07:07:54Z</time>
            </trkpt>
            <trkpt lon="99.268419" lat="13.490923">
                <ele>146.738403</ele>
                <time>2009-04-25T07:08:01Z</time>
            </trkpt>
            <trkpt lon="99.268438" lat="13.490934">
                <ele>142.412476</ele>
                <time>2009-04-25T07:08:08Z</time>
            </trkpt>
            <trkpt lon="99.268439" lat="13.490935">
                <ele>151.064209</ele>
                <time>2009-04-25T07:08:09Z</time>
            </trkpt>
            <trkpt lon="99.268441" lat="13.490935">
                <ele>147.699707</ele>
                <time>2009-04-25T07:08:10Z</time>
            </trkpt>
            <trkpt lon="99.268474" lat="13.490948">
                <ele>148.180420</ele>
                <time>2009-04-25T07:08:21Z</time>
            </trkpt>
            <trkpt lon="99.268487" lat="13.490959">
                <ele>148.180420</ele>
                <time>2009-04-25T07:08:23Z</time>
            </trkpt>
            <trkpt lon="99.268486" lat="13.490980">
                <ele>148.180420</ele>
                <time>2009-04-25T07:08:25Z</time>
            </trkpt>
            <trkpt lon="99.268484" lat="13.491019">
                <ele>148.661011</ele>
                <time>2009-04-25T07:08:29Z</time>
            </trkpt>
            <trkpt lon="99.268542" lat="13.491020">
                <ele>149.622314</ele>
                <time>2009-04-25T07:08:35Z</time>
            </trkpt>
            <trkpt lon="99.268612" lat="13.491023">
                <ele>150.583618</ele>
                <time>2009-04-25T07:08:44Z</time>
            </trkpt>
            <trkpt lon="99.268697" lat="13.491060">
                <ele>152.025757</ele>
                <time>2009-04-25T07:08:56Z</time>
            </trkpt>
            <trkpt lon="99.268745" lat="13.491082">
                <ele>152.506348</ele>
                <time>2009-04-25T07:09:06Z</time>
            </trkpt>
            <trkpt lon="99.268756" lat="13.491091">
                <ele>152.506348</ele>
                <time>2009-04-25T07:09:07Z</time>
            </trkpt>
            <trkpt lon="99.268797" lat="13.491111">
                <ele>152.506348</ele>
                <time>2009-04-25T07:09:11Z</time>
            </trkpt>
            <trkpt lon="99.268911" lat="13.491144">
                <ele>153.467651</ele>
                <time>2009-04-25T07:09:22Z</time>
            </trkpt>
            <trkpt lon="99.268952" lat="13.491155">
                <ele>153.948364</ele>
                <time>2009-04-25T07:09:29Z</time>
            </trkpt>
            <trkpt lon="99.269014" lat="13.491248">
                <ele>154.428955</ele>
                <time>2009-04-25T07:09:37Z</time>
            </trkpt>
            <trkpt lon="99.269057" lat="13.491379">
                <ele>154.909546</ele>
                <time>2009-04-25T07:09:48Z</time>
            </trkpt>
            <trkpt lon="99.269071" lat="13.491430">
                <ele>154.909546</ele>
                <time>2009-04-25T07:09:55Z</time>
            </trkpt>
            <trkpt lon="99.269109" lat="13.491537">
                <ele>153.467651</ele>
                <time>2009-04-25T07:10:00Z</time>
            </trkpt>
            <trkpt lon="99.269192" lat="13.491546">
                <ele>154.428955</ele>
                <time>2009-04-25T07:10:05Z</time>
            </trkpt>
            <trkpt lon="99.269368" lat="13.491521">
                <ele>155.390259</ele>
                <time>2009-04-25T07:10:15Z</time>
            </trkpt>
            <trkpt lon="99.269567" lat="13.491535">
                <ele>155.390259</ele>
                <time>2009-04-25T07:10:25Z</time>
            </trkpt>
            <trkpt lon="99.269779" lat="13.491530">
                <ele>157.793579</ele>
                <time>2009-04-25T07:10:35Z</time>
            </trkpt>
            <trkpt lon="99.269991" lat="13.491531">
                <ele>159.716186</ele>
                <time>2009-04-25T07:10:46Z</time>
            </trkpt>
            <trkpt lon="99.270169" lat="13.491547">
                <ele>159.716186</ele>
                <time>2009-04-25T07:10:54Z</time>
            </trkpt>
            <trkpt lon="99.270386" lat="13.491546">
                <ele>160.196899</ele>
                <time>2009-04-25T07:11:03Z</time>
            </trkpt>
            <trkpt lon="99.270702" lat="13.491565">
                <ele>160.677490</ele>
                <time>2009-04-25T07:11:14Z</time>
            </trkpt>
            <trkpt lon="99.271073" lat="13.491567">
                <ele>160.677490</ele>
                <time>2009-04-25T07:11:25Z</time>
            </trkpt>
            <trkpt lon="99.271356" lat="13.491577">
                <ele>161.158203</ele>
                <time>2009-04-25T07:11:34Z</time>
            </trkpt>
            <trkpt lon="99.271710" lat="13.491577">
                <ele>163.561523</ele>
                <time>2009-04-25T07:11:46Z</time>
            </trkpt>
            <trkpt lon="99.271999" lat="13.491561">
                <ele>165.484131</ele>
                <time>2009-04-25T07:11:56Z</time>
            </trkpt>
            <trkpt lon="99.272199" lat="13.491512">
                <ele>167.406738</ele>
                <time>2009-04-25T07:12:06Z</time>
            </trkpt>
            <trkpt lon="99.272398" lat="13.491450">
                <ele>169.329468</ele>
                <time>2009-04-25T07:12:18Z</time>
            </trkpt>
            <trkpt lon="99.272572" lat="13.491373">
                <ele>170.290649</ele>
                <time>2009-04-25T07:12:29Z</time>
            </trkpt>
            <trkpt lon="99.272816" lat="13.491263">
                <ele>171.732666</ele>
                <time>2009-04-25T07:12:45Z</time>
            </trkpt>
            <trkpt lon="99.272979" lat="13.491184">
                <ele>172.693970</ele>
                <time>2009-04-25T07:12:56Z</time>
            </trkpt>
            <trkpt lon="99.273122" lat="13.491111">
                <ele>174.135864</ele>
                <time>2009-04-25T07:13:06Z</time>
            </trkpt>
            <trkpt lon="99.273316" lat="13.491005">
                <ele>174.135864</ele>
                <time>2009-04-25T07:13:19Z</time>
            </trkpt>
            <trkpt lon="99.273514" lat="13.490913">
                <ele>176.539307</ele>
                <time>2009-04-25T07:13:32Z</time>
            </trkpt>
            <trkpt lon="99.273678" lat="13.490835">
                <ele>176.058594</ele>
                <time>2009-04-25T07:13:43Z</time>
            </trkpt>
            <trkpt lon="99.273845" lat="13.490764">
                <ele>177.981201</ele>
                <time>2009-04-25T07:13:54Z</time>
            </trkpt>
            <trkpt lon="99.274013" lat="13.490678">
                <ele>179.903809</ele>
                <time>2009-04-25T07:14:06Z</time>
            </trkpt>
            <trkpt lon="99.274040" lat="13.490661">
                <ele>180.384522</ele>
                <time>2009-04-25T07:14:08Z</time>
            </trkpt>
            <trkpt lon="99.274154" lat="13.490692">
                <ele>180.384522</ele>
                <time>2009-04-25T07:14:17Z</time>
            </trkpt>
            <trkpt lon="99.274318" lat="13.490799">
                <ele>179.423218</ele>
                <time>2009-04-25T07:14:24Z</time>
            </trkpt>
            <trkpt lon="99.274601" lat="13.490868">
                <ele>178.461914</ele>
                <time>2009-04-25T07:14:31Z</time>
            </trkpt>
            <trkpt lon="99.275301" lat="13.490974">
                <ele>177.981201</ele>
                <time>2009-04-25T07:14:45Z</time>
            </trkpt>
            <trkpt lon="99.275402" lat="13.490998">
                <ele>177.981201</ele>
                <time>2009-04-25T07:14:47Z</time>
            </trkpt>
            <trkpt lon="99.275730" lat="13.491165">
                <ele>178.942627</ele>
                <time>2009-04-25T07:14:55Z</time>
            </trkpt>
            <trkpt lon="99.275884" lat="13.491361">
                <ele>178.461914</ele>
                <time>2009-04-25T07:15:04Z</time>
            </trkpt>
            <trkpt lon="99.275978" lat="13.491601">
                <ele>179.903809</ele>
                <time>2009-04-25T07:15:13Z</time>
            </trkpt>
            <trkpt lon="99.276142" lat="13.491850">
                <ele>179.903809</ele>
                <time>2009-04-25T07:15:23Z</time>
            </trkpt>
            <trkpt lon="99.276406" lat="13.492067">
                <ele>181.826416</ele>
                <time>2009-04-25T07:15:34Z</time>
            </trkpt>
            <trkpt lon="99.276749" lat="13.492250">
                <ele>183.268433</ele>
                <time>2009-04-25T07:15:46Z</time>
            </trkpt>
            <trkpt lon="99.277094" lat="13.492388">
                <ele>185.191162</ele>
                <time>2009-04-25T07:16:01Z</time>
            </trkpt>
            <trkpt lon="99.277483" lat="13.492481">
                <ele>186.152466</ele>
                <time>2009-04-25T07:16:16Z</time>
            </trkpt>
            <trkpt lon="99.277601" lat="13.492519">
                <ele>186.152466</ele>
                <time>2009-04-25T07:16:21Z</time>
            </trkpt>
            <trkpt lon="99.277667" lat="13.492566">
                <ele>186.633179</ele>
                <time>2009-04-25T07:16:25Z</time>
            </trkpt>
            <trkpt lon="99.277904" lat="13.492630">
                <ele>186.633179</ele>
                <time>2009-04-25T07:16:33Z</time>
            </trkpt>
            <trkpt lon="99.278176" lat="13.492637">
                <ele>189.997681</ele>
                <time>2009-04-25T07:16:42Z</time>
            </trkpt>
            <trkpt lon="99.278401" lat="13.492719">
                <ele>189.516968</ele>
                <time>2009-04-25T07:16:51Z</time>
            </trkpt>
            <trkpt lon="99.278615" lat="13.492958">
                <ele>191.439575</ele>
                <time>2009-04-25T07:17:03Z</time>
            </trkpt>
            <trkpt lon="99.278798" lat="13.493082">
                <ele>191.439575</ele>
                <time>2009-04-25T07:17:12Z</time>
            </trkpt>
            <trkpt lon="99.278971" lat="13.493166">
                <ele>191.920288</ele>
                <time>2009-04-25T07:17:22Z</time>
            </trkpt>
            <trkpt lon="99.279216" lat="13.493349">
                <ele>191.439575</ele>
                <time>2009-04-25T07:17:34Z</time>
            </trkpt>
            <trkpt lon="99.279411" lat="13.493607">
                <ele>190.958984</ele>
                <time>2009-04-25T07:17:45Z</time>
            </trkpt>
            <trkpt lon="99.279484" lat="13.493822">
                <ele>189.997681</ele>
                <time>2009-04-25T07:17:50Z</time>
            </trkpt>
            <trkpt lon="99.279757" lat="13.494452">
                <ele>187.594360</ele>
                <time>2009-04-25T07:18:03Z</time>
            </trkpt>
            <trkpt lon="99.279839" lat="13.494613">
                <ele>185.671753</ele>
                <time>2009-04-25T07:18:06Z</time>
            </trkpt>
            <trkpt lon="99.280129" lat="13.495072">
                <ele>187.594360</ele>
                <time>2009-04-25T07:18:15Z</time>
            </trkpt>
            <trkpt lon="99.280373" lat="13.495295">
                <ele>186.633179</ele>
                <time>2009-04-25T07:18:23Z</time>
            </trkpt>
            <trkpt lon="99.280556" lat="13.495434">
                <ele>184.229858</ele>
                <time>2009-04-25T07:18:29Z</time>
            </trkpt>
            <trkpt lon="99.280794" lat="13.495511">
                <ele>180.865234</ele>
                <time>2009-04-25T07:18:34Z</time>
            </trkpt>
            <trkpt lon="99.280864" lat="13.495503">
                <ele>180.865234</ele>
                <time>2009-04-25T07:18:35Z</time>
            </trkpt>
            <trkpt lon="99.281080" lat="13.495493">
                <ele>174.616577</ele>
                <time>2009-04-25T07:18:38Z</time>
            </trkpt>
            <trkpt lon="99.281157" lat="13.495492">
                <ele>174.616577</ele>
                <time>2009-04-25T07:18:39Z</time>
            </trkpt>
            <trkpt lon="99.281436" lat="13.495490">
                <ele>173.655273</ele>
                <time>2009-04-25T07:18:43Z</time>
            </trkpt>
            <trkpt lon="99.281769" lat="13.495744">
                <ele>170.290649</ele>
                <time>2009-04-25T07:18:49Z</time>
            </trkpt>
            <trkpt lon="99.281867" lat="13.495856">
                <ele>168.848755</ele>
                <time>2009-04-25T07:18:51Z</time>
            </trkpt>
            <trkpt lon="99.282150" lat="13.496091">
                <ele>165.484131</ele>
                <time>2009-04-25T07:18:55Z</time>
            </trkpt>
            <trkpt lon="99.282659" lat="13.496204">
                <ele>164.522705</ele>
                <time>2009-04-25T07:19:01Z</time>
            </trkpt>
            <trkpt lon="99.282743" lat="13.496214">
                <ele>164.042114</ele>
                <time>2009-04-25T07:19:02Z</time>
            </trkpt>
            <trkpt lon="99.283080" lat="13.496316">
                <ele>165.964722</ele>
                <time>2009-04-25T07:19:07Z</time>
            </trkpt>
            <trkpt lon="99.283174" lat="13.496242">
                <ele>165.484131</ele>
                <time>2009-04-25T07:19:11Z</time>
            </trkpt>
            <trkpt lon="99.283281" lat="13.496082">
                <ele>162.119507</ele>
                <time>2009-04-25T07:19:15Z</time>
            </trkpt>
            <trkpt lon="99.283501" lat="13.495667">
                <ele>162.600098</ele>
                <time>2009-04-25T07:19:25Z</time>
            </trkpt>
            <trkpt lon="99.283546" lat="13.495656">
                <ele>163.080811</ele>
                <time>2009-04-25T07:19:28Z</time>
            </trkpt>
            <trkpt lon="99.283641" lat="13.495673">
                <ele>163.561523</ele>
                <time>2009-04-25T07:19:34Z</time>
            </trkpt>
            <trkpt lon="99.283809" lat="13.495688">
                <ele>166.445312</ele>
                <time>2009-04-25T07:19:44Z</time>
            </trkpt>
            <trkpt lon="99.283982" lat="13.495716">
                <ele>168.848755</ele>
                <time>2009-04-25T07:19:55Z</time>
            </trkpt>
            <trkpt lon="99.284147" lat="13.495775">
                <ele>169.810059</ele>
                <time>2009-04-25T07:20:06Z</time>
            </trkpt>
            <trkpt lon="99.284262" lat="13.495836">
                <ele>171.252075</ele>
                <time>2009-04-25T07:20:17Z</time>
            </trkpt>
            <trkpt lon="99.284387" lat="13.495851">
                <ele>172.213257</ele>
                <time>2009-04-25T07:20:26Z</time>
            </trkpt>
            <trkpt lon="99.284540" lat="13.495876">
                <ele>172.213257</ele>
                <time>2009-04-25T07:20:37Z</time>
            </trkpt>
            <trkpt lon="99.284719" lat="13.495899">
                <ele>172.213257</ele>
                <time>2009-04-25T07:20:48Z</time>
            </trkpt>
            <trkpt lon="99.284918" lat="13.495929">
                <ele>171.732666</ele>
                <time>2009-04-25T07:20:59Z</time>
            </trkpt>
            <trkpt lon="99.285012" lat="13.495950">
                <ele>169.329468</ele>
                <time>2009-04-25T07:21:05Z</time>
            </trkpt>
            <trkpt lon="99.285011" lat="13.496011">
                <ele>168.848755</ele>
                <time>2009-04-25T07:21:09Z</time>
            </trkpt>
            <trkpt lon="99.284963" lat="13.496160">
                <ele>170.771362</ele>
                <time>2009-04-25T07:21:17Z</time>
            </trkpt>
            <trkpt lon="99.285035" lat="13.496246">
                <ele>169.810059</ele>
                <time>2009-04-25T07:21:23Z</time>
            </trkpt>
            <trkpt lon="99.285079" lat="13.496249">
                <ele>169.329468</ele>
                <time>2009-04-25T07:21:25Z</time>
            </trkpt>
            <trkpt lon="99.285132" lat="13.496246">
                <ele>168.368042</ele>
                <time>2009-04-25T07:21:27Z</time>
            </trkpt>
            <trkpt lon="99.285234" lat="13.496246">
                <ele>167.406738</ele>
                <time>2009-04-25T07:21:31Z</time>
            </trkpt>
            <trkpt lon="99.285287" lat="13.496255">
                <ele>166.926025</ele>
                <time>2009-04-25T07:21:33Z</time>
            </trkpt>
            <trkpt lon="99.285397" lat="13.496436">
                <ele>165.964722</ele>
                <time>2009-04-25T07:21:40Z</time>
            </trkpt>
            <trkpt lon="99.285402" lat="13.496476">
                <ele>165.964722</ele>
                <time>2009-04-25T07:21:41Z</time>
            </trkpt>
            <trkpt lon="99.285387" lat="13.496800">
                <ele>165.003418</ele>
                <time>2009-04-25T07:21:49Z</time>
            </trkpt>
            <trkpt lon="99.285442" lat="13.497008">
                <ele>164.522705</ele>
                <time>2009-04-25T07:21:56Z</time>
            </trkpt>
            <trkpt lon="99.285597" lat="13.497308">
                <ele>164.042114</ele>
                <time>2009-04-25T07:22:06Z</time>
            </trkpt>
            <trkpt lon="99.285605" lat="13.497333">
                <ele>164.042114</ele>
                <time>2009-04-25T07:22:07Z</time>
            </trkpt>
            <trkpt lon="99.285685" lat="13.497246">
                <ele>163.080811</ele>
                <time>2009-04-25T07:22:13Z</time>
            </trkpt>
            <trkpt lon="99.285737" lat="13.496951">
                <ele>163.080811</ele>
                <time>2009-04-25T07:22:23Z</time>
            </trkpt>
            <trkpt lon="99.285848" lat="13.496816">
                <ele>165.964722</ele>
                <time>2009-04-25T07:22:32Z</time>
            </trkpt>
            <trkpt lon="99.285897" lat="13.496730">
                <ele>165.964722</ele>
                <time>2009-04-25T07:22:37Z</time>
            </trkpt>
            <trkpt lon="99.286110" lat="13.496625">
                <ele>164.522705</ele>
                <time>2009-04-25T07:22:48Z</time>
            </trkpt>
            <trkpt lon="99.286130" lat="13.496609">
                <ele>164.522705</ele>
                <time>2009-04-25T07:22:49Z</time>
            </trkpt>
            <trkpt lon="99.286325" lat="13.496396">
                <ele>163.080811</ele>
                <time>2009-04-25T07:22:58Z</time>
            </trkpt>
            <trkpt lon="99.286406" lat="13.496166">
                <ele>163.561523</ele>
                <time>2009-04-25T07:23:06Z</time>
            </trkpt>
            <trkpt lon="99.286420" lat="13.496091">
                <ele>163.561523</ele>
                <time>2009-04-25T07:23:10Z</time>
            </trkpt>
            <trkpt lon="99.286458" lat="13.495966">
                <ele>164.042114</ele>
                <time>2009-04-25T07:23:17Z</time>
            </trkpt>
            <trkpt lon="99.286551" lat="13.495856">
                <ele>164.522705</ele>
                <time>2009-04-25T07:23:25Z</time>
            </trkpt>
            <trkpt lon="99.286710" lat="13.495825">
                <ele>164.522705</ele>
                <time>2009-04-25T07:23:34Z</time>
            </trkpt>
            <trkpt lon="99.286856" lat="13.495866">
                <ele>167.887329</ele>
                <time>2009-04-25T07:23:43Z</time>
            </trkpt>
            <trkpt lon="99.286974" lat="13.495879">
                <ele>170.771362</ele>
                <time>2009-04-25T07:23:53Z</time>
            </trkpt>
            <trkpt lon="99.287076" lat="13.495942">
                <ele>172.213257</ele>
                <time>2009-04-25T07:24:07Z</time>
            </trkpt>
            <trkpt lon="99.287084" lat="13.495944">
                <ele>166.445312</ele>
                <time>2009-04-25T07:24:18Z</time>
            </trkpt>
            <trkpt lon="99.287085" lat="13.495944">
                <ele>176.539307</ele>
                <time>2009-04-25T07:24:19Z</time>
            </trkpt>
            <trkpt lon="99.287085" lat="13.495944">
                <ele>172.693970</ele>
                <time>2009-04-25T07:24:20Z</time>
            </trkpt>
            <trkpt lon="99.287109" lat="13.495949">
                <ele>172.693970</ele>
                <time>2009-04-25T07:25:15Z</time>
            </trkpt>
            <trkpt lon="99.287100" lat="13.495965">
                <ele>172.213257</ele>
                <time>2009-04-25T07:25:45Z</time>
            </trkpt>
            <trkpt lon="99.287116" lat="13.496068">
                <ele>174.616577</ele>
                <time>2009-04-25T07:25:58Z</time>
            </trkpt>
            <trkpt lon="99.287149" lat="13.496181">
                <ele>175.097290</ele>
                <time>2009-04-25T07:26:11Z</time>
            </trkpt>
            <trkpt lon="99.287190" lat="13.496253">
                <ele>174.616577</ele>
                <time>2009-04-25T07:26:22Z</time>
            </trkpt>
            <trkpt lon="99.287189" lat="13.496270">
                <ele>174.135864</ele>
                <time>2009-04-25T07:26:34Z</time>
            </trkpt>
            <trkpt lon="99.287174" lat="13.496267">
                <ele>177.500610</ele>
                <time>2009-04-25T07:30:13Z</time>
            </trkpt>
            <trkpt lon="99.287244" lat="13.496322">
                <ele>177.981201</ele>
                <time>2009-04-25T07:30:27Z</time>
            </trkpt>
            <trkpt lon="99.287412" lat="13.496392">
                <ele>177.981201</ele>
                <time>2009-04-25T07:30:40Z</time>
            </trkpt>
            <trkpt lon="99.287581" lat="13.496510">
                <ele>179.423218</ele>
                <time>2009-04-25T07:30:53Z</time>
            </trkpt>
            <trkpt lon="99.287644" lat="13.496580">
                <ele>179.423218</ele>
                <time>2009-04-25T07:30:59Z</time>
            </trkpt>
            <trkpt lon="99.287666" lat="13.496789">
                <ele>178.461914</ele>
                <time>2009-04-25T07:31:09Z</time>
            </trkpt>
            <trkpt lon="99.287682" lat="13.496850">
                <ele>178.942627</ele>
                <time>2009-04-25T07:31:12Z</time>
            </trkpt>
            <trkpt lon="99.287820" lat="13.496902">
                <ele>178.942627</ele>
                <time>2009-04-25T07:31:19Z</time>
            </trkpt>
            <trkpt lon="99.287840" lat="13.496944">
                <ele>178.461914</ele>
                <time>2009-04-25T07:31:21Z</time>
            </trkpt>
            <trkpt lon="99.287825" lat="13.497175">
                <ele>176.539307</ele>
                <time>2009-04-25T07:31:31Z</time>
            </trkpt>
            <trkpt lon="99.287662" lat="13.497430">
                <ele>175.097290</ele>
                <time>2009-04-25T07:31:42Z</time>
            </trkpt>
            <trkpt lon="99.287515" lat="13.497588">
                <ele>173.655273</ele>
                <time>2009-04-25T07:31:49Z</time>
            </trkpt>
            <trkpt lon="99.287413" lat="13.497856">
                <ele>173.174683</ele>
                <time>2009-04-25T07:31:57Z</time>
            </trkpt>
            <trkpt lon="99.287403" lat="13.498046">
                <ele>172.693970</ele>
                <time>2009-04-25T07:32:02Z</time>
            </trkpt>
            <trkpt lon="99.287445" lat="13.498075">
                <ele>172.693970</ele>
                <time>2009-04-25T07:32:04Z</time>
            </trkpt>
            <trkpt lon="99.287534" lat="13.498157">
                <ele>172.213257</ele>
                <time>2009-04-25T07:32:08Z</time>
            </trkpt>
            <trkpt lon="99.287554" lat="13.498279">
                <ele>170.771362</ele>
                <time>2009-04-25T07:32:11Z</time>
            </trkpt>
            <trkpt lon="99.287487" lat="13.498549">
                <ele>167.887329</ele>
                <time>2009-04-25T07:32:17Z</time>
            </trkpt>
            <trkpt lon="99.287309" lat="13.499005">
                <ele>165.964722</ele>
                <time>2009-04-25T07:32:26Z</time>
            </trkpt>
            <trkpt lon="99.287277" lat="13.499095">
                <ele>166.445312</ele>
                <time>2009-04-25T07:32:28Z</time>
            </trkpt>
            <trkpt lon="99.287170" lat="13.499167">
                <ele>164.522705</ele>
                <time>2009-04-25T07:32:32Z</time>
            </trkpt>
            <trkpt lon="99.287082" lat="13.499334">
                <ele>163.561523</ele>
                <time>2009-04-25T07:32:36Z</time>
            </trkpt>
            <trkpt lon="99.286917" lat="13.499540">
                <ele>161.638916</ele>
                <time>2009-04-25T07:32:43Z</time>
            </trkpt>
            <trkpt lon="99.286846" lat="13.499591">
                <ele>158.754761</ele>
                <time>2009-04-25T07:32:45Z</time>
            </trkpt>
            <trkpt lon="99.286743" lat="13.499729">
                <ele>157.312866</ele>
                <time>2009-04-25T07:32:50Z</time>
            </trkpt>
            <trkpt lon="99.286668" lat="13.499781">
                <ele>154.428955</ele>
                <time>2009-04-25T07:32:54Z</time>
            </trkpt>
            <trkpt lon="99.286618" lat="13.499812">
                <ele>152.986939</ele>
                <time>2009-04-25T07:32:58Z</time>
            </trkpt>
            <trkpt lon="99.286607" lat="13.499834">
                <ele>151.544922</ele>
                <time>2009-04-25T07:33:06Z</time>
            </trkpt>
            <trkpt lon="99.286585" lat="13.499848">
                <ele>151.064209</ele>
                <time>2009-04-25T07:33:07Z</time>
            </trkpt>
            <trkpt lon="99.286572" lat="13.499852">
                <ele>151.544922</ele>
                <time>2009-04-25T07:33:08Z</time>
            </trkpt>
            <trkpt lon="99.286518" lat="13.499992">
                <ele>151.544922</ele>
                <time>2009-04-25T07:33:14Z</time>
            </trkpt>
            <trkpt lon="99.286539" lat="13.500107">
                <ele>150.583618</ele>
                <time>2009-04-25T07:33:20Z</time>
            </trkpt>
            <trkpt lon="99.286480" lat="13.500129">
                <ele>151.064209</ele>
                <time>2009-04-25T07:33:27Z</time>
            </trkpt>
            <trkpt lon="99.286463" lat="13.500144">
                <ele>150.583618</ele>
                <time>2009-04-25T07:33:29Z</time>
            </trkpt>
            <trkpt lon="99.286405" lat="13.500197">
                <ele>151.544922</ele>
                <time>2009-04-25T07:33:34Z</time>
            </trkpt>
            <trkpt lon="99.286276" lat="13.500317">
                <ele>152.506348</ele>
                <time>2009-04-25T07:33:43Z</time>
            </trkpt>
            <trkpt lon="99.286113" lat="13.500431">
                <ele>153.467651</ele>
                <time>2009-04-25T07:33:55Z</time>
            </trkpt>
            <trkpt lon="99.285880" lat="13.500520">
                <ele>152.986939</ele>
                <time>2009-04-25T07:34:06Z</time>
            </trkpt>
            <trkpt lon="99.285492" lat="13.500683">
                <ele>152.506348</ele>
                <time>2009-04-25T07:34:19Z</time>
            </trkpt>
            <trkpt lon="99.285223" lat="13.500806">
                <ele>149.622314</ele>
                <time>2009-04-25T07:34:27Z</time>
            </trkpt>
            <trkpt lon="99.285183" lat="13.500828">
                <ele>149.622314</ele>
                <time>2009-04-25T07:34:28Z</time>
            </trkpt>
            <trkpt lon="99.285096" lat="13.500964">
                <ele>150.103027</ele>
                <time>2009-04-25T07:34:32Z</time>
            </trkpt>
            <trkpt lon="99.285105" lat="13.501000">
                <ele>149.622314</ele>
                <time>2009-04-25T07:34:33Z</time>
            </trkpt>
            <trkpt lon="99.285150" lat="13.501106">
                <ele>150.103027</ele>
                <time>2009-04-25T07:34:36Z</time>
            </trkpt>
            <trkpt lon="99.285140" lat="13.501256">
                <ele>150.103027</ele>
                <time>2009-04-25T07:34:40Z</time>
            </trkpt>
            <trkpt lon="99.284906" lat="13.501445">
                <ele>152.506348</ele>
                <time>2009-04-25T07:34:49Z</time>
            </trkpt>
            <trkpt lon="99.284820" lat="13.501583">
                <ele>153.467651</ele>
                <time>2009-04-25T07:34:56Z</time>
            </trkpt>
            <trkpt lon="99.284822" lat="13.501600">
                <ele>154.428955</ele>
                <time>2009-04-25T07:34:58Z</time>
            </trkpt>
            <trkpt lon="99.284925" lat="13.501629">
                <ele>154.428955</ele>
                <time>2009-04-25T07:35:03Z</time>
            </trkpt>
            <trkpt lon="99.285117" lat="13.501803">
                <ele>154.428955</ele>
                <time>2009-04-25T07:35:12Z</time>
            </trkpt>
            <trkpt lon="99.285137" lat="13.501832">
                <ele>154.428955</ele>
                <time>2009-04-25T07:35:13Z</time>
            </trkpt>
            <trkpt lon="99.285366" lat="13.502207">
                <ele>152.986939</ele>
                <time>2009-04-25T07:35:22Z</time>
            </trkpt>
            <trkpt lon="99.285394" lat="13.502244">
                <ele>152.506348</ele>
                <time>2009-04-25T07:35:23Z</time>
            </trkpt>
            <trkpt lon="99.285668" lat="13.502525">
                <ele>154.428955</ele>
                <time>2009-04-25T07:35:32Z</time>
            </trkpt>
            <trkpt lon="99.285869" lat="13.502861">
                <ele>153.467651</ele>
                <time>2009-04-25T07:35:42Z</time>
            </trkpt>
            <trkpt lon="99.286131" lat="13.503135">
                <ele>153.467651</ele>
                <time>2009-04-25T07:35:51Z</time>
            </trkpt>
            <trkpt lon="99.286478" lat="13.503386">
                <ele>152.025757</ele>
                <time>2009-04-25T07:36:01Z</time>
            </trkpt>
            <trkpt lon="99.286591" lat="13.503468">
                <ele>152.506348</ele>
                <time>2009-04-25T07:36:05Z</time>
            </trkpt>
            <trkpt lon="99.286592" lat="13.503531">
                <ele>152.986939</ele>
                <time>2009-04-25T07:36:12Z</time>
            </trkpt>
            <trkpt lon="99.286597" lat="13.503571">
                <ele>152.506348</ele>
                <time>2009-04-25T07:36:24Z</time>
            </trkpt>
            <trkpt lon="99.286590" lat="13.503585">
                <ele>151.544922</ele>
                <time>2009-04-25T07:36:38Z</time>
            </trkpt>
            <trkpt lon="99.286583" lat="13.503669">
                <ele>151.544922</ele>
                <time>2009-04-25T07:37:40Z</time>
            </trkpt>
            <trkpt lon="99.286530" lat="13.503834">
                <ele>151.544922</ele>
                <time>2009-04-25T07:37:48Z</time>
            </trkpt>
            <trkpt lon="99.286461" lat="13.504068">
                <ele>150.103027</ele>
                <time>2009-04-25T07:37:56Z</time>
            </trkpt>
            <trkpt lon="99.286349" lat="13.504445">
                <ele>148.661011</ele>
                <time>2009-04-25T07:38:07Z</time>
            </trkpt>
            <trkpt lon="99.286272" lat="13.504758">
                <ele>146.257812</ele>
                <time>2009-04-25T07:38:14Z</time>
            </trkpt>
            <trkpt lon="99.286256" lat="13.504794">
                <ele>146.257812</ele>
                <time>2009-04-25T07:38:15Z</time>
            </trkpt>
            <trkpt lon="99.286076" lat="13.504894">
                <ele>144.335205</ele>
                <time>2009-04-25T07:38:21Z</time>
            </trkpt>
            <trkpt lon="99.285941" lat="13.505011">
                <ele>144.335205</ele>
                <time>2009-04-25T07:38:26Z</time>
            </trkpt>
            <trkpt lon="99.285820" lat="13.505119">
                <ele>146.257812</ele>
                <time>2009-04-25T07:38:33Z</time>
            </trkpt>
            <trkpt lon="99.285617" lat="13.505166">
                <ele>148.180420</ele>
                <time>2009-04-25T07:38:44Z</time>
            </trkpt>
            <trkpt lon="99.285333" lat="13.505228">
                <ele>148.661011</ele>
                <time>2009-04-25T07:38:55Z</time>
            </trkpt>
            <trkpt lon="99.285049" lat="13.505275">
                <ele>149.622314</ele>
                <time>2009-04-25T07:39:06Z</time>
            </trkpt>
            <trkpt lon="99.284828" lat="13.505317">
                <ele>151.064209</ele>
                <time>2009-04-25T07:39:15Z</time>
            </trkpt>
            <trkpt lon="99.284616" lat="13.505344">
                <ele>151.064209</ele>
                <time>2009-04-25T07:39:23Z</time>
            </trkpt>
            <trkpt lon="99.284287" lat="13.505411">
                <ele>152.506348</ele>
                <time>2009-04-25T07:39:34Z</time>
            </trkpt>
            <trkpt lon="99.284036" lat="13.505462">
                <ele>153.467651</ele>
                <time>2009-04-25T07:39:44Z</time>
            </trkpt>
            <trkpt lon="99.283765" lat="13.505508">
                <ele>153.948364</ele>
                <time>2009-04-25T07:39:55Z</time>
            </trkpt>
            <trkpt lon="99.283694" lat="13.505531">
                <ele>154.428955</ele>
                <time>2009-04-25T07:39:59Z</time>
            </trkpt>
            <trkpt lon="99.283698" lat="13.505591">
                <ele>153.467651</ele>
                <time>2009-04-25T07:40:03Z</time>
            </trkpt>
            <trkpt lon="99.283871" lat="13.505911">
                <ele>152.986939</ele>
                <time>2009-04-25T07:40:13Z</time>
            </trkpt>
            <trkpt lon="99.284027" lat="13.506226">
                <ele>152.506348</ele>
                <time>2009-04-25T07:40:22Z</time>
            </trkpt>
            <trkpt lon="99.284197" lat="13.506586">
                <ele>152.506348</ele>
                <time>2009-04-25T07:40:32Z</time>
            </trkpt>
            <trkpt lon="99.284239" lat="13.506681">
                <ele>152.025757</ele>
                <time>2009-04-25T07:40:38Z</time>
            </trkpt>
            <trkpt lon="99.284372" lat="13.506897">
                <ele>152.025757</ele>
                <time>2009-04-25T07:40:45Z</time>
            </trkpt>
            <trkpt lon="99.284379" lat="13.506929">
                <ele>150.583618</ele>
                <time>2009-04-25T07:40:46Z</time>
            </trkpt>
            <trkpt lon="99.284346" lat="13.506984">
                <ele>150.103027</ele>
                <time>2009-04-25T07:40:48Z</time>
            </trkpt>
            <trkpt lon="99.284286" lat="13.507019">
                <ele>150.583618</ele>
                <time>2009-04-25T07:40:50Z</time>
            </trkpt>
            <trkpt lon="99.284156" lat="13.507091">
                <ele>149.622314</ele>
                <time>2009-04-25T07:40:54Z</time>
            </trkpt>
            <trkpt lon="99.283564" lat="13.507455">
                <ele>149.622314</ele>
                <time>2009-04-25T07:41:09Z</time>
            </trkpt>
            <trkpt lon="99.282961" lat="13.507826">
                <ele>151.064209</ele>
                <time>2009-04-25T07:41:26Z</time>
            </trkpt>
            <trkpt lon="99.282490" lat="13.508106">
                <ele>151.064209</ele>
                <time>2009-04-25T07:41:40Z</time>
            </trkpt>
            <trkpt lon="99.282389" lat="13.508167">
                <ele>151.544922</ele>
                <time>2009-04-25T07:41:43Z</time>
            </trkpt>
            <trkpt lon="99.282203" lat="13.508430">
                <ele>150.583618</ele>
                <time>2009-04-25T07:41:53Z</time>
            </trkpt>
            <trkpt lon="99.282330" lat="13.508742">
                <ele>151.544922</ele>
                <time>2009-04-25T07:42:03Z</time>
            </trkpt>
            <trkpt lon="99.282444" lat="13.509044">
                <ele>151.544922</ele>
                <time>2009-04-25T07:42:11Z</time>
            </trkpt>
            <trkpt lon="99.282536" lat="13.509331">
                <ele>150.103027</ele>
                <time>2009-04-25T07:42:18Z</time>
            </trkpt>
            <trkpt lon="99.282638" lat="13.509621">
                <ele>149.141602</ele>
                <time>2009-04-25T07:42:26Z</time>
            </trkpt>
            <trkpt lon="99.282667" lat="13.509887">
                <ele>145.777100</ele>
                <time>2009-04-25T07:42:31Z</time>
            </trkpt>
            <trkpt lon="99.282666" lat="13.509944">
                <ele>145.296387</ele>
                <time>2009-04-25T07:42:32Z</time>
            </trkpt>
            <trkpt lon="99.282547" lat="13.510152">
                <ele>143.373657</ele>
                <time>2009-04-25T07:42:36Z</time>
            </trkpt>
            <trkpt lon="99.282529" lat="13.510335">
                <ele>140.970459</ele>
                <time>2009-04-25T07:42:40Z</time>
            </trkpt>
            <trkpt lon="99.282567" lat="13.510373">
                <ele>139.528442</ele>
                <time>2009-04-25T07:42:41Z</time>
            </trkpt>
            <trkpt lon="99.282732" lat="13.510481">
                <ele>139.047852</ele>
                <time>2009-04-25T07:42:44Z</time>
            </trkpt>
            <trkpt lon="99.283054" lat="13.510579">
                <ele>138.567261</ele>
                <time>2009-04-25T07:42:50Z</time>
            </trkpt>
            <trkpt lon="99.283210" lat="13.510613">
                <ele>137.605835</ele>
                <time>2009-04-25T07:42:57Z</time>
            </trkpt>
            <trkpt lon="99.283331" lat="13.510596">
                <ele>138.086548</ele>
                <time>2009-04-25T07:43:08Z</time>
            </trkpt>
            <trkpt lon="99.283378" lat="13.510592">
                <ele>139.047852</ele>
                <time>2009-04-25T07:43:17Z</time>
            </trkpt>
            <trkpt lon="99.283455" lat="13.510587">
                <ele>140.009155</ele>
                <time>2009-04-25T07:43:28Z</time>
            </trkpt>
            <trkpt lon="99.283453" lat="13.510599">
                <ele>139.528442</ele>
                <time>2009-04-25T07:43:41Z</time>
            </trkpt>
            <trkpt lon="99.283434" lat="13.510605">
                <ele>140.009155</ele>
                <time>2009-04-25T07:43:59Z</time>
            </trkpt>
            <trkpt lon="99.283447" lat="13.510587">
                <ele>140.009155</ele>
                <time>2009-04-25T07:44:01Z</time>
            </trkpt>
            <trkpt lon="99.283645" lat="13.510527">
                <ele>140.970459</ele>
                <time>2009-04-25T07:44:13Z</time>
            </trkpt>
            <trkpt lon="99.283807" lat="13.510491">
                <ele>142.893066</ele>
                <time>2009-04-25T07:44:22Z</time>
            </trkpt>
            <trkpt lon="99.283896" lat="13.510478">
                <ele>143.373657</ele>
                <time>2009-04-25T07:44:28Z</time>
            </trkpt>
            <trkpt lon="99.284099" lat="13.510364">
                <ele>142.893066</ele>
                <time>2009-04-25T07:44:37Z</time>
            </trkpt>
            <trkpt lon="99.284242" lat="13.510200">
                <ele>142.412476</ele>
                <time>2009-04-25T07:44:45Z</time>
            </trkpt>
            <trkpt lon="99.284261" lat="13.510159">
                <ele>142.893066</ele>
                <time>2009-04-25T07:44:51Z</time>
            </trkpt>
            <trkpt lon="99.284247" lat="13.510150">
                <ele>141.451050</ele>
                <time>2009-04-25T07:45:02Z</time>
            </trkpt>
            <trkpt lon="99.284253" lat="13.510208">
                <ele>141.451050</ele>
                <time>2009-04-25T07:47:21Z</time>
            </trkpt>
            <trkpt lon="99.284338" lat="13.510170">
                <ele>142.412476</ele>
                <time>2009-04-25T07:47:36Z</time>
            </trkpt>
            <trkpt lon="99.284183" lat="13.510271">
                <ele>142.412476</ele>
                <time>2009-04-25T07:50:06Z</time>
            </trkpt>
            <trkpt lon="99.284134" lat="13.510245">
                <ele>142.412476</ele>
                <time>2009-04-25T07:54:07Z</time>
            </trkpt>
            <trkpt lon="99.284167" lat="13.510164">
                <ele>142.412476</ele>
                <time>2009-04-25T07:54:28Z</time>
            </trkpt>
            <trkpt lon="99.284187" lat="13.510231">
                <ele>141.451050</ele>
                <time>2009-04-25T07:54:55Z</time>
            </trkpt>
            <trkpt lon="99.284146" lat="13.510335">
                <ele>141.931763</ele>
                <time>2009-04-25T07:56:38Z</time>
            </trkpt>
            <trkpt lon="99.284094" lat="13.510439">
                <ele>141.931763</ele>
                <time>2009-04-25T07:57:09Z</time>
            </trkpt>
            <trkpt lon="99.284063" lat="13.510500">
                <ele>142.412476</ele>
                <time>2009-04-25T07:58:16Z</time>
            </trkpt>
            <trkpt lon="99.284227" lat="13.510188">
                <ele>141.931763</ele>
                <time>2009-04-25T07:58:26Z</time>
            </trkpt>
            <trkpt lon="99.284253" lat="13.510169">
                <ele>142.412476</ele>
                <time>2009-04-25T08:00:00Z</time>
            </trkpt>
            <trkpt lon="99.284208" lat="13.510218">
                <ele>143.373657</ele>
                <time>2009-04-25T08:01:34Z</time>
            </trkpt>
            <trkpt lon="99.284168" lat="13.510201">
                <ele>144.815796</ele>
                <time>2009-04-25T08:02:14Z</time>
            </trkpt>
            <trkpt lon="99.284157" lat="13.510125">
                <ele>144.815796</ele>
                <time>2009-04-25T08:06:06Z</time>
            </trkpt>
            <trkpt lon="99.284160" lat="13.510357">
                <ele>147.218994</ele>
                <time>2009-04-25T08:10:13Z</time>
            </trkpt>
            <trkpt lon="99.284204" lat="13.510509">
                <ele>147.699707</ele>
                <time>2009-04-25T08:10:51Z</time>
            </trkpt>
            <trkpt lon="99.284247" lat="13.510321">
                <ele>147.699707</ele>
                <time>2009-04-25T08:11:30Z</time>
            </trkpt>
            <trkpt lon="99.284425" lat="13.510251">
                <ele>148.180420</ele>
                <time>2009-04-25T08:11:40Z</time>
            </trkpt>
            <trkpt lon="99.284651" lat="13.510118">
                <ele>147.699707</ele>
                <time>2009-04-25T08:11:48Z</time>
            </trkpt>
            <trkpt lon="99.284981" lat="13.509918">
                <ele>146.738403</ele>
                <time>2009-04-25T08:11:57Z</time>
            </trkpt>
            <trkpt lon="99.285570" lat="13.509680">
                <ele>146.257812</ele>
                <time>2009-04-25T08:12:12Z</time>
            </trkpt>
            <trkpt lon="99.286068" lat="13.509571">
                <ele>147.699707</ele>
                <time>2009-04-25T08:12:24Z</time>
            </trkpt>
            <trkpt lon="99.286450" lat="13.509642">
                <ele>148.180420</ele>
                <time>2009-04-25T08:12:33Z</time>
            </trkpt>
            <trkpt lon="99.286976" lat="13.509781">
                <ele>150.103027</ele>
                <time>2009-04-25T08:12:46Z</time>
            </trkpt>
            <trkpt lon="99.287166" lat="13.509819">
                <ele>151.544922</ele>
                <time>2009-04-25T08:12:52Z</time>
            </trkpt>
            <trkpt lon="99.287491" lat="13.509910">
                <ele>153.467651</ele>
                <time>2009-04-25T08:13:04Z</time>
            </trkpt>
            <trkpt lon="99.287828" lat="13.509999">
                <ele>155.870972</ele>
                <time>2009-04-25T08:13:18Z</time>
            </trkpt>
            <trkpt lon="99.288129" lat="13.510053">
                <ele>156.832153</ele>
                <time>2009-04-25T08:13:30Z</time>
            </trkpt>
            <trkpt lon="99.288501" lat="13.510076">
                <ele>156.351562</ele>
                <time>2009-04-25T08:13:42Z</time>
            </trkpt>
            <trkpt lon="99.288819" lat="13.510141">
                <ele>155.390259</ele>
                <time>2009-04-25T08:13:52Z</time>
            </trkpt>
            <trkpt lon="99.288919" lat="13.510302">
                <ele>154.428955</ele>
                <time>2009-04-25T08:13:56Z</time>
            </trkpt>
            <trkpt lon="99.289023" lat="13.510684">
                <ele>152.025757</ele>
                <time>2009-04-25T08:14:02Z</time>
            </trkpt>
            <trkpt lon="99.289112" lat="13.511257">
                <ele>149.622314</ele>
                <time>2009-04-25T08:14:10Z</time>
            </trkpt>
            <trkpt lon="99.289059" lat="13.511510">
                <ele>151.544922</ele>
                <time>2009-04-25T08:14:14Z</time>
            </trkpt>
            <trkpt lon="99.288921" lat="13.511884">
                <ele>153.467651</ele>
                <time>2009-04-25T08:14:22Z</time>
            </trkpt>
            <trkpt lon="99.288802" lat="13.512098">
                <ele>155.390259</ele>
                <time>2009-04-25T08:14:31Z</time>
            </trkpt>
            <trkpt lon="99.288660" lat="13.512408">
                <ele>156.832153</ele>
                <time>2009-04-25T08:14:42Z</time>
            </trkpt>
            <trkpt lon="99.288489" lat="13.512737">
                <ele>158.754761</ele>
                <time>2009-04-25T08:14:57Z</time>
            </trkpt>
            <trkpt lon="99.288337" lat="13.513086">
                <ele>160.196899</ele>
                <time>2009-04-25T08:15:11Z</time>
            </trkpt>
            <trkpt lon="99.288175" lat="13.513378">
                <ele>160.677490</ele>
                <time>2009-04-25T08:15:23Z</time>
            </trkpt>
            <trkpt lon="99.287989" lat="13.513723">
                <ele>160.196899</ele>
                <time>2009-04-25T08:15:34Z</time>
            </trkpt>
            <trkpt lon="99.287757" lat="13.514094">
                <ele>159.235474</ele>
                <time>2009-04-25T08:15:45Z</time>
            </trkpt>
            <trkpt lon="99.287512" lat="13.514504">
                <ele>160.196899</ele>
                <time>2009-04-25T08:15:56Z</time>
            </trkpt>
            <trkpt lon="99.287180" lat="13.515102">
                <ele>160.196899</ele>
                <time>2009-04-25T08:16:11Z</time>
            </trkpt>
            <trkpt lon="99.287009" lat="13.515575">
                <ele>159.716186</ele>
                <time>2009-04-25T08:16:22Z</time>
            </trkpt>
            <trkpt lon="99.286969" lat="13.516032">
                <ele>160.677490</ele>
                <time>2009-04-25T08:16:33Z</time>
            </trkpt>
            <trkpt lon="99.287024" lat="13.516454">
                <ele>162.119507</ele>
                <time>2009-04-25T08:16:44Z</time>
            </trkpt>
            <trkpt lon="99.287135" lat="13.516918">
                <ele>163.561523</ele>
                <time>2009-04-25T08:16:57Z</time>
            </trkpt>
            <trkpt lon="99.287234" lat="13.517338">
                <ele>165.003418</ele>
                <time>2009-04-25T08:17:09Z</time>
            </trkpt>
            <trkpt lon="99.287302" lat="13.517637">
                <ele>167.406738</ele>
                <time>2009-04-25T08:17:19Z</time>
            </trkpt>
            <trkpt lon="99.287363" lat="13.517961">
                <ele>169.329468</ele>
                <time>2009-04-25T08:17:32Z</time>
            </trkpt>
            <trkpt lon="99.287363" lat="13.517961">
                <ele>169.329468</ele>
                <time>2009-04-25T08:17:32Z</time>
            </trkpt>
            <trkpt lon="99.287421" lat="13.518308">
                <ele>170.771362</ele>
                <time>2009-04-25T08:17:46Z</time>
            </trkpt>
            <trkpt lon="99.287453" lat="13.518681">
                <ele>171.732666</ele>
                <time>2009-04-25T08:18:00Z</time>
            </trkpt>
            <trkpt lon="99.287478" lat="13.519005">
                <ele>171.732666</ele>
                <time>2009-04-25T08:18:12Z</time>
            </trkpt>
            <trkpt lon="99.287497" lat="13.519292">
                <ele>171.732666</ele>
                <time>2009-04-25T08:18:24Z</time>
            </trkpt>
            <trkpt lon="99.287543" lat="13.519545">
                <ele>172.693970</ele>
                <time>2009-04-25T08:18:35Z</time>
            </trkpt>
            <trkpt lon="99.287631" lat="13.519828">
                <ele>173.655273</ele>
                <time>2009-04-25T08:18:47Z</time>
            </trkpt>
            <trkpt lon="99.287717" lat="13.520083">
                <ele>175.577881</ele>
                <time>2009-04-25T08:18:58Z</time>
            </trkpt>
            <trkpt lon="99.287739" lat="13.520135">
                <ele>176.058594</ele>
                <time>2009-04-25T08:19:01Z</time>
            </trkpt>
            <trkpt lon="99.287799" lat="13.520178">
                <ele>176.058594</ele>
                <time>2009-04-25T08:19:06Z</time>
            </trkpt>
            <trkpt lon="99.287806" lat="13.520216">
                <ele>176.539307</ele>
                <time>2009-04-25T08:19:09Z</time>
            </trkpt>
            <trkpt lon="99.287815" lat="13.520295">
                <ele>175.577881</ele>
                <time>2009-04-25T08:19:16Z</time>
            </trkpt>
            <trkpt lon="99.287830" lat="13.520348">
                <ele>176.058594</ele>
                <time>2009-04-25T08:19:20Z</time>
            </trkpt>
            <trkpt lon="99.287814" lat="13.520375">
                <ele>177.020019</ele>
                <time>2009-04-25T08:19:22Z</time>
            </trkpt>
            <trkpt lon="99.287878" lat="13.520432">
                <ele>177.500610</ele>
                <time>2009-04-25T08:19:28Z</time>
            </trkpt>
            <trkpt lon="99.287884" lat="13.520518">
                <ele>177.500610</ele>
                <time>2009-04-25T08:19:33Z</time>
            </trkpt>
            <trkpt lon="99.287982" lat="13.520820">
                <ele>178.942627</ele>
                <time>2009-04-25T08:19:49Z</time>
            </trkpt>
            <trkpt lon="99.288057" lat="13.521036">
                <ele>180.384522</ele>
                <time>2009-04-25T08:20:01Z</time>
            </trkpt>
            <trkpt lon="99.288122" lat="13.521231">
                <ele>181.345825</ele>
                <time>2009-04-25T08:20:11Z</time>
            </trkpt>
            <trkpt lon="99.288205" lat="13.521480">
                <ele>183.268433</ele>
                <time>2009-04-25T08:20:24Z</time>
            </trkpt>
            <trkpt lon="99.288282" lat="13.521678">
                <ele>184.710571</ele>
                <time>2009-04-25T08:20:34Z</time>
            </trkpt>
            <trkpt lon="99.288398" lat="13.521913">
                <ele>185.671753</ele>
                <time>2009-04-25T08:20:47Z</time>
            </trkpt>
            <trkpt lon="99.288519" lat="13.522107">
                <ele>186.152466</ele>
                <time>2009-04-25T08:20:58Z</time>
            </trkpt>
            <trkpt lon="99.288648" lat="13.522334">
                <ele>186.152466</ele>
                <time>2009-04-25T08:21:09Z</time>
            </trkpt>
            <trkpt lon="99.288742" lat="13.522680">
                <ele>188.555786</ele>
                <time>2009-04-25T08:21:24Z</time>
            </trkpt>
            <trkpt lon="99.288733" lat="13.522911">
                <ele>189.516968</ele>
                <time>2009-04-25T08:21:34Z</time>
            </trkpt>
            <trkpt lon="99.288685" lat="13.523198">
                <ele>190.958984</ele>
                <time>2009-04-25T08:21:47Z</time>
            </trkpt>
            <trkpt lon="99.288635" lat="13.523504">
                <ele>190.958984</ele>
                <time>2009-04-25T08:22:00Z</time>
            </trkpt>
            <trkpt lon="99.288577" lat="13.523817">
                <ele>190.478394</ele>
                <time>2009-04-25T08:22:11Z</time>
            </trkpt>
            <trkpt lon="99.288558" lat="13.524140">
                <ele>189.516968</ele>
                <time>2009-04-25T08:22:20Z</time>
            </trkpt>
            <trkpt lon="99.288605" lat="13.524610">
                <ele>189.036377</ele>
                <time>2009-04-25T08:22:32Z</time>
            </trkpt>
            <trkpt lon="99.288651" lat="13.525006">
                <ele>189.036377</ele>
                <time>2009-04-25T08:22:43Z</time>
            </trkpt>
            <trkpt lon="99.288745" lat="13.525552">
                <ele>189.997681</ele>
                <time>2009-04-25T08:22:58Z</time>
            </trkpt>
            <trkpt lon="99.288883" lat="13.525992">
                <ele>189.516968</ele>
                <time>2009-04-25T08:23:10Z</time>
            </trkpt>
            <trkpt lon="99.288995" lat="13.526360">
                <ele>189.516968</ele>
                <time>2009-04-25T08:23:20Z</time>
            </trkpt>
            <trkpt lon="99.289158" lat="13.526975">
                <ele>189.516968</ele>
                <time>2009-04-25T08:23:36Z</time>
            </trkpt>
            <trkpt lon="99.289272" lat="13.527458">
                <ele>188.075073</ele>
                <time>2009-04-25T08:23:47Z</time>
            </trkpt>
            <trkpt lon="99.289356" lat="13.527823">
                <ele>186.633179</ele>
                <time>2009-04-25T08:23:54Z</time>
            </trkpt>
            <trkpt lon="99.289443" lat="13.528193">
                <ele>185.191162</ele>
                <time>2009-04-25T08:24:01Z</time>
            </trkpt>
            <trkpt lon="99.289554" lat="13.528665">
                <ele>182.307129</ele>
                <time>2009-04-25T08:24:10Z</time>
            </trkpt>
            <trkpt lon="99.289632" lat="13.528996">
                <ele>178.942627</ele>
                <time>2009-04-25T08:24:15Z</time>
            </trkpt>
            <trkpt lon="99.289680" lat="13.529187">
                <ele>177.020019</ele>
                <time>2009-04-25T08:24:18Z</time>
            </trkpt>
            <trkpt lon="99.289782" lat="13.529479">
                <ele>173.655273</ele>
                <time>2009-04-25T08:24:22Z</time>
            </trkpt>
            <trkpt lon="99.289920" lat="13.529705">
                <ele>171.252075</ele>
                <time>2009-04-25T08:24:25Z</time>
            </trkpt>
            <trkpt lon="99.290160" lat="13.530021">
                <ele>167.406738</ele>
                <time>2009-04-25T08:24:29Z</time>
            </trkpt>
            <trkpt lon="99.290735" lat="13.530824">
                <ele>165.003418</ele>
                <time>2009-04-25T08:24:39Z</time>
            </trkpt>
            <trkpt lon="99.290777" lat="13.530903">
                <ele>165.003418</ele>
                <time>2009-04-25T08:24:40Z</time>
            </trkpt>
            <trkpt lon="99.290844" lat="13.531162">
                <ele>167.406738</ele>
                <time>2009-04-25T08:24:44Z</time>
            </trkpt>
            <trkpt lon="99.290856" lat="13.531277">
                <ele>168.368042</ele>
                <time>2009-04-25T08:24:46Z</time>
            </trkpt>
            <trkpt lon="99.290858" lat="13.531443">
                <ele>167.887329</ele>
                <time>2009-04-25T08:24:49Z</time>
            </trkpt>
            <trkpt lon="99.290785" lat="13.532039">
                <ele>166.445312</ele>
                <time>2009-04-25T08:25:01Z</time>
            </trkpt>
            <trkpt lon="99.290708" lat="13.532620">
                <ele>166.445312</ele>
                <time>2009-04-25T08:25:13Z</time>
            </trkpt>
            <trkpt lon="99.290654" lat="13.533182">
                <ele>165.964722</ele>
                <time>2009-04-25T08:25:25Z</time>
            </trkpt>
            <trkpt lon="99.290664" lat="13.533801">
                <ele>165.484131</ele>
                <time>2009-04-25T08:25:38Z</time>
            </trkpt>
            <trkpt lon="99.290729" lat="13.534342">
                <ele>166.926025</ele>
                <time>2009-04-25T08:25:50Z</time>
            </trkpt>
            <trkpt lon="99.290814" lat="13.534771">
                <ele>169.329468</ele>
                <time>2009-04-25T08:26:01Z</time>
            </trkpt>
            <trkpt lon="99.290863" lat="13.535011">
                <ele>169.810059</ele>
                <time>2009-04-25T08:26:09Z</time>
            </trkpt>
            <trkpt lon="99.290932" lat="13.535311">
                <ele>172.213257</ele>
                <time>2009-04-25T08:26:19Z</time>
            </trkpt>
            <trkpt lon="99.290995" lat="13.535600">
                <ele>174.135864</ele>
                <time>2009-04-25T08:26:30Z</time>
            </trkpt>
            <trkpt lon="99.291078" lat="13.535971">
                <ele>174.135864</ele>
                <time>2009-04-25T08:26:43Z</time>
            </trkpt>
            <trkpt lon="99.291186" lat="13.536433">
                <ele>172.693970</ele>
                <time>2009-04-25T08:26:57Z</time>
            </trkpt>
            <trkpt lon="99.291246" lat="13.536649">
                <ele>171.732666</ele>
                <time>2009-04-25T08:27:02Z</time>
            </trkpt>
            <trkpt lon="99.291376" lat="13.536892">
                <ele>167.887329</ele>
                <time>2009-04-25T08:27:07Z</time>
            </trkpt>
            <trkpt lon="99.291463" lat="13.536998">
                <ele>167.887329</ele>
                <time>2009-04-25T08:27:09Z</time>
            </trkpt>
            <trkpt lon="99.291710" lat="13.537181">
                <ele>162.119507</ele>
                <time>2009-04-25T08:27:13Z</time>
            </trkpt>
            <trkpt lon="99.291932" lat="13.537270">
                <ele>160.196899</ele>
                <time>2009-04-25T08:27:16Z</time>
            </trkpt>
            <trkpt lon="99.292242" lat="13.537371">
                <ele>157.312866</ele>
                <time>2009-04-25T08:27:23Z</time>
            </trkpt>
            <trkpt lon="99.292223" lat="13.537489">
                <ele>156.832153</ele>
                <time>2009-04-25T08:27:28Z</time>
            </trkpt>
            <trkpt lon="99.292204" lat="13.537510">
                <ele>156.832153</ele>
                <time>2009-04-25T08:27:29Z</time>
            </trkpt>
            <trkpt lon="99.292025" lat="13.537644">
                <ele>156.832153</ele>
                <time>2009-04-25T08:27:37Z</time>
            </trkpt>
            <trkpt lon="99.291996" lat="13.537658">
                <ele>157.312866</ele>
                <time>2009-04-25T08:27:38Z</time>
            </trkpt>
            <trkpt lon="99.291833" lat="13.537806">
                <ele>156.351562</ele>
                <time>2009-04-25T08:27:43Z</time>
            </trkpt>
            <trkpt lon="99.291479" lat="13.538110">
                <ele>153.948364</ele>
                <time>2009-04-25T08:27:52Z</time>
            </trkpt>
            <trkpt lon="99.291340" lat="13.538245">
                <ele>149.622314</ele>
                <time>2009-04-25T08:27:55Z</time>
            </trkpt>
            <trkpt lon="99.291025" lat="13.538491">
                <ele>148.661011</ele>
                <time>2009-04-25T08:28:00Z</time>
            </trkpt>
            <trkpt lon="99.290896" lat="13.538575">
                <ele>150.103027</ele>
                <time>2009-04-25T08:28:02Z</time>
            </trkpt>
            <trkpt lon="99.290681" lat="13.538678">
                <ele>152.506348</ele>
                <time>2009-04-25T08:28:06Z</time>
            </trkpt>
            <trkpt lon="99.290481" lat="13.538791">
                <ele>153.467651</ele>
                <time>2009-04-25T08:28:12Z</time>
            </trkpt>
            <trkpt lon="99.290311" lat="13.538888">
                <ele>154.428955</ele>
                <time>2009-04-25T08:28:20Z</time>
            </trkpt>
            <trkpt lon="99.290025" lat="13.538985">
                <ele>155.870972</ele>
                <time>2009-04-25T08:28:32Z</time>
            </trkpt>
            <trkpt lon="99.289747" lat="13.539094">
                <ele>156.351562</ele>
                <time>2009-04-25T08:28:45Z</time>
            </trkpt>
            <trkpt lon="99.289467" lat="13.539213">
                <ele>157.312866</ele>
                <time>2009-04-25T08:28:59Z</time>
            </trkpt>
            <trkpt lon="99.289293" lat="13.539384">
                <ele>158.274170</ele>
                <time>2009-04-25T08:29:09Z</time>
            </trkpt>
            <trkpt lon="99.289141" lat="13.539563">
                <ele>159.716186</ele>
                <time>2009-04-25T08:29:18Z</time>
            </trkpt>
            <trkpt lon="99.289062" lat="13.539668">
                <ele>160.677490</ele>
                <time>2009-04-25T08:29:25Z</time>
            </trkpt>
            <trkpt lon="99.288938" lat="13.539777">
                <ele>161.638916</ele>
                <time>2009-04-25T08:29:34Z</time>
            </trkpt>
            <trkpt lon="99.288780" lat="13.539779">
                <ele>162.119507</ele>
                <time>2009-04-25T08:29:43Z</time>
            </trkpt>
            <trkpt lon="99.288578" lat="13.539675">
                <ele>163.080811</ele>
                <time>2009-04-25T08:29:53Z</time>
            </trkpt>
            <trkpt lon="99.288311" lat="13.539544">
                <ele>161.158203</ele>
                <time>2009-04-25T08:30:03Z</time>
            </trkpt>
            <trkpt lon="99.287899" lat="13.539412">
                <ele>160.196899</ele>
                <time>2009-04-25T08:30:13Z</time>
            </trkpt>
            <trkpt lon="99.287399" lat="13.539261">
                <ele>158.754761</ele>
                <time>2009-04-25T08:30:22Z</time>
            </trkpt>
            <trkpt lon="99.287016" lat="13.539208">
                <ele>159.235474</ele>
                <time>2009-04-25T08:30:29Z</time>
            </trkpt>
            <trkpt lon="99.286790" lat="13.539292">
                <ele>160.196899</ele>
                <time>2009-04-25T08:30:35Z</time>
            </trkpt>
            <trkpt lon="99.286455" lat="13.539478">
                <ele>161.638916</ele>
                <time>2009-04-25T08:30:45Z</time>
            </trkpt>
            <trkpt lon="99.286078" lat="13.539620">
                <ele>162.600098</ele>
                <time>2009-04-25T08:30:57Z</time>
            </trkpt>
            <trkpt lon="99.285730" lat="13.539740">
                <ele>163.561523</ele>
                <time>2009-04-25T08:31:09Z</time>
            </trkpt>
            <trkpt lon="99.285360" lat="13.539845">
                <ele>164.042114</ele>
                <time>2009-04-25T08:31:20Z</time>
            </trkpt>
            <trkpt lon="99.284994" lat="13.539857">
                <ele>162.119507</ele>
                <time>2009-04-25T08:31:29Z</time>
            </trkpt>
            <trkpt lon="99.284588" lat="13.539889">
                <ele>162.600098</ele>
                <time>2009-04-25T08:31:39Z</time>
            </trkpt>
            <trkpt lon="99.284300" lat="13.540023">
                <ele>164.042114</ele>
                <time>2009-04-25T08:31:48Z</time>
            </trkpt>
            <trkpt lon="99.284161" lat="13.540199">
                <ele>165.484131</ele>
                <time>2009-04-25T08:31:57Z</time>
            </trkpt>
            <trkpt lon="99.284110" lat="13.540292">
                <ele>166.926025</ele>
                <time>2009-04-25T08:32:01Z</time>
            </trkpt>
            <trkpt lon="99.284022" lat="13.540398">
                <ele>167.887329</ele>
                <time>2009-04-25T08:32:06Z</time>
            </trkpt>
            <trkpt lon="99.283697" lat="13.540410">
                <ele>166.926025</ele>
                <time>2009-04-25T08:32:16Z</time>
            </trkpt>
            <trkpt lon="99.283288" lat="13.540424">
                <ele>168.368042</ele>
                <time>2009-04-25T08:32:29Z</time>
            </trkpt>
            <trkpt lon="99.283114" lat="13.540458">
                <ele>169.810059</ele>
                <time>2009-04-25T08:32:35Z</time>
            </trkpt>
            <trkpt lon="99.282879" lat="13.540516">
                <ele>168.368042</ele>
                <time>2009-04-25T08:32:43Z</time>
            </trkpt>
            <trkpt lon="99.282784" lat="13.540531">
                <ele>167.887329</ele>
                <time>2009-04-25T08:32:45Z</time>
            </trkpt>
            <trkpt lon="99.282696" lat="13.540532">
                <ele>168.368042</ele>
                <time>2009-04-25T08:32:47Z</time>
            </trkpt>
            <trkpt lon="99.282360" lat="13.540466">
                <ele>170.290649</ele>
                <time>2009-04-25T08:32:56Z</time>
            </trkpt>
            <trkpt lon="99.282218" lat="13.540489">
                <ele>168.848755</ele>
                <time>2009-04-25T08:32:59Z</time>
            </trkpt>
            <trkpt lon="99.282017" lat="13.540544">
                <ele>167.887329</ele>
                <time>2009-04-25T08:33:03Z</time>
            </trkpt>
            <trkpt lon="99.281820" lat="13.540582">
                <ele>170.771362</ele>
                <time>2009-04-25T08:33:09Z</time>
            </trkpt>
            <trkpt lon="99.281603" lat="13.540629">
                <ele>172.213257</ele>
                <time>2009-04-25T08:33:20Z</time>
            </trkpt>
            <trkpt lon="99.281392" lat="13.540684">
                <ele>174.616577</ele>
                <time>2009-04-25T08:33:32Z</time>
            </trkpt>
            <trkpt lon="99.281229" lat="13.540775">
                <ele>176.539307</ele>
                <time>2009-04-25T08:33:44Z</time>
            </trkpt>
            <trkpt lon="99.281203" lat="13.540803">
                <ele>177.020019</ele>
                <time>2009-04-25T08:33:47Z</time>
            </trkpt>
            <trkpt lon="99.281194" lat="13.540860">
                <ele>177.020019</ele>
                <time>2009-04-25T08:33:51Z</time>
            </trkpt>
            <trkpt lon="99.281154" lat="13.541015">
                <ele>177.981201</ele>
                <time>2009-04-25T08:34:02Z</time>
            </trkpt>
            <trkpt lon="99.281085" lat="13.541151">
                <ele>178.942627</ele>
                <time>2009-04-25T08:34:12Z</time>
            </trkpt>
            <trkpt lon="99.280960" lat="13.541319">
                <ele>179.903809</ele>
                <time>2009-04-25T08:34:23Z</time>
            </trkpt>
            <trkpt lon="99.280850" lat="13.541520">
                <ele>177.981201</ele>
                <time>2009-04-25T08:34:30Z</time>
            </trkpt>
            <trkpt lon="99.280807" lat="13.541677">
                <ele>179.423218</ele>
                <time>2009-04-25T08:34:36Z</time>
            </trkpt>
            <trkpt lon="99.280767" lat="13.541846">
                <ele>181.345825</ele>
                <time>2009-04-25T08:34:44Z</time>
            </trkpt>
            <trkpt lon="99.280745" lat="13.542042">
                <ele>182.307129</ele>
                <time>2009-04-25T08:34:52Z</time>
            </trkpt>
            <trkpt lon="99.280699" lat="13.542307">
                <ele>183.268433</ele>
                <time>2009-04-25T08:35:03Z</time>
            </trkpt>
            <trkpt lon="99.280663" lat="13.542545">
                <ele>182.307129</ele>
                <time>2009-04-25T08:35:13Z</time>
            </trkpt>
            <trkpt lon="99.280637" lat="13.542801">
                <ele>181.826416</ele>
                <time>2009-04-25T08:35:22Z</time>
            </trkpt>
            <trkpt lon="99.280593" lat="13.543121">
                <ele>181.345825</ele>
                <time>2009-04-25T08:35:31Z</time>
            </trkpt>
            <trkpt lon="99.280584" lat="13.543343">
                <ele>179.903809</ele>
                <time>2009-04-25T08:35:36Z</time>
            </trkpt>
            <trkpt lon="99.280636" lat="13.543682">
                <ele>176.539307</ele>
                <time>2009-04-25T08:35:42Z</time>
            </trkpt>
            <trkpt lon="99.280642" lat="13.543745">
                <ele>175.097290</ele>
                <time>2009-04-25T08:35:43Z</time>
            </trkpt>
            <trkpt lon="99.280637" lat="13.543876">
                <ele>174.616577</ele>
                <time>2009-04-25T08:35:45Z</time>
            </trkpt>
            <trkpt lon="99.280614" lat="13.543972">
                <ele>176.058594</ele>
                <time>2009-04-25T08:35:47Z</time>
            </trkpt>
            <trkpt lon="99.280477" lat="13.544330">
                <ele>173.655273</ele>
                <time>2009-04-25T08:35:54Z</time>
            </trkpt>
            <trkpt lon="99.280461" lat="13.544379">
                <ele>173.174683</ele>
                <time>2009-04-25T08:35:55Z</time>
            </trkpt>
            <trkpt lon="99.280411" lat="13.544489">
                <ele>174.135864</ele>
                <time>2009-04-25T08:35:58Z</time>
            </trkpt>
            <trkpt lon="99.280301" lat="13.544471">
                <ele>171.252075</ele>
                <time>2009-04-25T08:36:02Z</time>
            </trkpt>
            <trkpt lon="99.280251" lat="13.544456">
                <ele>170.771362</ele>
                <time>2009-04-25T08:36:03Z</time>
            </trkpt>
            <trkpt lon="99.280092" lat="13.544457">
                <ele>169.329468</ele>
                <time>2009-04-25T08:36:06Z</time>
            </trkpt>
            <trkpt lon="99.280026" lat="13.544477">
                <ele>171.252075</ele>
                <time>2009-04-25T08:36:08Z</time>
            </trkpt>
            <trkpt lon="99.279959" lat="13.544497">
                <ele>173.655273</ele>
                <time>2009-04-25T08:36:11Z</time>
            </trkpt>
            <trkpt lon="99.279758" lat="13.544565">
                <ele>173.655273</ele>
                <time>2009-04-25T08:36:18Z</time>
            </trkpt>
            <trkpt lon="99.279687" lat="13.544576">
                <ele>171.732666</ele>
                <time>2009-04-25T08:36:20Z</time>
            </trkpt>
            <trkpt lon="99.279499" lat="13.544659">
                <ele>171.252075</ele>
                <time>2009-04-25T08:36:24Z</time>
            </trkpt>
            <trkpt lon="99.279428" lat="13.544709">
                <ele>172.693970</ele>
                <time>2009-04-25T08:36:26Z</time>
            </trkpt>
            <trkpt lon="99.279299" lat="13.544785">
                <ele>174.135864</ele>
                <time>2009-04-25T08:36:32Z</time>
            </trkpt>
            <trkpt lon="99.279138" lat="13.544871">
                <ele>174.135864</ele>
                <time>2009-04-25T08:36:39Z</time>
            </trkpt>
            <trkpt lon="99.279001" lat="13.544958">
                <ele>175.097290</ele>
                <time>2009-04-25T08:36:45Z</time>
            </trkpt>
            <trkpt lon="99.278982" lat="13.544970">
                <ele>175.097290</ele>
                <time>2009-04-25T08:36:46Z</time>
            </trkpt>
            <trkpt lon="99.278848" lat="13.545077">
                <ele>178.461914</ele>
                <time>2009-04-25T08:36:54Z</time>
            </trkpt>
            <trkpt lon="99.278715" lat="13.545185">
                <ele>180.384522</ele>
                <time>2009-04-25T08:37:03Z</time>
            </trkpt>
            <trkpt lon="99.278554" lat="13.545320">
                <ele>183.268433</ele>
                <time>2009-04-25T08:37:14Z</time>
            </trkpt>
            <trkpt lon="99.278389" lat="13.545453">
                <ele>183.749023</ele>
                <time>2009-04-25T08:37:27Z</time>
            </trkpt>
            <trkpt lon="99.278278" lat="13.545552">
                <ele>183.268433</ele>
                <time>2009-04-25T08:37:34Z</time>
            </trkpt>
            <trkpt lon="99.278083" lat="13.545721">
                <ele>182.307129</ele>
                <time>2009-04-25T08:37:44Z</time>
            </trkpt>
            <trkpt lon="99.277813" lat="13.545911">
                <ele>181.345825</ele>
                <time>2009-04-25T08:37:53Z</time>
            </trkpt>
            <trkpt lon="99.277432" lat="13.546187">
                <ele>180.384522</ele>
                <time>2009-04-25T08:38:05Z</time>
            </trkpt>
            <trkpt lon="99.277314" lat="13.546277">
                <ele>178.461914</ele>
                <time>2009-04-25T08:38:11Z</time>
            </trkpt>
            <trkpt lon="99.277291" lat="13.546292">
                <ele>178.461914</ele>
                <time>2009-04-25T08:38:17Z</time>
            </trkpt>
            <trkpt lon="99.277262" lat="13.546296">
                <ele>177.981201</ele>
                <time>2009-04-25T08:38:21Z</time>
            </trkpt>
            <trkpt lon="99.277196" lat="13.546301">
                <ele>177.981201</ele>
                <time>2009-04-25T08:38:30Z</time>
            </trkpt>
            <trkpt lon="99.277206" lat="13.546444">
                <ele>176.539307</ele>
                <time>2009-04-25T08:38:36Z</time>
            </trkpt>
            <trkpt lon="99.277166" lat="13.546541">
                <ele>175.097290</ele>
                <time>2009-04-25T08:38:40Z</time>
            </trkpt>
            <trkpt lon="99.276967" lat="13.546551">
                <ele>172.213257</ele>
                <time>2009-04-25T08:38:44Z</time>
            </trkpt>
            <trkpt lon="99.276364" lat="13.546713">
                <ele>170.290649</ele>
                <time>2009-04-25T08:38:54Z</time>
            </trkpt>
            <trkpt lon="99.275782" lat="13.546744">
                <ele>169.329468</ele>
                <time>2009-04-25T08:39:04Z</time>
            </trkpt>
            <trkpt lon="99.275361" lat="13.546636">
                <ele>169.329468</ele>
                <time>2009-04-25T08:39:12Z</time>
            </trkpt>
            <trkpt lon="99.275161" lat="13.546555">
                <ele>170.771362</ele>
                <time>2009-04-25T08:39:18Z</time>
            </trkpt>
            <trkpt lon="99.274885" lat="13.546414">
                <ele>169.329468</ele>
                <time>2009-04-25T08:39:26Z</time>
            </trkpt>
            <trkpt lon="99.274664" lat="13.546332">
                <ele>166.926025</ele>
                <time>2009-04-25T08:39:30Z</time>
            </trkpt>
            <trkpt lon="99.274476" lat="13.546284">
                <ele>166.445312</ele>
                <time>2009-04-25T08:39:33Z</time>
            </trkpt>
            <trkpt lon="99.273980" lat="13.546312">
                <ele>167.406738</ele>
                <time>2009-04-25T08:39:42Z</time>
            </trkpt>
            <trkpt lon="99.273638" lat="13.546362">
                <ele>167.406738</ele>
                <time>2009-04-25T08:39:49Z</time>
            </trkpt>
            <trkpt lon="99.273453" lat="13.546351">
                <ele>167.887329</ele>
                <time>2009-04-25T08:39:53Z</time>
            </trkpt>
            <trkpt lon="99.273328" lat="13.546309">
                <ele>168.368042</ele>
                <time>2009-04-25T08:39:56Z</time>
            </trkpt>
            <trkpt lon="99.273195" lat="13.546223">
                <ele>169.329468</ele>
                <time>2009-04-25T08:40:00Z</time>
            </trkpt>
            <trkpt lon="99.273056" lat="13.545954">
                <ele>169.810059</ele>
                <time>2009-04-25T08:40:08Z</time>
            </trkpt>
            <trkpt lon="99.272918" lat="13.545615">
                <ele>169.810059</ele>
                <time>2009-04-25T08:40:17Z</time>
            </trkpt>
            <trkpt lon="99.272606" lat="13.545241">
                <ele>171.252075</ele>
                <time>2009-04-25T08:40:30Z</time>
            </trkpt>
            <trkpt lon="99.272382" lat="13.545136">
                <ele>173.655273</ele>
                <time>2009-04-25T08:40:40Z</time>
            </trkpt>
            <trkpt lon="99.272103" lat="13.544985">
                <ele>172.213257</ele>
                <time>2009-04-25T08:40:51Z</time>
            </trkpt>
            <trkpt lon="99.271877" lat="13.544977">
                <ele>172.693970</ele>
                <time>2009-04-25T08:40:57Z</time>
            </trkpt>
            <trkpt lon="99.271472" lat="13.545107">
                <ele>174.616577</ele>
                <time>2009-04-25T08:41:10Z</time>
            </trkpt>
            <trkpt lon="99.271185" lat="13.545185">
                <ele>175.577881</ele>
                <time>2009-04-25T08:41:21Z</time>
            </trkpt>
            <trkpt lon="99.270982" lat="13.545259">
                <ele>174.616577</ele>
                <time>2009-04-25T08:41:27Z</time>
            </trkpt>
            <trkpt lon="99.270716" lat="13.545530">
                <ele>174.135864</ele>
                <time>2009-04-25T08:41:37Z</time>
            </trkpt>
            <trkpt lon="99.270349" lat="13.545748">
                <ele>175.577881</ele>
                <time>2009-04-25T08:41:49Z</time>
            </trkpt>
            <trkpt lon="99.269894" lat="13.545911">
                <ele>175.577881</ele>
                <time>2009-04-25T08:42:02Z</time>
            </trkpt>
            <trkpt lon="99.269592" lat="13.545993">
                <ele>176.539307</ele>
                <time>2009-04-25T08:42:11Z</time>
            </trkpt>
            <trkpt lon="99.269419" lat="13.545948">
                <ele>176.539307</ele>
                <time>2009-04-25T08:42:17Z</time>
            </trkpt>
            <trkpt lon="99.269134" lat="13.545937">
                <ele>177.020019</ele>
                <time>2009-04-25T08:42:25Z</time>
            </trkpt>
            <trkpt lon="99.268958" lat="13.546010">
                <ele>178.461914</ele>
                <time>2009-04-25T08:42:31Z</time>
            </trkpt>
            <trkpt lon="99.268945" lat="13.546290">
                <ele>177.981201</ele>
                <time>2009-04-25T08:42:40Z</time>
            </trkpt>
            <trkpt lon="99.268968" lat="13.546672">
                <ele>178.461914</ele>
                <time>2009-04-25T08:42:52Z</time>
            </trkpt>
            <trkpt lon="99.268918" lat="13.546826">
                <ele>178.461914</ele>
                <time>2009-04-25T08:42:57Z</time>
            </trkpt>
            <trkpt lon="99.268699" lat="13.546897">
                <ele>177.981201</ele>
                <time>2009-04-25T08:43:05Z</time>
            </trkpt>
            <trkpt lon="99.268345" lat="13.546926">
                <ele>178.942627</ele>
                <time>2009-04-25T08:43:15Z</time>
            </trkpt>
            <trkpt lon="99.268090" lat="13.546946">
                <ele>179.903809</ele>
                <time>2009-04-25T08:43:22Z</time>
            </trkpt>
            <trkpt lon="99.267904" lat="13.546915">
                <ele>181.345825</ele>
                <time>2009-04-25T08:43:29Z</time>
            </trkpt>
            <trkpt lon="99.267855" lat="13.546898">
                <ele>182.307129</ele>
                <time>2009-04-25T08:43:31Z</time>
            </trkpt>
            <trkpt lon="99.267629" lat="13.546800">
                <ele>182.307129</ele>
                <time>2009-04-25T08:43:40Z</time>
            </trkpt>
            <trkpt lon="99.267296" lat="13.546698">
                <ele>182.787842</ele>
                <time>2009-04-25T08:43:51Z</time>
            </trkpt>
            <trkpt lon="99.266941" lat="13.546734">
                <ele>181.345825</ele>
                <time>2009-04-25T08:44:01Z</time>
            </trkpt>
            <trkpt lon="99.266692" lat="13.546840">
                <ele>181.826416</ele>
                <time>2009-04-25T08:44:09Z</time>
            </trkpt>
            <trkpt lon="99.266461" lat="13.547128">
                <ele>182.307129</ele>
                <time>2009-04-25T08:44:21Z</time>
            </trkpt>
            <trkpt lon="99.266171" lat="13.547353">
                <ele>181.345825</ele>
                <time>2009-04-25T08:44:31Z</time>
            </trkpt>
            <trkpt lon="99.265838" lat="13.547598">
                <ele>183.268433</ele>
                <time>2009-04-25T08:44:43Z</time>
            </trkpt>
            <trkpt lon="99.265696" lat="13.547952">
                <ele>183.749023</ele>
                <time>2009-04-25T08:44:55Z</time>
            </trkpt>
            <trkpt lon="99.265611" lat="13.548374">
                <ele>184.229858</ele>
                <time>2009-04-25T08:45:07Z</time>
            </trkpt>
            <trkpt lon="99.265659" lat="13.548613">
                <ele>183.268433</ele>
                <time>2009-04-25T08:45:15Z</time>
            </trkpt>
            <trkpt lon="99.265857" lat="13.549020">
                <ele>186.633179</ele>
                <time>2009-04-25T08:45:29Z</time>
            </trkpt>
            <trkpt lon="99.265873" lat="13.549203">
                <ele>188.075073</ele>
                <time>2009-04-25T08:45:37Z</time>
            </trkpt>
            <trkpt lon="99.265815" lat="13.549375">
                <ele>189.036377</ele>
                <time>2009-04-25T08:45:47Z</time>
            </trkpt>
            <trkpt lon="99.265658" lat="13.549537">
                <ele>189.997681</ele>
                <time>2009-04-25T08:46:00Z</time>
            </trkpt>
            <trkpt lon="99.265532" lat="13.549662">
                <ele>192.401123</ele>
                <time>2009-04-25T08:46:10Z</time>
            </trkpt>
            <trkpt lon="99.265404" lat="13.549763">
                <ele>193.843018</ele>
                <time>2009-04-25T08:46:19Z</time>
            </trkpt>
            <trkpt lon="99.265196" lat="13.549925">
                <ele>196.246338</ele>
                <time>2009-04-25T08:46:34Z</time>
            </trkpt>
            <trkpt lon="99.265027" lat="13.550044">
                <ele>198.168945</ele>
                <time>2009-04-25T08:46:43Z</time>
            </trkpt>
            <trkpt lon="99.264882" lat="13.550145">
                <ele>201.533569</ele>
                <time>2009-04-25T08:46:53Z</time>
            </trkpt>
            <trkpt lon="99.264667" lat="13.550232">
                <ele>202.014282</ele>
                <time>2009-04-25T08:47:08Z</time>
            </trkpt>
            <trkpt lon="99.264457" lat="13.550295">
                <ele>200.572266</ele>
                <time>2009-04-25T08:47:19Z</time>
            </trkpt>
            <trkpt lon="99.264312" lat="13.550346">
                <ele>197.688232</ele>
                <time>2009-04-25T08:47:23Z</time>
            </trkpt>
            <trkpt lon="99.264133" lat="13.550407">
                <ele>197.688232</ele>
                <time>2009-04-25T08:47:27Z</time>
            </trkpt>
            <trkpt lon="99.263719" lat="13.550497">
                <ele>198.649536</ele>
                <time>2009-04-25T08:47:37Z</time>
            </trkpt>
            <trkpt lon="99.263289" lat="13.550595">
                <ele>201.533569</ele>
                <time>2009-04-25T08:47:51Z</time>
            </trkpt>
            <trkpt lon="99.263111" lat="13.550671">
                <ele>201.052856</ele>
                <time>2009-04-25T08:48:00Z</time>
            </trkpt>
            <trkpt lon="99.262859" lat="13.550812">
                <ele>201.052856</ele>
                <time>2009-04-25T08:48:10Z</time>
            </trkpt>
            <trkpt lon="99.262574" lat="13.550969">
                <ele>201.052856</ele>
                <time>2009-04-25T08:48:21Z</time>
            </trkpt>
            <trkpt lon="99.262288" lat="13.551096">
                <ele>202.494873</ele>
                <time>2009-04-25T08:48:32Z</time>
            </trkpt>
            <trkpt lon="99.262164" lat="13.551057">
                <ele>202.494873</ele>
                <time>2009-04-25T08:48:40Z</time>
            </trkpt>
            <trkpt lon="99.262156" lat="13.551054">
                <ele>202.494873</ele>
                <time>2009-04-25T08:48:48Z</time>
            </trkpt>
            <trkpt lon="99.262163" lat="13.551001">
                <ele>202.494873</ele>
                <time>2009-04-25T08:54:19Z</time>
            </trkpt>
            <trkpt lon="99.262091" lat="13.551001">
                <ele>201.052856</ele>
                <time>2009-04-25T08:54:22Z</time>
            </trkpt>
            <trkpt lon="99.261983" lat="13.551021">
                <ele>199.130127</ele>
                <time>2009-04-25T08:54:24Z</time>
            </trkpt>
            <trkpt lon="99.261624" lat="13.551056">
                <ele>201.052856</ele>
                <time>2009-04-25T08:54:32Z</time>
            </trkpt>
            <trkpt lon="99.261262" lat="13.551069">
                <ele>203.936890</ele>
                <time>2009-04-25T08:54:43Z</time>
            </trkpt>
            <trkpt lon="99.260823" lat="13.551122">
                <ele>204.898071</ele>
                <time>2009-04-25T08:54:57Z</time>
            </trkpt>
            <trkpt lon="99.260436" lat="13.551213">
                <ele>205.859497</ele>
                <time>2009-04-25T08:55:10Z</time>
            </trkpt>
            <trkpt lon="99.260151" lat="13.551289">
                <ele>205.378784</ele>
                <time>2009-04-25T08:55:20Z</time>
            </trkpt>
            <trkpt lon="99.260069" lat="13.551289">
                <ele>206.820679</ele>
                <time>2009-04-25T08:55:23Z</time>
            </trkpt>
            <trkpt lon="99.259831" lat="13.551205">
                <ele>203.456177</ele>
                <time>2009-04-25T08:55:32Z</time>
            </trkpt>
            <trkpt lon="99.259801" lat="13.551182">
                <ele>203.456177</ele>
                <time>2009-04-25T08:55:33Z</time>
            </trkpt>
            <trkpt lon="99.259635" lat="13.551034">
                <ele>206.340088</ele>
                <time>2009-04-25T08:55:39Z</time>
            </trkpt>
            <trkpt lon="99.259578" lat="13.550992">
                <ele>207.301392</ele>
                <time>2009-04-25T08:55:45Z</time>
            </trkpt>
            <trkpt lon="99.259421" lat="13.550887">
                <ele>205.859497</ele>
                <time>2009-04-25T08:55:54Z</time>
            </trkpt>
            <trkpt lon="99.259245" lat="13.550859">
                <ele>203.456177</ele>
                <time>2009-04-25T08:55:58Z</time>
            </trkpt>
            <trkpt lon="99.258807" lat="13.550913">
                <ele>202.014282</ele>
                <time>2009-04-25T08:56:05Z</time>
            </trkpt>
            <trkpt lon="99.258650" lat="13.550943">
                <ele>202.494873</ele>
                <time>2009-04-25T08:56:08Z</time>
            </trkpt>
            <trkpt lon="99.258436" lat="13.550948">
                <ele>205.378784</ele>
                <time>2009-04-25T08:56:14Z</time>
            </trkpt>
            <trkpt lon="99.258240" lat="13.550959">
                <ele>205.378784</ele>
                <time>2009-04-25T08:56:22Z</time>
            </trkpt>
            <trkpt lon="99.257929" lat="13.551014">
                <ele>205.859497</ele>
                <time>2009-04-25T08:56:32Z</time>
            </trkpt>
            <trkpt lon="99.257795" lat="13.551002">
                <ele>206.820679</ele>
                <time>2009-04-25T08:56:39Z</time>
            </trkpt>
            <trkpt lon="99.257636" lat="13.550957">
                <ele>210.185425</ele>
                <time>2009-04-25T08:56:49Z</time>
            </trkpt>
            <trkpt lon="99.257500" lat="13.550890">
                <ele>211.146728</ele>
                <time>2009-04-25T08:56:59Z</time>
            </trkpt>
            <trkpt lon="99.257358" lat="13.550819">
                <ele>209.224121</ele>
                <time>2009-04-25T08:57:06Z</time>
            </trkpt>
            <trkpt lon="99.257065" lat="13.550832">
                <ele>206.340088</ele>
                <time>2009-04-25T08:57:12Z</time>
            </trkpt>
            <trkpt lon="99.256715" lat="13.550892">
                <ele>207.301392</ele>
                <time>2009-04-25T08:57:20Z</time>
            </trkpt>
            <trkpt lon="99.256467" lat="13.550986">
                <ele>208.743408</ele>
                <time>2009-04-25T08:57:28Z</time>
            </trkpt>
            <trkpt lon="99.256385" lat="13.551080">
                <ele>210.666016</ele>
                <time>2009-04-25T08:57:35Z</time>
            </trkpt>
            <trkpt lon="99.256276" lat="13.551289">
                <ele>208.262817</ele>
                <time>2009-04-25T08:57:44Z</time>
            </trkpt>
            <trkpt lon="99.256210" lat="13.551391">
                <ele>206.340088</ele>
                <time>2009-04-25T08:57:47Z</time>
            </trkpt>
            <trkpt lon="99.256055" lat="13.551603">
                <ele>205.378784</ele>
                <time>2009-04-25T08:57:52Z</time>
            </trkpt>
            <trkpt lon="99.255978" lat="13.551679">
                <ele>204.417481</ele>
                <time>2009-04-25T08:57:54Z</time>
            </trkpt>
            <trkpt lon="99.255940" lat="13.551715">
                <ele>204.898071</ele>
                <time>2009-04-25T08:57:55Z</time>
            </trkpt>
            <trkpt lon="99.255754" lat="13.551786">
                <ele>207.782105</ele>
                <time>2009-04-25T08:58:01Z</time>
            </trkpt>
            <trkpt lon="99.255510" lat="13.551829">
                <ele>207.301392</ele>
                <time>2009-04-25T08:58:09Z</time>
            </trkpt>
            <trkpt lon="99.255206" lat="13.551808">
                <ele>208.262817</ele>
                <time>2009-04-25T08:58:19Z</time>
            </trkpt>
            <trkpt lon="99.254969" lat="13.551813">
                <ele>208.743408</ele>
                <time>2009-04-25T08:58:28Z</time>
            </trkpt>
            <trkpt lon="99.254877" lat="13.551847">
                <ele>210.185425</ele>
                <time>2009-04-25T08:58:31Z</time>
            </trkpt>
            <trkpt lon="99.254623" lat="13.551998">
                <ele>210.185425</ele>
                <time>2009-04-25T08:58:41Z</time>
            </trkpt>
            <trkpt lon="99.254384" lat="13.552142">
                <ele>211.146728</ele>
                <time>2009-04-25T08:58:51Z</time>
            </trkpt>
            <trkpt lon="99.254194" lat="13.552253">
                <ele>212.108032</ele>
                <time>2009-04-25T08:59:01Z</time>
            </trkpt>
            <trkpt lon="99.254057" lat="13.552320">
                <ele>214.991943</ele>
                <time>2009-04-25T08:59:10Z</time>
            </trkpt>
            <trkpt lon="99.253908" lat="13.552337">
                <ele>216.433960</ele>
                <time>2009-04-25T08:59:20Z</time>
            </trkpt>
            <trkpt lon="99.253878" lat="13.552339">
                <ele>217.395386</ele>
                <time>2009-04-25T08:59:22Z</time>
            </trkpt>
            <trkpt lon="99.253803" lat="13.552344">
                <ele>217.875977</ele>
                <time>2009-04-25T08:59:27Z</time>
            </trkpt>
            <trkpt lon="99.253661" lat="13.552319">
                <ele>218.356567</ele>
                <time>2009-04-25T08:59:37Z</time>
            </trkpt>
            <trkpt lon="99.253504" lat="13.552321">
                <ele>219.317993</ele>
                <time>2009-04-25T08:59:47Z</time>
            </trkpt>
            <trkpt lon="99.253333" lat="13.552384">
                <ele>219.798584</ele>
                <time>2009-04-25T08:59:58Z</time>
            </trkpt>
            <trkpt lon="99.253170" lat="13.552449">
                <ele>221.240601</ele>
                <time>2009-04-25T09:00:09Z</time>
            </trkpt>
            <trkpt lon="99.252991" lat="13.552432">
                <ele>222.201782</ele>
                <time>2009-04-25T09:00:19Z</time>
            </trkpt>
            <trkpt lon="99.252867" lat="13.552386">
                <ele>220.279175</ele>
                <time>2009-04-25T09:00:25Z</time>
            </trkpt>
            <trkpt lon="99.252559" lat="13.552316">
                <ele>221.721191</ele>
                <time>2009-04-25T09:00:36Z</time>
            </trkpt>
            <trkpt lon="99.252265" lat="13.552353">
                <ele>221.240601</ele>
                <time>2009-04-25T09:00:46Z</time>
            </trkpt>
            <trkpt lon="99.251911" lat="13.552454">
                <ele>219.798584</ele>
                <time>2009-04-25T09:00:58Z</time>
            </trkpt>
            <trkpt lon="99.251827" lat="13.552473">
                <ele>218.837280</ele>
                <time>2009-04-25T09:01:01Z</time>
            </trkpt>
            <trkpt lon="99.251727" lat="13.552504">
                <ele>217.875977</ele>
                <time>2009-04-25T09:01:03Z</time>
            </trkpt>
            <trkpt lon="99.251674" lat="13.552520">
                <ele>217.395386</ele>
                <time>2009-04-25T09:01:04Z</time>
            </trkpt>
            <trkpt lon="99.251393" lat="13.552605">
                <ele>219.317993</ele>
                <time>2009-04-25T09:01:11Z</time>
            </trkpt>
            <trkpt lon="99.251206" lat="13.552716">
                <ele>220.759888</ele>
                <time>2009-04-25T09:01:22Z</time>
            </trkpt>
            <trkpt lon="99.250998" lat="13.552773">
                <ele>221.721191</ele>
                <time>2009-04-25T09:01:34Z</time>
            </trkpt>
            <trkpt lon="99.250820" lat="13.552769">
                <ele>223.163208</ele>
                <time>2009-04-25T09:01:46Z</time>
            </trkpt>
            <trkpt lon="99.250813" lat="13.552762">
                <ele>223.643799</ele>
                <time>2009-04-25T09:01:47Z</time>
            </trkpt>
            <trkpt lon="99.250787" lat="13.552611">
                <ele>226.527832</ele>
                <time>2009-04-25T09:01:59Z</time>
            </trkpt>
            <trkpt lon="99.250776" lat="13.552413">
                <ele>227.489136</ele>
                <time>2009-04-25T09:02:11Z</time>
            </trkpt>
            <trkpt lon="99.250728" lat="13.552244">
                <ele>227.969727</ele>
                <time>2009-04-25T09:02:21Z</time>
            </trkpt>
            <trkpt lon="99.250673" lat="13.552081">
                <ele>227.489136</ele>
                <time>2009-04-25T09:02:31Z</time>
            </trkpt>
            <trkpt lon="99.250560" lat="13.551888">
                <ele>227.969727</ele>
                <time>2009-04-25T09:02:44Z</time>
            </trkpt>
            <trkpt lon="99.250416" lat="13.551787">
                <ele>228.931152</ele>
                <time>2009-04-25T09:02:54Z</time>
            </trkpt>
            <trkpt lon="99.250234" lat="13.551728">
                <ele>231.334351</ele>
                <time>2009-04-25T09:03:04Z</time>
            </trkpt>
            <trkpt lon="99.250163" lat="13.551643">
                <ele>232.295776</ele>
                <time>2009-04-25T09:03:11Z</time>
            </trkpt>
            <trkpt lon="99.250113" lat="13.551453">
                <ele>230.853760</ele>
                <time>2009-04-25T09:03:21Z</time>
            </trkpt>
            <trkpt lon="99.249999" lat="13.551372">
                <ele>231.334351</ele>
                <time>2009-04-25T09:03:25Z</time>
            </trkpt>
            <trkpt lon="99.249763" lat="13.551331">
                <ele>233.257080</ele>
                <time>2009-04-25T09:03:33Z</time>
            </trkpt>
            <trkpt lon="99.249421" lat="13.551297">
                <ele>233.257080</ele>
                <time>2009-04-25T09:03:44Z</time>
            </trkpt>
            <trkpt lon="99.249128" lat="13.551182">
                <ele>233.257080</ele>
                <time>2009-04-25T09:03:54Z</time>
            </trkpt>
            <trkpt lon="99.249060" lat="13.551132">
                <ele>232.776489</ele>
                <time>2009-04-25T09:03:57Z</time>
            </trkpt>
            <trkpt lon="99.249054" lat="13.550975">
                <ele>232.776489</ele>
                <time>2009-04-25T09:04:03Z</time>
            </trkpt>
            <trkpt lon="99.249103" lat="13.550664">
                <ele>233.737671</ele>
                <time>2009-04-25T09:04:13Z</time>
            </trkpt>
            <trkpt lon="99.249118" lat="13.550532">
                <ele>236.621704</ele>
                <time>2009-04-25T09:04:17Z</time>
            </trkpt>
            <trkpt lon="99.249158" lat="13.550360">
                <ele>237.102295</ele>
                <time>2009-04-25T09:04:23Z</time>
            </trkpt>
            <trkpt lon="99.249220" lat="13.550214">
                <ele>237.582886</ele>
                <time>2009-04-25T09:04:30Z</time>
            </trkpt>
            <trkpt lon="99.249341" lat="13.550099">
                <ele>234.699097</ele>
                <time>2009-04-25T09:04:36Z</time>
            </trkpt>
            <trkpt lon="99.249471" lat="13.550055">
                <ele>233.737671</ele>
                <time>2009-04-25T09:04:39Z</time>
            </trkpt>
            <trkpt lon="99.249608" lat="13.549898">
                <ele>232.295776</ele>
                <time>2009-04-25T09:04:44Z</time>
            </trkpt>
            <trkpt lon="99.249610" lat="13.549817">
                <ele>231.334351</ele>
                <time>2009-04-25T09:04:46Z</time>
            </trkpt>
            <trkpt lon="99.249575" lat="13.549662">
                <ele>231.814941</ele>
                <time>2009-04-25T09:04:50Z</time>
            </trkpt>
            <trkpt lon="99.249573" lat="13.549498">
                <ele>230.853760</ele>
                <time>2009-04-25T09:04:54Z</time>
            </trkpt>
            <trkpt lon="99.249750" lat="13.549458">
                <ele>228.931152</ele>
                <time>2009-04-25T09:05:01Z</time>
            </trkpt>
            <trkpt lon="99.249788" lat="13.549470">
                <ele>228.931152</ele>
                <time>2009-04-25T09:05:02Z</time>
            </trkpt>
            <trkpt lon="99.249907" lat="13.549532">
                <ele>224.605225</ele>
                <time>2009-04-25T09:05:05Z</time>
            </trkpt>
            <trkpt lon="99.250152" lat="13.549713">
                <ele>222.682495</ele>
                <time>2009-04-25T09:05:09Z</time>
            </trkpt>
            <trkpt lon="99.250469" lat="13.549850">
                <ele>223.643799</ele>
                <time>2009-04-25T09:05:14Z</time>
            </trkpt>
            <trkpt lon="99.250969" lat="13.549982">
                <ele>223.643799</ele>
                <time>2009-04-25T09:05:23Z</time>
            </trkpt>
            <trkpt lon="99.251389" lat="13.550055">
                <ele>224.605225</ele>
                <time>2009-04-25T09:05:32Z</time>
            </trkpt>
            <trkpt lon="99.251452" lat="13.550066">
                <ele>225.085938</ele>
                <time>2009-04-25T09:05:34Z</time>
            </trkpt>
            <trkpt lon="99.251702" lat="13.550093">
                <ele>226.527832</ele>
                <time>2009-04-25T09:05:43Z</time>
            </trkpt>
            <trkpt lon="99.251906" lat="13.550114">
                <ele>225.566528</ele>
                <time>2009-04-25T09:05:49Z</time>
            </trkpt>
            <trkpt lon="99.252095" lat="13.550030">
                <ele>225.566528</ele>
                <time>2009-04-25T09:05:54Z</time>
            </trkpt>
            <trkpt lon="99.252422" lat="13.549883">
                <ele>225.085938</ele>
                <time>2009-04-25T09:06:04Z</time>
            </trkpt>
            <trkpt lon="99.252618" lat="13.549892">
                <ele>225.085938</ele>
                <time>2009-04-25T09:06:09Z</time>
            </trkpt>
            <trkpt lon="99.253006" lat="13.549794">
                <ele>222.682495</ele>
                <time>2009-04-25T09:06:16Z</time>
            </trkpt>
            <trkpt lon="99.253117" lat="13.549758">
                <ele>219.317993</ele>
                <time>2009-04-25T09:06:18Z</time>
            </trkpt>
            <trkpt lon="99.253305" lat="13.549683">
                <ele>216.433960</ele>
                <time>2009-04-25T09:06:21Z</time>
            </trkpt>
            <trkpt lon="99.253537" lat="13.549512">
                <ele>221.240601</ele>
                <time>2009-04-25T09:06:27Z</time>
            </trkpt>
            <trkpt lon="99.253548" lat="13.549498">
                <ele>221.240601</ele>
                <time>2009-04-25T09:06:28Z</time>
            </trkpt>
            <trkpt lon="99.253607" lat="13.549411">
                <ele>222.201782</ele>
                <time>2009-04-25T09:06:32Z</time>
            </trkpt>
            <trkpt lon="99.253731" lat="13.549317">
                <ele>224.124512</ele>
                <time>2009-04-25T09:06:40Z</time>
            </trkpt>
            <trkpt lon="99.253951" lat="13.549200">
                <ele>225.085938</ele>
                <time>2009-04-25T09:06:53Z</time>
            </trkpt>
            <trkpt lon="99.254118" lat="13.549122">
                <ele>227.008545</ele>
                <time>2009-04-25T09:07:05Z</time>
            </trkpt>
            <trkpt lon="99.254146" lat="13.549114">
                <ele>227.969727</ele>
                <time>2009-04-25T09:07:07Z</time>
            </trkpt>
            <trkpt lon="99.254259" lat="13.549130">
                <ele>228.931152</ele>
                <time>2009-04-25T09:07:15Z</time>
            </trkpt>
            <trkpt lon="99.254365" lat="13.549185">
                <ele>228.931152</ele>
                <time>2009-04-25T09:07:23Z</time>
            </trkpt>
            <trkpt lon="99.254479" lat="13.549269">
                <ele>229.411743</ele>
                <time>2009-04-25T09:07:34Z</time>
            </trkpt>
            <trkpt lon="99.254639" lat="13.549458">
                <ele>229.892334</ele>
                <time>2009-04-25T09:07:47Z</time>
            </trkpt>
            <trkpt lon="99.254720" lat="13.549483">
                <ele>230.853760</ele>
                <time>2009-04-25T09:07:54Z</time>
            </trkpt>
            <trkpt lon="99.254790" lat="13.549407">
                <ele>231.334351</ele>
                <time>2009-04-25T09:08:03Z</time>
            </trkpt>
            <trkpt lon="99.254829" lat="13.549274">
                <ele>233.257080</ele>
                <time>2009-04-25T09:08:14Z</time>
            </trkpt>
            <trkpt lon="99.254863" lat="13.549128">
                <ele>233.737671</ele>
                <time>2009-04-25T09:08:23Z</time>
            </trkpt>
            <trkpt lon="99.254901" lat="13.549043">
                <ele>236.621704</ele>
                <time>2009-04-25T09:08:28Z</time>
            </trkpt>
            <trkpt lon="99.254944" lat="13.548995">
                <ele>237.582886</ele>
                <time>2009-04-25T09:08:35Z</time>
            </trkpt>
            <trkpt lon="99.254942" lat="13.548998">
                <ele>237.102295</ele>
                <time>2009-04-25T09:08:52Z</time>
            </trkpt>
            <trkpt lon="99.254960" lat="13.548993">
                <ele>237.102295</ele>
                <time>2009-04-25T09:09:47Z</time>
            </trkpt>
            <trkpt lon="99.254967" lat="13.548986">
                <ele>237.582886</ele>
                <time>2009-04-25T09:09:58Z</time>
            </trkpt>
            <trkpt lon="99.255011" lat="13.548957">
                <ele>238.544311</ele>
                <time>2009-04-25T09:10:04Z</time>
            </trkpt>
            <trkpt lon="99.255067" lat="13.548943">
                <ele>239.505493</ele>
                <time>2009-04-25T09:10:10Z</time>
            </trkpt>
            <trkpt lon="99.255178" lat="13.548922">
                <ele>240.467041</ele>
                <time>2009-04-25T09:10:22Z</time>
            </trkpt>
            <trkpt lon="99.255235" lat="13.548852">
                <ele>241.908936</ele>
                <time>2009-04-25T09:10:31Z</time>
            </trkpt>
            <trkpt lon="99.255274" lat="13.548793">
                <ele>244.312256</ele>
                <time>2009-04-25T09:10:40Z</time>
            </trkpt>
            <trkpt lon="99.255287" lat="13.548786">
                <ele>240.467041</ele>
                <time>2009-04-25T09:10:49Z</time>
            </trkpt>
            <trkpt lon="99.255288" lat="13.548785">
                <ele>244.792847</ele>
                <time>2009-04-25T09:10:50Z</time>
            </trkpt>
            <trkpt lon="99.255288" lat="13.548785">
                <ele>241.428223</ele>
                <time>2009-04-25T09:10:51Z</time>
            </trkpt>
            <trkpt lon="99.255289" lat="13.548785">
                <ele>246.234863</ele>
                <time>2009-04-25T09:10:52Z</time>
            </trkpt>
            <trkpt lon="99.255289" lat="13.548784">
                <ele>242.870239</ele>
                <time>2009-04-25T09:10:53Z</time>
            </trkpt>
            <trkpt lon="99.255314" lat="13.548822">
                <ele>244.792847</ele>
                <time>2009-04-25T09:12:47Z</time>
            </trkpt>
            <trkpt lon="99.255258" lat="13.548793">
                <ele>241.428223</ele>
                <time>2009-04-25T09:17:50Z</time>
            </trkpt>
            <trkpt lon="99.255271" lat="13.548797">
                <ele>245.754150</ele>
                <time>2009-04-25T09:21:02Z</time>
            </trkpt>
            <trkpt lon="99.255407" lat="13.548744">
                <ele>244.792847</ele>
                <time>2009-04-25T09:21:13Z</time>
            </trkpt>
            <trkpt lon="99.255441" lat="13.548603">
                <ele>245.754150</ele>
                <time>2009-04-25T09:21:26Z</time>
            </trkpt>
            <trkpt lon="99.255462" lat="13.548514">
                <ele>247.196045</ele>
                <time>2009-04-25T09:21:36Z</time>
            </trkpt>
            <trkpt lon="99.255500" lat="13.548414">
                <ele>250.560791</ele>
                <time>2009-04-25T09:21:49Z</time>
            </trkpt>
            <trkpt lon="99.255520" lat="13.548336">
                <ele>251.522095</ele>
                <time>2009-04-25T09:21:59Z</time>
            </trkpt>
            <trkpt lon="99.255517" lat="13.548255">
                <ele>253.444702</ele>
                <time>2009-04-25T09:22:09Z</time>
            </trkpt>
            <trkpt lon="99.255485" lat="13.548181">
                <ele>253.444702</ele>
                <time>2009-04-25T09:22:18Z</time>
            </trkpt>
            <trkpt lon="99.255472" lat="13.548156">
                <ele>252.963989</ele>
                <time>2009-04-25T09:22:28Z</time>
            </trkpt>
            <trkpt lon="99.255442" lat="13.548079">
                <ele>254.406006</ele>
                <time>2009-04-25T09:22:40Z</time>
            </trkpt>
            <trkpt lon="99.255406" lat="13.547956">
                <ele>257.290039</ele>
                <time>2009-04-25T09:22:54Z</time>
            </trkpt>
            <trkpt lon="99.255405" lat="13.547932">
                <ele>258.731934</ele>
                <time>2009-04-25T09:23:04Z</time>
            </trkpt>
            <trkpt lon="99.255379" lat="13.547860">
                <ele>259.212647</ele>
                <time>2009-04-25T09:23:13Z</time>
            </trkpt>
            <trkpt lon="99.255343" lat="13.547743">
                <ele>261.615967</ele>
                <time>2009-04-25T09:23:30Z</time>
            </trkpt>
            <trkpt lon="99.255340" lat="13.547727">
                <ele>262.577148</ele>
                <time>2009-04-25T09:23:40Z</time>
            </trkpt>
            <trkpt lon="99.255333" lat="13.547671">
                <ele>263.538574</ele>
                <time>2009-04-25T09:24:01Z</time>
            </trkpt>
            <trkpt lon="99.255325" lat="13.547556">
                <ele>264.019287</ele>
                <time>2009-04-25T09:24:14Z</time>
            </trkpt>
            <trkpt lon="99.255323" lat="13.547536">
                <ele>264.019287</ele>
                <time>2009-04-25T09:24:16Z</time>
            </trkpt>
            <trkpt lon="99.255349" lat="13.547383">
                <ele>265.941894</ele>
                <time>2009-04-25T09:24:32Z</time>
            </trkpt>
            <trkpt lon="99.255375" lat="13.547263">
                <ele>266.903198</ele>
                <time>2009-04-25T09:24:46Z</time>
            </trkpt>
            <trkpt lon="99.255353" lat="13.547160">
                <ele>267.864502</ele>
                <time>2009-04-25T09:24:57Z</time>
            </trkpt>
            <trkpt lon="99.255276" lat="13.547027">
                <ele>269.306519</ele>
                <time>2009-04-25T09:25:11Z</time>
            </trkpt>
            <trkpt lon="99.255273" lat="13.547011">
                <ele>269.787109</ele>
                <time>2009-04-25T09:25:21Z</time>
            </trkpt>
            <trkpt lon="99.255292" lat="13.546922">
                <ele>270.267700</ele>
                <time>2009-04-25T09:25:37Z</time>
            </trkpt>
            <trkpt lon="99.255341" lat="13.546814">
                <ele>271.229126</ele>
                <time>2009-04-25T09:25:47Z</time>
            </trkpt>
            <trkpt lon="99.255443" lat="13.546703">
                <ele>273.151856</ele>
                <time>2009-04-25T09:25:59Z</time>
            </trkpt>
            <trkpt lon="99.255564" lat="13.546550">
                <ele>273.632446</ele>
                <time>2009-04-25T09:26:14Z</time>
            </trkpt>
            <trkpt lon="99.255606" lat="13.546423">
                <ele>273.151856</ele>
                <time>2009-04-25T09:26:25Z</time>
            </trkpt>
            <trkpt lon="99.255651" lat="13.546361">
                <ele>274.593750</ele>
                <time>2009-04-25T09:26:31Z</time>
            </trkpt>
            <trkpt lon="99.255720" lat="13.546287">
                <ele>275.555054</ele>
                <time>2009-04-25T09:26:44Z</time>
            </trkpt>
            <trkpt lon="99.255747" lat="13.546243">
                <ele>276.516357</ele>
                <time>2009-04-25T09:26:51Z</time>
            </trkpt>
            <trkpt lon="99.255805" lat="13.546113">
                <ele>279.880859</ele>
                <time>2009-04-25T09:27:10Z</time>
            </trkpt>
            <trkpt lon="99.255803" lat="13.545981">
                <ele>282.284302</ele>
                <time>2009-04-25T09:27:24Z</time>
            </trkpt>
            <trkpt lon="99.255875" lat="13.545904">
                <ele>282.284302</ele>
                <time>2009-04-25T09:27:37Z</time>
            </trkpt>
            <trkpt lon="99.256010" lat="13.545777">
                <ele>283.245606</ele>
                <time>2009-04-25T09:27:56Z</time>
            </trkpt>
            <trkpt lon="99.256087" lat="13.545703">
                <ele>285.168213</ele>
                <time>2009-04-25T09:28:06Z</time>
            </trkpt>
            <trkpt lon="99.256095" lat="13.545698">
                <ele>285.168213</ele>
                <time>2009-04-25T09:28:07Z</time>
            </trkpt>
            <trkpt lon="99.256235" lat="13.545629">
                <ele>287.090820</ele>
                <time>2009-04-25T09:28:23Z</time>
            </trkpt>
            <trkpt lon="99.256303" lat="13.545596">
                <ele>289.013550</ele>
                <time>2009-04-25T09:28:33Z</time>
            </trkpt>
            <trkpt lon="99.256398" lat="13.545536">
                <ele>291.416748</ele>
                <time>2009-04-25T09:28:45Z</time>
            </trkpt>
            <trkpt lon="99.256476" lat="13.545457">
                <ele>292.378174</ele>
                <time>2009-04-25T09:28:57Z</time>
            </trkpt>
            <trkpt lon="99.256611" lat="13.545370">
                <ele>292.858765</ele>
                <time>2009-04-25T09:29:11Z</time>
            </trkpt>
            <trkpt lon="99.256768" lat="13.545274">
                <ele>294.300781</ele>
                <time>2009-04-25T09:29:27Z</time>
            </trkpt>
            <trkpt lon="99.256806" lat="13.545240">
                <ele>293.820068</ele>
                <time>2009-04-25T09:29:34Z</time>
            </trkpt>
            <trkpt lon="99.256913" lat="13.545151">
                <ele>293.820068</ele>
                <time>2009-04-25T09:29:42Z</time>
            </trkpt>
            <trkpt lon="99.257042" lat="13.545010">
                <ele>292.378174</ele>
                <time>2009-04-25T09:29:50Z</time>
            </trkpt>
            <trkpt lon="99.257271" lat="13.544738">
                <ele>290.936157</ele>
                <time>2009-04-25T09:29:58Z</time>
            </trkpt>
            <trkpt lon="99.257340" lat="13.544660">
                <ele>290.455566</ele>
                <time>2009-04-25T09:30:00Z</time>
            </trkpt>
            <trkpt lon="99.257551" lat="13.544428">
                <ele>289.013550</ele>
                <time>2009-04-25T09:30:06Z</time>
            </trkpt>
            <trkpt lon="99.257742" lat="13.544213">
                <ele>287.090820</ele>
                <time>2009-04-25T09:30:11Z</time>
            </trkpt>
            <trkpt lon="99.258057" lat="13.543855">
                <ele>283.245606</ele>
                <time>2009-04-25T09:30:19Z</time>
            </trkpt>
            <trkpt lon="99.258303" lat="13.543589">
                <ele>280.842407</ele>
                <time>2009-04-25T09:30:24Z</time>
            </trkpt>
            <trkpt lon="99.258577" lat="13.543277">
                <ele>280.842407</ele>
                <time>2009-04-25T09:30:30Z</time>
            </trkpt>
            <trkpt lon="99.258763" lat="13.543047">
                <ele>277.477661</ele>
                <time>2009-04-25T09:30:35Z</time>
            </trkpt>
            <trkpt lon="99.258944" lat="13.542720">
                <ele>272.671143</ele>
                <time>2009-04-25T09:30:41Z</time>
            </trkpt>
            <trkpt lon="99.258962" lat="13.542660">
                <ele>272.671143</ele>
                <time>2009-04-25T09:30:42Z</time>
            </trkpt>
            <trkpt lon="99.259005" lat="13.542534">
                <ele>269.306519</ele>
                <time>2009-04-25T09:30:44Z</time>
            </trkpt>
            <trkpt lon="99.259072" lat="13.542343">
                <ele>267.383911</ele>
                <time>2009-04-25T09:30:47Z</time>
            </trkpt>
            <trkpt lon="99.259116" lat="13.542216">
                <ele>267.864502</ele>
                <time>2009-04-25T09:30:49Z</time>
            </trkpt>
            <trkpt lon="99.259094" lat="13.542035">
                <ele>272.671143</ele>
                <time>2009-04-25T09:30:53Z</time>
            </trkpt>
            <trkpt lon="99.259076" lat="13.541957">
                <ele>274.593750</ele>
                <time>2009-04-25T09:30:57Z</time>
            </trkpt>
            <trkpt lon="99.259126" lat="13.541775">
                <ele>276.997070</ele>
                <time>2009-04-25T09:31:08Z</time>
            </trkpt>
            <trkpt lon="99.259217" lat="13.541583">
                <ele>278.919678</ele>
                <time>2009-04-25T09:31:19Z</time>
            </trkpt>
            <trkpt lon="99.259283" lat="13.541419">
                <ele>279.880859</ele>
                <time>2009-04-25T09:31:28Z</time>
            </trkpt>
            <trkpt lon="99.259393" lat="13.541254">
                <ele>280.842407</ele>
                <time>2009-04-25T09:31:39Z</time>
            </trkpt>
            <trkpt lon="99.259425" lat="13.541128">
                <ele>281.803589</ele>
                <time>2009-04-25T09:31:50Z</time>
            </trkpt>
            <trkpt lon="99.259467" lat="13.540964">
                <ele>282.765015</ele>
                <time>2009-04-25T09:32:04Z</time>
            </trkpt>
            <trkpt lon="99.259451" lat="13.540826">
                <ele>283.245606</ele>
                <time>2009-04-25T09:32:16Z</time>
            </trkpt>
            <trkpt lon="99.259480" lat="13.540689">
                <ele>284.687622</ele>
                <time>2009-04-25T09:32:27Z</time>
            </trkpt>
            <trkpt lon="99.259535" lat="13.540539">
                <ele>287.571411</ele>
                <time>2009-04-25T09:32:40Z</time>
            </trkpt>
            <trkpt lon="99.259575" lat="13.540397">
                <ele>287.571411</ele>
                <time>2009-04-25T09:32:51Z</time>
            </trkpt>
            <trkpt lon="99.259658" lat="13.540210">
                <ele>288.532959</ele>
                <time>2009-04-25T09:33:05Z</time>
            </trkpt>
            <trkpt lon="99.259718" lat="13.540098">
                <ele>287.571411</ele>
                <time>2009-04-25T09:33:14Z</time>
            </trkpt>
            <trkpt lon="99.259791" lat="13.539962">
                <ele>289.494141</ele>
                <time>2009-04-25T09:33:26Z</time>
            </trkpt>
            <trkpt lon="99.259891" lat="13.539796">
                <ele>290.455566</ele>
                <time>2009-04-25T09:33:36Z</time>
            </trkpt>
            <trkpt lon="99.260050" lat="13.539531">
                <ele>291.416748</ele>
                <time>2009-04-25T09:33:49Z</time>
            </trkpt>
            <trkpt lon="99.260205" lat="13.539435">
                <ele>291.897461</ele>
                <time>2009-04-25T09:33:57Z</time>
            </trkpt>
            <trkpt lon="99.260393" lat="13.539468">
                <ele>290.936157</ele>
                <time>2009-04-25T09:34:03Z</time>
            </trkpt>
            <trkpt lon="99.260611" lat="13.539337">
                <ele>291.897461</ele>
                <time>2009-04-25T09:34:12Z</time>
            </trkpt>
            <trkpt lon="99.260672" lat="13.539129">
                <ele>292.378174</ele>
                <time>2009-04-25T09:34:19Z</time>
            </trkpt>
            <trkpt lon="99.260793" lat="13.538960">
                <ele>293.339356</ele>
                <time>2009-04-25T09:34:26Z</time>
            </trkpt>
            <trkpt lon="99.260951" lat="13.538836">
                <ele>295.261963</ele>
                <time>2009-04-25T09:34:34Z</time>
            </trkpt>
            <trkpt lon="99.260991" lat="13.538683">
                <ele>295.261963</ele>
                <time>2009-04-25T09:34:42Z</time>
            </trkpt>
            <trkpt lon="99.261003" lat="13.538462">
                <ele>291.897461</ele>
                <time>2009-04-25T09:34:51Z</time>
            </trkpt>
            <trkpt lon="99.261122" lat="13.538368">
                <ele>291.416748</ele>
                <time>2009-04-25T09:34:56Z</time>
            </trkpt>
            <trkpt lon="99.261303" lat="13.538207">
                <ele>290.455566</ele>
                <time>2009-04-25T09:35:04Z</time>
            </trkpt>
            <trkpt lon="99.261514" lat="13.537943">
                <ele>291.416748</ele>
                <time>2009-04-25T09:35:13Z</time>
            </trkpt>
            <trkpt lon="99.261579" lat="13.537834">
                <ele>291.416748</ele>
                <time>2009-04-25T09:35:19Z</time>
            </trkpt>
            <trkpt lon="99.261676" lat="13.537669">
                <ele>291.416748</ele>
                <time>2009-04-25T09:35:27Z</time>
            </trkpt>
            <trkpt lon="99.261767" lat="13.537533">
                <ele>289.494141</ele>
                <time>2009-04-25T09:35:32Z</time>
            </trkpt>
            <trkpt lon="99.261871" lat="13.537389">
                <ele>286.610230</ele>
                <time>2009-04-25T09:35:38Z</time>
            </trkpt>
            <trkpt lon="99.261908" lat="13.537333">
                <ele>284.206909</ele>
                <time>2009-04-25T09:35:40Z</time>
            </trkpt>
            <trkpt lon="99.261914" lat="13.537172">
                <ele>283.245606</ele>
                <time>2009-04-25T09:35:43Z</time>
            </trkpt>
            <trkpt lon="99.261922" lat="13.537061">
                <ele>282.765015</ele>
                <time>2009-04-25T09:35:45Z</time>
            </trkpt>
            <trkpt lon="99.261922" lat="13.537061">
                <ele>282.765015</ele>
                <time>2009-04-25T09:35:45Z</time>
            </trkpt>
            <trkpt lon="99.261890" lat="13.536846">
                <ele>281.322998</ele>
                <time>2009-04-25T09:35:50Z</time>
            </trkpt>
            <trkpt lon="99.261877" lat="13.536734">
                <ele>279.400269</ele>
                <time>2009-04-25T09:35:53Z</time>
            </trkpt>
            <trkpt lon="99.261840" lat="13.536524">
                <ele>278.438965</ele>
                <time>2009-04-25T09:35:58Z</time>
            </trkpt>
            <trkpt lon="99.261877" lat="13.536277">
                <ele>276.035644</ele>
                <time>2009-04-25T09:36:05Z</time>
            </trkpt>
            <trkpt lon="99.261923" lat="13.536200">
                <ele>274.593750</ele>
                <time>2009-04-25T09:36:07Z</time>
            </trkpt>
            <trkpt lon="99.261947" lat="13.536154">
                <ele>274.593750</ele>
                <time>2009-04-25T09:36:08Z</time>
            </trkpt>
            <trkpt lon="99.261994" lat="13.536021">
                <ele>273.151856</ele>
                <time>2009-04-25T09:36:11Z</time>
            </trkpt>
            <trkpt lon="99.262114" lat="13.535542">
                <ele>272.671143</ele>
                <time>2009-04-25T09:36:22Z</time>
            </trkpt>
            <trkpt lon="99.262092" lat="13.535190">
                <ele>273.151856</ele>
                <time>2009-04-25T09:36:35Z</time>
            </trkpt>
            <trkpt lon="99.262013" lat="13.535073">
                <ele>273.632446</ele>
                <time>2009-04-25T09:36:43Z</time>
            </trkpt>
            <trkpt lon="99.261978" lat="13.535027">
                <ele>275.074463</ele>
                <time>2009-04-25T09:36:51Z</time>
            </trkpt>
            <trkpt lon="99.261928" lat="13.534983">
                <ele>276.997070</ele>
                <time>2009-04-25T09:37:02Z</time>
            </trkpt>
            <trkpt lon="99.261871" lat="13.534928">
                <ele>278.919678</ele>
                <time>2009-04-25T09:37:15Z</time>
            </trkpt>
            <trkpt lon="99.261837" lat="13.534871">
                <ele>279.880859</ele>
                <time>2009-04-25T09:37:24Z</time>
            </trkpt>
            <trkpt lon="99.261830" lat="13.534879">
                <ele>279.400269</ele>
                <time>2009-04-25T09:37:38Z</time>
            </trkpt>
            <trkpt lon="99.261792" lat="13.534830">
                <ele>277.958252</ele>
                <time>2009-04-25T09:37:46Z</time>
            </trkpt>
            <trkpt lon="99.261680" lat="13.534707">
                <ele>280.361694</ele>
                <time>2009-04-25T09:37:57Z</time>
            </trkpt>
            <trkpt lon="99.261562" lat="13.534540">
                <ele>280.361694</ele>
                <time>2009-04-25T09:38:07Z</time>
            </trkpt>
            <trkpt lon="99.261507" lat="13.534475">
                <ele>281.322998</ele>
                <time>2009-04-25T09:38:15Z</time>
            </trkpt>
            <trkpt lon="99.261479" lat="13.534425">
                <ele>283.245606</ele>
                <time>2009-04-25T09:38:25Z</time>
            </trkpt>
            <trkpt lon="99.261450" lat="13.534399">
                <ele>283.726196</ele>
                <time>2009-04-25T09:38:34Z</time>
            </trkpt>
            <trkpt lon="99.261400" lat="13.534344">
                <ele>283.245606</ele>
                <time>2009-04-25T09:38:40Z</time>
            </trkpt>
            <trkpt lon="99.261291" lat="13.534208">
                <ele>285.168213</ele>
                <time>2009-04-25T09:38:51Z</time>
            </trkpt>
            <trkpt lon="99.261195" lat="13.534112">
                <ele>286.129517</ele>
                <time>2009-04-25T09:39:01Z</time>
            </trkpt>
            <trkpt lon="99.261065" lat="13.534065">
                <ele>286.129517</ele>
                <time>2009-04-25T09:39:11Z</time>
            </trkpt>
            <trkpt lon="99.260902" lat="13.534078">
                <ele>287.090820</ele>
                <time>2009-04-25T09:39:24Z</time>
            </trkpt>
            <trkpt lon="99.260732" lat="13.534115">
                <ele>289.013550</ele>
                <time>2009-04-25T09:39:36Z</time>
            </trkpt>
            <trkpt lon="99.260583" lat="13.534134">
                <ele>289.013550</ele>
                <time>2009-04-25T09:39:46Z</time>
            </trkpt>
            <trkpt lon="99.260409" lat="13.534083">
                <ele>289.974853</ele>
                <time>2009-04-25T09:39:52Z</time>
            </trkpt>
            <trkpt lon="99.260268" lat="13.534105">
                <ele>290.455566</ele>
                <time>2009-04-25T09:40:00Z</time>
            </trkpt>
            <trkpt lon="99.260119" lat="13.534175">
                <ele>289.974853</ele>
                <time>2009-04-25T09:40:13Z</time>
            </trkpt>
            <trkpt lon="99.260058" lat="13.534182">
                <ele>291.416748</ele>
                <time>2009-04-25T09:40:20Z</time>
            </trkpt>
            <trkpt lon="99.259996" lat="13.534166">
                <ele>291.897461</ele>
                <time>2009-04-25T09:40:25Z</time>
            </trkpt>
            <trkpt lon="99.259836" lat="13.534065">
                <ele>293.339356</ele>
                <time>2009-04-25T09:40:39Z</time>
            </trkpt>
            <trkpt lon="99.259630" lat="13.533976">
                <ele>294.300781</ele>
                <time>2009-04-25T09:40:53Z</time>
            </trkpt>
            <trkpt lon="99.259410" lat="13.533955">
                <ele>296.704102</ele>
                <time>2009-04-25T09:41:07Z</time>
            </trkpt>
            <trkpt lon="99.259306" lat="13.533938">
                <ele>297.184692</ele>
                <time>2009-04-25T09:41:14Z</time>
            </trkpt>
            <trkpt lon="99.259213" lat="13.533891">
                <ele>297.184692</ele>
                <time>2009-04-25T09:41:26Z</time>
            </trkpt>
            <trkpt lon="99.259203" lat="13.533885">
                <ele>297.665405</ele>
                <time>2009-04-25T09:43:58Z</time>
            </trkpt>
            <trkpt lon="99.259186" lat="13.533861">
                <ele>297.184692</ele>
                <time>2009-04-25T09:44:17Z</time>
            </trkpt>
            <trkpt lon="99.259178" lat="13.533864">
                <ele>299.107300</ele>
                <time>2009-04-25T09:44:51Z</time>
            </trkpt>
            <trkpt lon="99.259179" lat="13.533855">
                <ele>290.455566</ele>
                <time>2009-04-25T09:45:57Z</time>
            </trkpt>
            <trkpt lon="99.259179" lat="13.533855">
                <ele>314.007812</ele>
                <time>2009-04-25T09:45:58Z</time>
            </trkpt>
            <trkpt lon="99.259179" lat="13.533855">
                <ele>304.394653</ele>
                <time>2009-04-25T09:45:59Z</time>
            </trkpt>
            <trkpt lon="99.259174" lat="13.533861">
                <ele>301.991333</ele>
                <time>2009-04-25T09:46:01Z</time>
            </trkpt>
            <trkpt lon="99.259175" lat="13.533864">
                <ele>298.626709</ele>
                <time>2009-04-25T09:46:06Z</time>
            </trkpt>
            <trkpt lon="99.259175" lat="13.533864">
                <ele>299.588013</ele>
                <time>2009-04-25T09:46:07Z</time>
            </trkpt>
            <trkpt lon="99.259175" lat="13.533865">
                <ele>304.394653</ele>
                <time>2009-04-25T09:46:09Z</time>
            </trkpt>
            <trkpt lon="99.259171" lat="13.533870">
                <ele>301.029907</ele>
                <time>2009-04-25T09:46:34Z</time>
            </trkpt>
            <trkpt lon="99.259216" lat="13.533892">
                <ele>302.471924</ele>
                <time>2009-04-25T09:48:24Z</time>
            </trkpt>
            <trkpt lon="99.259245" lat="13.533899">
                <ele>301.991333</ele>
                <time>2009-04-25T09:53:58Z</time>
            </trkpt>
            <trkpt lon="99.259235" lat="13.533908">
                <ele>301.991333</ele>
                <time>2009-04-25T09:54:11Z</time>
            </trkpt>
            <trkpt lon="99.259254" lat="13.533902">
                <ele>301.510620</ele>
                <time>2009-04-25T09:54:46Z</time>
            </trkpt>
            <trkpt lon="99.259265" lat="13.533868">
                <ele>304.394653</ele>
                <time>2009-04-25T09:54:52Z</time>
            </trkpt>
            <trkpt lon="99.259279" lat="13.533832">
                <ele>305.355957</ele>
                <time>2009-04-25T09:54:57Z</time>
            </trkpt>
            <trkpt lon="99.259298" lat="13.533732">
                <ele>308.239868</ele>
                <time>2009-04-25T09:55:09Z</time>
            </trkpt>
            <trkpt lon="99.259349" lat="13.533683">
                <ele>309.681885</ele>
                <time>2009-04-25T09:55:20Z</time>
            </trkpt>
            <trkpt lon="99.259389" lat="13.533618">
                <ele>311.123779</ele>
                <time>2009-04-25T09:55:48Z</time>
            </trkpt>
            <trkpt lon="99.259456" lat="13.533550">
                <ele>312.565796</ele>
                <time>2009-04-25T09:56:01Z</time>
            </trkpt>
            <trkpt lon="99.259511" lat="13.533494">
                <ele>313.046509</ele>
                <time>2009-04-25T09:56:12Z</time>
            </trkpt>
            <trkpt lon="99.259513" lat="13.533488">
                <ele>319.295044</ele>
                <time>2009-04-25T09:56:27Z</time>
            </trkpt>
            <trkpt lon="99.259513" lat="13.533487">
                <ele>314.007812</ele>
                <time>2009-04-25T09:56:28Z</time>
            </trkpt>
            <trkpt lon="99.259536" lat="13.533411">
                <ele>314.488403</ele>
                <time>2009-04-25T09:56:55Z</time>
            </trkpt>
            <trkpt lon="99.259612" lat="13.533343">
                <ele>316.891724</ele>
                <time>2009-04-25T09:57:08Z</time>
            </trkpt>
            <trkpt lon="99.259675" lat="13.533332">
                <ele>317.853027</ele>
                <time>2009-04-25T09:57:18Z</time>
            </trkpt>
            <trkpt lon="99.259766" lat="13.533360">
                <ele>320.737060</ele>
                <time>2009-04-25T09:57:30Z</time>
            </trkpt>
            <trkpt lon="99.259817" lat="13.533383">
                <ele>320.737060</ele>
                <time>2009-04-25T09:57:39Z</time>
            </trkpt>
            <trkpt lon="99.259902" lat="13.533413">
                <ele>322.178955</ele>
                <time>2009-04-25T09:57:52Z</time>
            </trkpt>
            <trkpt lon="99.259964" lat="13.533439">
                <ele>322.659668</ele>
                <time>2009-04-25T09:58:01Z</time>
            </trkpt>
            <trkpt lon="99.260019" lat="13.533470">
                <ele>323.140381</ele>
                <time>2009-04-25T09:58:09Z</time>
            </trkpt>
            <trkpt lon="99.260068" lat="13.533490">
                <ele>323.620972</ele>
                <time>2009-04-25T09:58:15Z</time>
            </trkpt>
            <trkpt lon="99.260127" lat="13.533533">
                <ele>324.101562</ele>
                <time>2009-04-25T09:58:26Z</time>
            </trkpt>
            <trkpt lon="99.260196" lat="13.533579">
                <ele>323.620972</ele>
                <time>2009-04-25T09:58:43Z</time>
            </trkpt>
            <trkpt lon="99.260329" lat="13.533610">
                <ele>321.217773</ele>
                <time>2009-04-25T09:58:52Z</time>
            </trkpt>
            <trkpt lon="99.260360" lat="13.533609">
                <ele>320.256348</ele>
                <time>2009-04-25T09:58:54Z</time>
            </trkpt>
            <trkpt lon="99.260482" lat="13.533594">
                <ele>317.853027</ele>
                <time>2009-04-25T09:59:02Z</time>
            </trkpt>
            <trkpt lon="99.260599" lat="13.533565">
                <ele>315.449829</ele>
                <time>2009-04-25T09:59:08Z</time>
            </trkpt>
            <trkpt lon="99.260682" lat="13.533526">
                <ele>312.565796</ele>
                <time>2009-04-25T09:59:12Z</time>
            </trkpt>
            <trkpt lon="99.260879" lat="13.533449">
                <ele>309.201172</ele>
                <time>2009-04-25T09:59:20Z</time>
            </trkpt>
            <trkpt lon="99.261045" lat="13.533426">
                <ele>308.239868</ele>
                <time>2009-04-25T09:59:27Z</time>
            </trkpt>
            <trkpt lon="99.261253" lat="13.533439">
                <ele>307.759277</ele>
                <time>2009-04-25T09:59:36Z</time>
            </trkpt>
            <trkpt lon="99.261352" lat="13.533477">
                <ele>304.875244</ele>
                <time>2009-04-25T09:59:42Z</time>
            </trkpt>
            <trkpt lon="99.261445" lat="13.533488">
                <ele>302.952515</ele>
                <time>2009-04-25T09:59:46Z</time>
            </trkpt>
            <trkpt lon="99.261526" lat="13.533486">
                <ele>300.068726</ele>
                <time>2009-04-25T09:59:50Z</time>
            </trkpt>
            <trkpt lon="99.261588" lat="13.533486">
                <ele>298.626709</ele>
                <time>2009-04-25T09:59:53Z</time>
            </trkpt>
            <trkpt lon="99.261631" lat="13.533272">
                <ele>296.223511</ele>
                <time>2009-04-25T10:00:01Z</time>
            </trkpt>
            <trkpt lon="99.261630" lat="13.533169">
                <ele>295.261963</ele>
                <time>2009-04-25T10:00:05Z</time>
            </trkpt>
            <trkpt lon="99.261635" lat="13.532993">
                <ele>291.897461</ele>
                <time>2009-04-25T10:00:13Z</time>
            </trkpt>
            <trkpt lon="99.261630" lat="13.532975">
                <ele>291.897461</ele>
                <time>2009-04-25T10:00:14Z</time>
            </trkpt>
            <trkpt lon="99.261594" lat="13.532854">
                <ele>288.532959</ele>
                <time>2009-04-25T10:00:22Z</time>
            </trkpt>
            <trkpt lon="99.261590" lat="13.532832">
                <ele>286.610230</ele>
                <time>2009-04-25T10:00:25Z</time>
            </trkpt>
            <trkpt lon="99.261588" lat="13.532810">
                <ele>285.168213</ele>
                <time>2009-04-25T10:00:28Z</time>
            </trkpt>
            <trkpt lon="99.261579" lat="13.532776">
                <ele>282.284302</ele>
                <time>2009-04-25T10:00:32Z</time>
            </trkpt>
            <trkpt lon="99.261556" lat="13.532730">
                <ele>280.842407</ele>
                <time>2009-04-25T10:00:36Z</time>
            </trkpt>
            <trkpt lon="99.261523" lat="13.532670">
                <ele>276.997070</ele>
                <time>2009-04-25T10:00:40Z</time>
            </trkpt>
            <trkpt lon="99.261516" lat="13.532647">
                <ele>276.035644</ele>
                <time>2009-04-25T10:00:42Z</time>
            </trkpt>
            <trkpt lon="99.261476" lat="13.532568">
                <ele>272.190430</ele>
                <time>2009-04-25T10:00:48Z</time>
            </trkpt>
            <trkpt lon="99.261382" lat="13.532461">
                <ele>268.825806</ele>
                <time>2009-04-25T10:00:58Z</time>
            </trkpt>
            <trkpt lon="99.261373" lat="13.532394">
                <ele>265.461304</ele>
                <time>2009-04-25T10:01:03Z</time>
            </trkpt>
            <trkpt lon="99.261379" lat="13.532255">
                <ele>261.615967</ele>
                <time>2009-04-25T10:01:10Z</time>
            </trkpt>
            <trkpt lon="99.261384" lat="13.532241">
                <ele>261.615967</ele>
                <time>2009-04-25T10:01:11Z</time>
            </trkpt>
            <trkpt lon="99.261392" lat="13.532220">
                <ele>260.654541</ele>
                <time>2009-04-25T10:01:12Z</time>
            </trkpt>
            <trkpt lon="99.261354" lat="13.532134">
                <ele>257.290039</ele>
                <time>2009-04-25T10:01:16Z</time>
            </trkpt>
            <trkpt lon="99.261310" lat="13.532069">
                <ele>255.848023</ele>
                <time>2009-04-25T10:01:20Z</time>
            </trkpt>
            <trkpt lon="99.261296" lat="13.532026">
                <ele>254.886597</ele>
                <time>2009-04-25T10:01:22Z</time>
            </trkpt>
            <trkpt lon="99.261217" lat="13.531852">
                <ele>251.041382</ele>
                <time>2009-04-25T10:01:32Z</time>
            </trkpt>
            <trkpt lon="99.261184" lat="13.531791">
                <ele>247.676758</ele>
                <time>2009-04-25T10:01:37Z</time>
            </trkpt>
            <trkpt lon="99.261170" lat="13.531765">
                <ele>246.715454</ele>
                <time>2009-04-25T10:01:39Z</time>
            </trkpt>
            <trkpt lon="99.261128" lat="13.531688">
                <ele>243.831543</ele>
                <time>2009-04-25T10:01:46Z</time>
            </trkpt>
            <trkpt lon="99.261110" lat="13.531642">
                <ele>241.908936</ele>
                <time>2009-04-25T10:01:49Z</time>
            </trkpt>
            <trkpt lon="99.261088" lat="13.531595">
                <ele>239.986206</ele>
                <time>2009-04-25T10:01:52Z</time>
            </trkpt>
            <trkpt lon="99.261045" lat="13.531517">
                <ele>236.621704</ele>
                <time>2009-04-25T10:01:59Z</time>
            </trkpt>
            <trkpt lon="99.261002" lat="13.531460">
                <ele>233.257080</ele>
                <time>2009-04-25T10:02:04Z</time>
            </trkpt>
            <trkpt lon="99.260974" lat="13.531418">
                <ele>230.373047</ele>
                <time>2009-04-25T10:02:07Z</time>
            </trkpt>
            <trkpt lon="99.260956" lat="13.531364">
                <ele>228.450439</ele>
                <time>2009-04-25T10:02:10Z</time>
            </trkpt>
            <trkpt lon="99.260933" lat="13.531200">
                <ele>225.085938</ele>
                <time>2009-04-25T10:02:19Z</time>
            </trkpt>
            <trkpt lon="99.260923" lat="13.531157">
                <ele>223.163208</ele>
                <time>2009-04-25T10:02:22Z</time>
            </trkpt>
            <trkpt lon="99.260882" lat="13.531048">
                <ele>222.682495</ele>
                <time>2009-04-25T10:02:32Z</time>
            </trkpt>
            <trkpt lon="99.260855" lat="13.531025">
                <ele>223.163208</ele>
                <time>2009-04-25T10:02:38Z</time>
            </trkpt>
            <trkpt lon="99.260763" lat="13.530978">
                <ele>223.163208</ele>
                <time>2009-04-25T10:02:48Z</time>
            </trkpt>
            <trkpt lon="99.260741" lat="13.530965">
                <ele>222.682495</ele>
                <time>2009-04-25T10:02:54Z</time>
            </trkpt>
            <trkpt lon="99.260728" lat="13.530939">
                <ele>223.163208</ele>
                <time>2009-04-25T10:03:04Z</time>
            </trkpt>
            <trkpt lon="99.260732" lat="13.530922">
                <ele>222.682495</ele>
                <time>2009-04-25T10:03:08Z</time>
            </trkpt>
            <trkpt lon="99.260679" lat="13.530749">
                <ele>221.240601</ele>
                <time>2009-04-25T10:03:19Z</time>
            </trkpt>
            <trkpt lon="99.260573" lat="13.530584">
                <ele>220.759888</ele>
                <time>2009-04-25T10:03:28Z</time>
            </trkpt>
            <trkpt lon="99.260480" lat="13.530449">
                <ele>219.798584</ele>
                <time>2009-04-25T10:03:38Z</time>
            </trkpt>
            <trkpt lon="99.260328" lat="13.530231">
                <ele>217.875977</ele>
                <time>2009-04-25T10:03:52Z</time>
            </trkpt>
            <trkpt lon="99.260222" lat="13.530006">
                <ele>216.914673</ele>
                <time>2009-04-25T10:04:00Z</time>
            </trkpt>
            <trkpt lon="99.260120" lat="13.529751">
                <ele>215.953247</ele>
                <time>2009-04-25T10:04:07Z</time>
            </trkpt>
            <trkpt lon="99.260061" lat="13.529585">
                <ele>215.953247</ele>
                <time>2009-04-25T10:04:13Z</time>
            </trkpt>
            <trkpt lon="99.260026" lat="13.529413">
                <ele>215.953247</ele>
                <time>2009-04-25T10:04:22Z</time>
            </trkpt>
            <trkpt lon="99.260058" lat="13.529175">
                <ele>216.433960</ele>
                <time>2009-04-25T10:04:34Z</time>
            </trkpt>
            <trkpt lon="99.260085" lat="13.529007">
                <ele>216.914673</ele>
                <time>2009-04-25T10:04:43Z</time>
            </trkpt>
            <trkpt lon="99.260034" lat="13.528866">
                <ele>213.550049</ele>
                <time>2009-04-25T10:04:48Z</time>
            </trkpt>
            <trkpt lon="99.259991" lat="13.528755">
                <ele>210.185425</ele>
                <time>2009-04-25T10:04:51Z</time>
            </trkpt>
            <trkpt lon="99.259885" lat="13.528528">
                <ele>206.820679</ele>
                <time>2009-04-25T10:04:55Z</time>
            </trkpt>
            <trkpt lon="99.259595" lat="13.528037">
                <ele>206.820679</ele>
                <time>2009-04-25T10:05:03Z</time>
            </trkpt>
            <trkpt lon="99.259560" lat="13.527983">
                <ele>206.820679</ele>
                <time>2009-04-25T10:05:04Z</time>
            </trkpt>
            <trkpt lon="99.259487" lat="13.527800">
                <ele>208.743408</ele>
                <time>2009-04-25T10:05:09Z</time>
            </trkpt>
            <trkpt lon="99.259360" lat="13.527591">
                <ele>206.340088</ele>
                <time>2009-04-25T10:05:15Z</time>
            </trkpt>
            <trkpt lon="99.259245" lat="13.527484">
                <ele>207.782105</ele>
                <time>2009-04-25T10:05:18Z</time>
            </trkpt>
            <trkpt lon="99.259080" lat="13.527290">
                <ele>209.224121</ele>
                <time>2009-04-25T10:05:24Z</time>
            </trkpt>
            <trkpt lon="99.258967" lat="13.527058">
                <ele>208.262817</ele>
                <time>2009-04-25T10:05:33Z</time>
            </trkpt>
            <trkpt lon="99.259008" lat="13.526917">
                <ele>204.898071</ele>
                <time>2009-04-25T10:05:36Z</time>
            </trkpt>
            <trkpt lon="99.259028" lat="13.526863">
                <ele>204.417481</ele>
                <time>2009-04-25T10:05:37Z</time>
            </trkpt>
            <trkpt lon="99.259037" lat="13.526753">
                <ele>204.898071</ele>
                <time>2009-04-25T10:05:39Z</time>
            </trkpt>
            <trkpt lon="99.258916" lat="13.526467">
                <ele>203.456177</ele>
                <time>2009-04-25T10:05:44Z</time>
            </trkpt>
            <trkpt lon="99.258842" lat="13.526364">
                <ele>202.975464</ele>
                <time>2009-04-25T10:05:46Z</time>
            </trkpt>
            <trkpt lon="99.258445" lat="13.526084">
                <ele>202.014282</ele>
                <time>2009-04-25T10:05:55Z</time>
            </trkpt>
            <trkpt lon="99.258119" lat="13.525801">
                <ele>201.052856</ele>
                <time>2009-04-25T10:06:04Z</time>
            </trkpt>
            <trkpt lon="99.258058" lat="13.525683">
                <ele>200.572266</ele>
                <time>2009-04-25T10:06:07Z</time>
            </trkpt>
            <trkpt lon="99.258080" lat="13.525467">
                <ele>202.014282</ele>
                <time>2009-04-25T10:06:12Z</time>
            </trkpt>
            <trkpt lon="99.258082" lat="13.525378">
                <ele>202.014282</ele>
                <time>2009-04-25T10:06:14Z</time>
            </trkpt>
            <trkpt lon="99.258068" lat="13.525227">
                <ele>201.052856</ele>
                <time>2009-04-25T10:06:17Z</time>
            </trkpt>
            <trkpt lon="99.258037" lat="13.524723">
                <ele>197.688232</ele>
                <time>2009-04-25T10:06:26Z</time>
            </trkpt>
            <trkpt lon="99.258028" lat="13.524552">
                <ele>196.246338</ele>
                <time>2009-04-25T10:06:29Z</time>
            </trkpt>
            <trkpt lon="99.258002" lat="13.524253">
                <ele>196.726929</ele>
                <time>2009-04-25T10:06:35Z</time>
            </trkpt>
            <trkpt lon="99.257971" lat="13.524086">
                <ele>196.246338</ele>
                <time>2009-04-25T10:06:41Z</time>
            </trkpt>
            <trkpt lon="99.257837" lat="13.523871">
                <ele>194.323731</ele>
                <time>2009-04-25T10:06:46Z</time>
            </trkpt>
            <trkpt lon="99.257565" lat="13.523523">
                <ele>191.920288</ele>
                <time>2009-04-25T10:06:53Z</time>
            </trkpt>
            <trkpt lon="99.257312" lat="13.523219">
                <ele>190.478394</ele>
                <time>2009-04-25T10:07:00Z</time>
            </trkpt>
            <trkpt lon="99.257136" lat="13.523111">
                <ele>191.439575</ele>
                <time>2009-04-25T10:07:04Z</time>
            </trkpt>
            <trkpt lon="99.256956" lat="13.523016">
                <ele>190.958984</ele>
                <time>2009-04-25T10:07:09Z</time>
            </trkpt>
            <trkpt lon="99.256856" lat="13.522862">
                <ele>191.439575</ele>
                <time>2009-04-25T10:07:14Z</time>
            </trkpt>
            <trkpt lon="99.256725" lat="13.522579">
                <ele>191.920288</ele>
                <time>2009-04-25T10:07:21Z</time>
            </trkpt>
            <trkpt lon="99.256615" lat="13.522362">
                <ele>192.401123</ele>
                <time>2009-04-25T10:07:27Z</time>
            </trkpt>
            <trkpt lon="99.256557" lat="13.522261">
                <ele>192.401123</ele>
                <time>2009-04-25T10:07:33Z</time>
            </trkpt>
            <trkpt lon="99.256348" lat="13.521981">
                <ele>192.881714</ele>
                <time>2009-04-25T10:07:45Z</time>
            </trkpt>
            <trkpt lon="99.256189" lat="13.521790">
                <ele>190.958984</ele>
                <time>2009-04-25T10:07:51Z</time>
            </trkpt>
            <trkpt lon="99.255962" lat="13.521657">
                <ele>189.036377</ele>
                <time>2009-04-25T10:07:56Z</time>
            </trkpt>
            <trkpt lon="99.255637" lat="13.521401">
                <ele>191.439575</ele>
                <time>2009-04-25T10:08:04Z</time>
            </trkpt>
            <trkpt lon="99.255610" lat="13.521381">
                <ele>191.439575</ele>
                <time>2009-04-25T10:08:05Z</time>
            </trkpt>
            <trkpt lon="99.255336" lat="13.521175">
                <ele>190.478394</ele>
                <time>2009-04-25T10:08:15Z</time>
            </trkpt>
            <trkpt lon="99.255188" lat="13.521061">
                <ele>189.036377</ele>
                <time>2009-04-25T10:08:19Z</time>
            </trkpt>
            <trkpt lon="99.255032" lat="13.520896">
                <ele>190.478394</ele>
                <time>2009-04-25T10:08:25Z</time>
            </trkpt>
            <trkpt lon="99.255002" lat="13.520861">
                <ele>190.478394</ele>
                <time>2009-04-25T10:08:31Z</time>
            </trkpt>
            <trkpt lon="99.254964" lat="13.520812">
                <ele>190.958984</ele>
                <time>2009-04-25T10:09:24Z</time>
            </trkpt>
            <trkpt lon="99.254839" lat="13.520728">
                <ele>187.594360</ele>
                <time>2009-04-25T10:09:31Z</time>
            </trkpt>
            <trkpt lon="99.254798" lat="13.520706">
                <ele>187.594360</ele>
                <time>2009-04-25T10:09:32Z</time>
            </trkpt>
            <trkpt lon="99.254648" lat="13.520626">
                <ele>185.671753</ele>
                <time>2009-04-25T10:09:35Z</time>
            </trkpt>
            <trkpt lon="99.254458" lat="13.520520">
                <ele>186.152466</ele>
                <time>2009-04-25T10:09:39Z</time>
            </trkpt>
            <trkpt lon="99.253867" lat="13.520160">
                <ele>187.594360</ele>
                <time>2009-04-25T10:09:54Z</time>
            </trkpt>
            <trkpt lon="99.253763" lat="13.520111">
                <ele>187.594360</ele>
                <time>2009-04-25T10:09:57Z</time>
            </trkpt>
            <trkpt lon="99.253476" lat="13.520183">
                <ele>188.075073</ele>
                <time>2009-04-25T10:10:05Z</time>
            </trkpt>
            <trkpt lon="99.253224" lat="13.520116">
                <ele>189.036377</ele>
                <time>2009-04-25T10:10:12Z</time>
            </trkpt>
            <trkpt lon="99.252909" lat="13.519942">
                <ele>187.113769</ele>
                <time>2009-04-25T10:10:21Z</time>
            </trkpt>
            <trkpt lon="99.252618" lat="13.519794">
                <ele>184.229858</ele>
                <time>2009-04-25T10:10:28Z</time>
            </trkpt>
            <trkpt lon="99.252481" lat="13.519721">
                <ele>182.787842</ele>
                <time>2009-04-25T10:10:31Z</time>
            </trkpt>
            <trkpt lon="99.252314" lat="13.519643">
                <ele>182.307129</ele>
                <time>2009-04-25T10:10:36Z</time>
            </trkpt>
            <trkpt lon="99.252134" lat="13.519768">
                <ele>182.307129</ele>
                <time>2009-04-25T10:10:43Z</time>
            </trkpt>
            <trkpt lon="99.251880" lat="13.520106">
                <ele>183.749023</ele>
                <time>2009-04-25T10:10:55Z</time>
            </trkpt>
            <trkpt lon="99.251647" lat="13.520440">
                <ele>184.229858</ele>
                <time>2009-04-25T10:11:07Z</time>
            </trkpt>
            <trkpt lon="99.251435" lat="13.520743">
                <ele>186.633179</ele>
                <time>2009-04-25T10:11:18Z</time>
            </trkpt>
            <trkpt lon="99.251426" lat="13.520759">
                <ele>186.633179</ele>
                <time>2009-04-25T10:11:19Z</time>
            </trkpt>
            <trkpt lon="99.251383" lat="13.520861">
                <ele>189.516968</ele>
                <time>2009-04-25T10:11:25Z</time>
            </trkpt>
            <trkpt lon="99.251282" lat="13.520983">
                <ele>190.958984</ele>
                <time>2009-04-25T10:11:33Z</time>
            </trkpt>
            <trkpt lon="99.251190" lat="13.521177">
                <ele>190.958984</ele>
                <time>2009-04-25T10:11:43Z</time>
            </trkpt>
            <trkpt lon="99.251031" lat="13.521539">
                <ele>190.478394</ele>
                <time>2009-04-25T10:11:57Z</time>
            </trkpt>
            <trkpt lon="99.250860" lat="13.521783">
                <ele>191.920288</ele>
                <time>2009-04-25T10:12:06Z</time>
            </trkpt>
            <trkpt lon="99.250681" lat="13.522053">
                <ele>193.362305</ele>
                <time>2009-04-25T10:12:18Z</time>
            </trkpt>
            <trkpt lon="99.250495" lat="13.522388">
                <ele>193.362305</ele>
                <time>2009-04-25T10:12:33Z</time>
            </trkpt>
            <trkpt lon="99.250351" lat="13.522673">
                <ele>192.401123</ele>
                <time>2009-04-25T10:12:41Z</time>
            </trkpt>
            <trkpt lon="99.250131" lat="13.523180">
                <ele>191.920288</ele>
                <time>2009-04-25T10:12:53Z</time>
            </trkpt>
            <trkpt lon="99.250097" lat="13.523527">
                <ele>192.401123</ele>
                <time>2009-04-25T10:13:01Z</time>
            </trkpt>
            <trkpt lon="99.250125" lat="13.523770">
                <ele>191.439575</ele>
                <time>2009-04-25T10:13:07Z</time>
            </trkpt>
            <trkpt lon="99.250048" lat="13.523972">
                <ele>191.439575</ele>
                <time>2009-04-25T10:13:12Z</time>
            </trkpt>
            <trkpt lon="99.249877" lat="13.524139">
                <ele>193.843018</ele>
                <time>2009-04-25T10:13:19Z</time>
            </trkpt>
            <trkpt lon="99.249638" lat="13.524452">
                <ele>194.804321</ele>
                <time>2009-04-25T10:13:30Z</time>
            </trkpt>
            <trkpt lon="99.249364" lat="13.524890">
                <ele>192.401123</ele>
                <time>2009-04-25T10:13:43Z</time>
            </trkpt>
            <trkpt lon="99.249289" lat="13.525007">
                <ele>190.958984</ele>
                <time>2009-04-25T10:13:46Z</time>
            </trkpt>
            <trkpt lon="99.248956" lat="13.525499">
                <ele>192.401123</ele>
                <time>2009-04-25T10:13:59Z</time>
            </trkpt>
            <trkpt lon="99.248820" lat="13.525777">
                <ele>195.284912</ele>
                <time>2009-04-25T10:14:08Z</time>
            </trkpt>
            <trkpt lon="99.248765" lat="13.526051">
                <ele>196.726929</ele>
                <time>2009-04-25T10:14:18Z</time>
            </trkpt>
            <trkpt lon="99.248713" lat="13.526333">
                <ele>196.726929</ele>
                <time>2009-04-25T10:14:29Z</time>
            </trkpt>
            <trkpt lon="99.248595" lat="13.526638">
                <ele>194.804321</ele>
                <time>2009-04-25T10:14:39Z</time>
            </trkpt>
            <trkpt lon="99.248396" lat="13.526898">
                <ele>194.323731</ele>
                <time>2009-04-25T10:14:47Z</time>
            </trkpt>
            <trkpt lon="99.248115" lat="13.527238">
                <ele>195.284912</ele>
                <time>2009-04-25T10:14:59Z</time>
            </trkpt>
            <trkpt lon="99.247841" lat="13.527549">
                <ele>195.765625</ele>
                <time>2009-04-25T10:15:10Z</time>
            </trkpt>
            <trkpt lon="99.247636" lat="13.527845">
                <ele>196.246338</ele>
                <time>2009-04-25T10:15:21Z</time>
            </trkpt>
            <trkpt lon="99.247551" lat="13.528035">
                <ele>193.843018</ele>
                <time>2009-04-25T10:15:27Z</time>
            </trkpt>
            <trkpt lon="99.247484" lat="13.528226">
                <ele>190.958984</ele>
                <time>2009-04-25T10:15:31Z</time>
            </trkpt>
            <trkpt lon="99.247433" lat="13.528328">
                <ele>190.478394</ele>
                <time>2009-04-25T10:15:33Z</time>
            </trkpt>
            <trkpt lon="99.247251" lat="13.528638">
                <ele>193.362305</ele>
                <time>2009-04-25T10:15:41Z</time>
            </trkpt>
            <trkpt lon="99.247192" lat="13.528740">
                <ele>196.726929</ele>
                <time>2009-04-25T10:15:45Z</time>
            </trkpt>
            <trkpt lon="99.247145" lat="13.528861">
                <ele>197.688232</ele>
                <time>2009-04-25T10:15:52Z</time>
            </trkpt>
            <trkpt lon="99.247085" lat="13.529054">
                <ele>198.168945</ele>
                <time>2009-04-25T10:16:01Z</time>
            </trkpt>
            <trkpt lon="99.246974" lat="13.529407">
                <ele>199.610840</ele>
                <time>2009-04-25T10:16:17Z</time>
            </trkpt>
            <trkpt lon="99.246930" lat="13.529720">
                <ele>200.091675</ele>
                <time>2009-04-25T10:16:31Z</time>
            </trkpt>
            <trkpt lon="99.246925" lat="13.530076">
                <ele>202.014282</ele>
                <time>2009-04-25T10:16:47Z</time>
            </trkpt>
            <trkpt lon="99.246929" lat="13.530382">
                <ele>202.975464</ele>
                <time>2009-04-25T10:17:01Z</time>
            </trkpt>
            <trkpt lon="99.246911" lat="13.530635">
                <ele>204.417481</ele>
                <time>2009-04-25T10:17:14Z</time>
            </trkpt>
            <trkpt lon="99.246944" lat="13.530875">
                <ele>205.378784</ele>
                <time>2009-04-25T10:17:27Z</time>
            </trkpt>
            <trkpt lon="99.247003" lat="13.531089">
                <ele>204.898071</ele>
                <time>2009-04-25T10:17:39Z</time>
            </trkpt>
            <trkpt lon="99.247028" lat="13.531229">
                <ele>204.898071</ele>
                <time>2009-04-25T10:17:44Z</time>
            </trkpt>
            <trkpt lon="99.247066" lat="13.531454">
                <ele>201.052856</ele>
                <time>2009-04-25T10:17:48Z</time>
            </trkpt>
            <trkpt lon="99.247062" lat="13.531671">
                <ele>204.898071</ele>
                <time>2009-04-25T10:17:53Z</time>
            </trkpt>
            <trkpt lon="99.247062" lat="13.531776">
                <ele>205.378784</ele>
                <time>2009-04-25T10:17:59Z</time>
            </trkpt>
            <trkpt lon="99.247029" lat="13.532065">
                <ele>205.859497</ele>
                <time>2009-04-25T10:18:10Z</time>
            </trkpt>
            <trkpt lon="99.247000" lat="13.532453">
                <ele>204.417481</ele>
                <time>2009-04-25T10:18:20Z</time>
            </trkpt>
            <trkpt lon="99.246985" lat="13.532897">
                <ele>202.494873</ele>
                <time>2009-04-25T10:18:28Z</time>
            </trkpt>
            <trkpt lon="99.246976" lat="13.533021">
                <ele>202.975464</ele>
                <time>2009-04-25T10:18:30Z</time>
            </trkpt>
            <trkpt lon="99.246869" lat="13.533153">
                <ele>202.494873</ele>
                <time>2009-04-25T10:18:33Z</time>
            </trkpt>
            <trkpt lon="99.246750" lat="13.533101">
                <ele>203.456177</ele>
                <time>2009-04-25T10:18:36Z</time>
            </trkpt>
            <trkpt lon="99.246717" lat="13.533053">
                <ele>203.936890</ele>
                <time>2009-04-25T10:18:38Z</time>
            </trkpt>
            <trkpt lon="99.246503" lat="13.532799">
                <ele>204.417481</ele>
                <time>2009-04-25T10:18:50Z</time>
            </trkpt>
            <trkpt lon="99.246429" lat="13.532560">
                <ele>204.898071</ele>
                <time>2009-04-25T10:18:59Z</time>
            </trkpt>
            <trkpt lon="99.246371" lat="13.532334">
                <ele>204.417481</ele>
                <time>2009-04-25T10:19:08Z</time>
            </trkpt>
            <trkpt lon="99.246242" lat="13.532235">
                <ele>204.898071</ele>
                <time>2009-04-25T10:19:13Z</time>
            </trkpt>
            <trkpt lon="99.246059" lat="13.532226">
                <ele>204.417481</ele>
                <time>2009-04-25T10:19:17Z</time>
            </trkpt>
            <trkpt lon="99.245967" lat="13.532239">
                <ele>203.936890</ele>
                <time>2009-04-25T10:19:19Z</time>
            </trkpt>
            <trkpt lon="99.245616" lat="13.532358">
                <ele>202.975464</ele>
                <time>2009-04-25T10:19:27Z</time>
            </trkpt>
            <trkpt lon="99.245396" lat="13.532416">
                <ele>204.898071</ele>
                <time>2009-04-25T10:19:32Z</time>
            </trkpt>
            <trkpt lon="99.245271" lat="13.532449">
                <ele>206.340088</ele>
                <time>2009-04-25T10:19:38Z</time>
            </trkpt>
            <trkpt lon="99.245105" lat="13.532501">
                <ele>207.301392</ele>
                <time>2009-04-25T10:19:47Z</time>
            </trkpt>
            <trkpt lon="99.244981" lat="13.532521">
                <ele>207.301392</ele>
                <time>2009-04-25T10:19:57Z</time>
            </trkpt>
            <trkpt lon="99.244987" lat="13.532530">
                <ele>207.782105</ele>
                <time>2009-04-25T10:20:43Z</time>
            </trkpt>
            <trkpt lon="99.244953" lat="13.532498">
                <ele>207.301392</ele>
                <time>2009-04-25T10:20:55Z</time>
            </trkpt>
            <trkpt lon="99.244976" lat="13.532500">
                <ele>207.301392</ele>
                <time>2009-04-25T10:21:15Z</time>
            </trkpt>
            <trkpt lon="99.244927" lat="13.532540">
                <ele>206.340088</ele>
                <time>2009-04-25T10:21:29Z</time>
            </trkpt>
            <trkpt lon="99.244692" lat="13.532642">
                <ele>205.859497</ele>
                <time>2009-04-25T10:21:37Z</time>
            </trkpt>
            <trkpt lon="99.244591" lat="13.532736">
                <ele>203.936890</ele>
                <time>2009-04-25T10:21:40Z</time>
            </trkpt>
            <trkpt lon="99.244305" lat="13.533020">
                <ele>202.975464</ele>
                <time>2009-04-25T10:21:47Z</time>
            </trkpt>
            <trkpt lon="99.244030" lat="13.533274">
                <ele>203.456177</ele>
                <time>2009-04-25T10:21:53Z</time>
            </trkpt>
            <trkpt lon="99.243936" lat="13.533361">
                <ele>200.572266</ele>
                <time>2009-04-25T10:21:55Z</time>
            </trkpt>
            <trkpt lon="99.243890" lat="13.533405">
                <ele>200.091675</ele>
                <time>2009-04-25T10:21:56Z</time>
            </trkpt>
            <trkpt lon="99.243603" lat="13.533658">
                <ele>199.610840</ele>
                <time>2009-04-25T10:22:02Z</time>
            </trkpt>
            <trkpt lon="99.243096" lat="13.534006">
                <ele>202.014282</ele>
                <time>2009-04-25T10:22:11Z</time>
            </trkpt>
            <trkpt lon="99.242936" lat="13.534092">
                <ele>204.417481</ele>
                <time>2009-04-25T10:22:16Z</time>
            </trkpt>
            <trkpt lon="99.242781" lat="13.534258">
                <ele>204.898071</ele>
                <time>2009-04-25T10:22:24Z</time>
            </trkpt>
            <trkpt lon="99.242513" lat="13.534689">
                <ele>204.898071</ele>
                <time>2009-04-25T10:22:37Z</time>
            </trkpt>
            <trkpt lon="99.242366" lat="13.534849">
                <ele>206.820679</ele>
                <time>2009-04-25T10:22:44Z</time>
            </trkpt>
            <trkpt lon="99.242249" lat="13.535066">
                <ele>208.262817</ele>
                <time>2009-04-25T10:22:54Z</time>
            </trkpt>
            <trkpt lon="99.242110" lat="13.535371">
                <ele>210.185425</ele>
                <time>2009-04-25T10:23:10Z</time>
            </trkpt>
            <trkpt lon="99.242004" lat="13.535530">
                <ele>211.146728</ele>
                <time>2009-04-25T10:23:22Z</time>
            </trkpt>
            <trkpt lon="99.241910" lat="13.535676">
                <ele>210.666016</ele>
                <time>2009-04-25T10:23:34Z</time>
            </trkpt>
            <trkpt lon="99.241824" lat="13.535896">
                <ele>212.108032</ele>
                <time>2009-04-25T10:23:50Z</time>
            </trkpt>
            <trkpt lon="99.241981" lat="13.536007">
                <ele>212.108032</ele>
                <time>2009-04-25T10:23:53Z</time>
            </trkpt>
            <trkpt lon="99.241992" lat="13.536136">
                <ele>213.069336</ele>
                <time>2009-04-25T10:24:00Z</time>
            </trkpt>
            <trkpt lon="99.241973" lat="13.536165">
                <ele>213.069336</ele>
                <time>2009-04-25T10:24:02Z</time>
            </trkpt>
            <trkpt lon="99.241918" lat="13.536235">
                <ele>214.030640</ele>
                <time>2009-04-25T10:24:07Z</time>
            </trkpt>
            <trkpt lon="99.241821" lat="13.536291">
                <ele>214.991943</ele>
                <time>2009-04-25T10:24:12Z</time>
            </trkpt>
            <trkpt lon="99.241792" lat="13.536355">
                <ele>215.472656</ele>
                <time>2009-04-25T10:24:17Z</time>
            </trkpt>
            <trkpt lon="99.241757" lat="13.536405">
                <ele>215.953247</ele>
                <time>2009-04-25T10:24:21Z</time>
            </trkpt>
            <trkpt lon="99.241726" lat="13.536431">
                <ele>214.991943</ele>
                <time>2009-04-25T10:24:23Z</time>
            </trkpt>
            <trkpt lon="99.241603" lat="13.536595">
                <ele>215.472656</ele>
                <time>2009-04-25T10:24:32Z</time>
            </trkpt>
            <trkpt lon="99.241381" lat="13.536850">
                <ele>216.433960</ele>
                <time>2009-04-25T10:24:44Z</time>
            </trkpt>
            <trkpt lon="99.241156" lat="13.537089">
                <ele>216.914673</ele>
                <time>2009-04-25T10:24:57Z</time>
            </trkpt>
            <trkpt lon="99.240984" lat="13.537346">
                <ele>216.433960</ele>
                <time>2009-04-25T10:25:06Z</time>
            </trkpt>
            <trkpt lon="99.240804" lat="13.537534">
                <ele>217.395386</ele>
                <time>2009-04-25T10:25:14Z</time>
            </trkpt>
            <trkpt lon="99.240522" lat="13.537747">
                <ele>218.837280</ele>
                <time>2009-04-25T10:25:27Z</time>
            </trkpt>
            <trkpt lon="99.240268" lat="13.537967">
                <ele>220.759888</ele>
                <time>2009-04-25T10:25:41Z</time>
            </trkpt>
            <trkpt lon="99.240030" lat="13.538106">
                <ele>223.163208</ele>
                <time>2009-04-25T10:25:52Z</time>
            </trkpt>
            <trkpt lon="99.239915" lat="13.538235">
                <ele>223.163208</ele>
                <time>2009-04-25T10:26:02Z</time>
            </trkpt>
            <trkpt lon="99.239776" lat="13.538403">
                <ele>219.798584</ele>
                <time>2009-04-25T10:26:11Z</time>
            </trkpt>
            <trkpt lon="99.239625" lat="13.538581">
                <ele>217.875977</ele>
                <time>2009-04-25T10:26:16Z</time>
            </trkpt>
            <trkpt lon="99.239290" lat="13.539005">
                <ele>217.395386</ele>
                <time>2009-04-25T10:26:24Z</time>
            </trkpt>
            <trkpt lon="99.239133" lat="13.539175">
                <ele>219.798584</ele>
                <time>2009-04-25T10:26:29Z</time>
            </trkpt>
            <trkpt lon="99.238959" lat="13.539392">
                <ele>221.240601</ele>
                <time>2009-04-25T10:26:40Z</time>
            </trkpt>
            <trkpt lon="99.238775" lat="13.539749">
                <ele>223.163208</ele>
                <time>2009-04-25T10:26:56Z</time>
            </trkpt>
            <trkpt lon="99.238658" lat="13.540061">
                <ele>223.643799</ele>
                <time>2009-04-25T10:27:11Z</time>
            </trkpt>
            <trkpt lon="99.238532" lat="13.540246">
                <ele>225.566528</ele>
                <time>2009-04-25T10:27:21Z</time>
            </trkpt>
            <trkpt lon="99.238507" lat="13.540316">
                <ele>226.047119</ele>
                <time>2009-04-25T10:27:24Z</time>
            </trkpt>
            <trkpt lon="99.238326" lat="13.540476">
                <ele>227.969727</ele>
                <time>2009-04-25T10:27:34Z</time>
            </trkpt>
            <trkpt lon="99.238243" lat="13.540696">
                <ele>227.969727</ele>
                <time>2009-04-25T10:27:46Z</time>
            </trkpt>
            <trkpt lon="99.238256" lat="13.540932">
                <ele>225.566528</ele>
                <time>2009-04-25T10:27:55Z</time>
            </trkpt>
            <trkpt lon="99.238139" lat="13.541076">
                <ele>225.085938</ele>
                <time>2009-04-25T10:27:59Z</time>
            </trkpt>
            <trkpt lon="99.237831" lat="13.541641">
                <ele>225.085938</ele>
                <time>2009-04-25T10:28:11Z</time>
            </trkpt>
            <trkpt lon="99.237727" lat="13.541984">
                <ele>227.489136</ele>
                <time>2009-04-25T10:28:20Z</time>
            </trkpt>
            <trkpt lon="99.237681" lat="13.542295">
                <ele>228.931152</ele>
                <time>2009-04-25T10:28:32Z</time>
            </trkpt>
            <trkpt lon="99.237653" lat="13.542459">
                <ele>230.373047</ele>
                <time>2009-04-25T10:28:41Z</time>
            </trkpt>
            <trkpt lon="99.237602" lat="13.542760">
                <ele>230.853760</ele>
                <time>2009-04-25T10:28:57Z</time>
            </trkpt>
            <trkpt lon="99.237498" lat="13.543087">
                <ele>232.295776</ele>
                <time>2009-04-25T10:29:14Z</time>
            </trkpt>
            <trkpt lon="99.237425" lat="13.543226">
                <ele>232.295776</ele>
                <time>2009-04-25T10:29:20Z</time>
            </trkpt>
            <trkpt lon="99.237313" lat="13.543525">
                <ele>233.737671</ele>
                <time>2009-04-25T10:29:32Z</time>
            </trkpt>
            <trkpt lon="99.237280" lat="13.543853">
                <ele>235.660278</ele>
                <time>2009-04-25T10:29:45Z</time>
            </trkpt>
            <trkpt lon="99.237254" lat="13.544071">
                <ele>237.102295</ele>
                <time>2009-04-25T10:29:55Z</time>
            </trkpt>
            <trkpt lon="99.237283" lat="13.544420">
                <ele>239.024902</ele>
                <time>2009-04-25T10:30:11Z</time>
            </trkpt>
            <trkpt lon="99.237299" lat="13.544626">
                <ele>240.467041</ele>
                <time>2009-04-25T10:30:24Z</time>
            </trkpt>
            <trkpt lon="99.237309" lat="13.544719">
                <ele>241.908936</ele>
                <time>2009-04-25T10:30:29Z</time>
            </trkpt>
            <trkpt lon="99.237346" lat="13.544877">
                <ele>243.831543</ele>
                <time>2009-04-25T10:30:40Z</time>
            </trkpt>
            <trkpt lon="99.237397" lat="13.544944">
                <ele>243.831543</ele>
                <time>2009-04-25T10:30:50Z</time>
            </trkpt>
            <trkpt lon="99.237497" lat="13.545071">
                <ele>244.792847</ele>
                <time>2009-04-25T10:31:52Z</time>
            </trkpt>
            <trkpt lon="99.237441" lat="13.544981">
                <ele>245.754150</ele>
                <time>2009-04-25T10:32:36Z</time>
            </trkpt>
            <trkpt lon="99.237552" lat="13.545072">
                <ele>248.157593</ele>
                <time>2009-04-25T10:32:54Z</time>
            </trkpt>
            <trkpt lon="99.237650" lat="13.545153">
                <ele>250.080200</ele>
                <time>2009-04-25T10:33:10Z</time>
            </trkpt>
            <trkpt lon="99.237697" lat="13.545248">
                <ele>250.560791</ele>
                <time>2009-04-25T10:33:21Z</time>
            </trkpt>
            <trkpt lon="99.237730" lat="13.545432">
                <ele>250.560791</ele>
                <time>2009-04-25T10:33:38Z</time>
            </trkpt>
            <trkpt lon="99.237720" lat="13.545444">
                <ele>250.560791</ele>
                <time>2009-04-25T10:33:50Z</time>
            </trkpt>
            <trkpt lon="99.237596" lat="13.545399">
                <ele>251.041382</ele>
                <time>2009-04-25T10:34:56Z</time>
            </trkpt>
            <trkpt lon="99.237589" lat="13.545381">
                <ele>251.522095</ele>
                <time>2009-04-25T10:36:08Z</time>
            </trkpt>
            <trkpt lon="99.237799" lat="13.545475">
                <ele>251.522095</ele>
                <time>2009-04-25T10:36:15Z</time>
            </trkpt>
            <trkpt lon="99.237869" lat="13.545482">
                <ele>251.041382</ele>
                <time>2009-04-25T10:36:28Z</time>
            </trkpt>
            <trkpt lon="99.237832" lat="13.545473">
                <ele>251.522095</ele>
                <time>2009-04-25T10:37:23Z</time>
            </trkpt>
            <trkpt lon="99.237797" lat="13.545497">
                <ele>251.041382</ele>
                <time>2009-04-25T10:38:06Z</time>
            </trkpt>
            <trkpt lon="99.237775" lat="13.545555">
                <ele>253.925415</ele>
                <time>2009-04-25T10:38:30Z</time>
            </trkpt>
            <trkpt lon="99.237759" lat="13.545823">
                <ele>256.328735</ele>
                <time>2009-04-25T10:39:04Z</time>
            </trkpt>
            <trkpt lon="99.237661" lat="13.545971">
                <ele>259.212647</ele>
                <time>2009-04-25T10:39:24Z</time>
            </trkpt>
            <trkpt lon="99.237599" lat="13.546039">
                <ele>259.693359</ele>
                <time>2009-04-25T10:39:32Z</time>
            </trkpt>
            <trkpt lon="99.237588" lat="13.546228">
                <ele>262.096558</ele>
                <time>2009-04-25T10:39:46Z</time>
            </trkpt>
            <trkpt lon="99.237595" lat="13.546262">
                <ele>262.096558</ele>
                <time>2009-04-25T10:39:49Z</time>
            </trkpt>
            <trkpt lon="99.237657" lat="13.546423">
                <ele>263.057861</ele>
                <time>2009-04-25T10:40:04Z</time>
            </trkpt>
            <trkpt lon="99.237689" lat="13.546532">
                <ele>263.538574</ele>
                <time>2009-04-25T10:40:17Z</time>
            </trkpt>
            <trkpt lon="99.237719" lat="13.546573">
                <ele>264.019287</ele>
                <time>2009-04-25T10:40:47Z</time>
            </trkpt>
            <trkpt lon="99.237775" lat="13.546671">
                <ele>264.499878</ele>
                <time>2009-04-25T10:40:57Z</time>
            </trkpt>
            <trkpt lon="99.237987" lat="13.547016">
                <ele>268.345093</ele>
                <time>2009-04-25T10:41:30Z</time>
            </trkpt>
            <trkpt lon="99.237950" lat="13.547285">
                <ele>269.306519</ele>
                <time>2009-04-25T10:41:44Z</time>
            </trkpt>
            <trkpt lon="99.237950" lat="13.547558">
                <ele>270.267700</ele>
                <time>2009-04-25T10:41:58Z</time>
            </trkpt>
            <trkpt lon="99.237983" lat="13.547830">
                <ele>271.229126</ele>
                <time>2009-04-25T10:42:10Z</time>
            </trkpt>
            <trkpt lon="99.237983" lat="13.548251">
                <ele>272.190430</ele>
                <time>2009-04-25T10:42:31Z</time>
            </trkpt>
            <trkpt lon="99.237981" lat="13.548551">
                <ele>273.632446</ele>
                <time>2009-04-25T10:42:45Z</time>
            </trkpt>
            <trkpt lon="99.238031" lat="13.548874">
                <ele>274.593750</ele>
                <time>2009-04-25T10:43:01Z</time>
            </trkpt>
            <trkpt lon="99.238095" lat="13.549211">
                <ele>275.074463</ele>
                <time>2009-04-25T10:43:17Z</time>
            </trkpt>
            <trkpt lon="99.238175" lat="13.549630">
                <ele>275.555054</ele>
                <time>2009-04-25T10:43:35Z</time>
            </trkpt>
            <trkpt lon="99.238348" lat="13.549995">
                <ele>277.958252</ele>
                <time>2009-04-25T10:43:53Z</time>
            </trkpt>
            <trkpt lon="99.238381" lat="13.550028">
                <ele>276.997070</ele>
                <time>2009-04-25T10:43:55Z</time>
            </trkpt>
            <trkpt lon="99.238405" lat="13.550101">
                <ele>275.555054</ele>
                <time>2009-04-25T10:43:57Z</time>
            </trkpt>
            <trkpt lon="99.238311" lat="13.550243">
                <ele>272.671143</ele>
                <time>2009-04-25T10:44:01Z</time>
            </trkpt>
            <trkpt lon="99.238070" lat="13.550212">
                <ele>268.345093</ele>
                <time>2009-04-25T10:44:05Z</time>
            </trkpt>
            <trkpt lon="99.237997" lat="13.550190">
                <ele>268.345093</ele>
                <time>2009-04-25T10:44:06Z</time>
            </trkpt>
            <trkpt lon="99.237511" lat="13.550181">
                <ele>267.383911</ele>
                <time>2009-04-25T10:44:12Z</time>
            </trkpt>
            <trkpt lon="99.237322" lat="13.550371">
                <ele>268.345093</ele>
                <time>2009-04-25T10:44:16Z</time>
            </trkpt>
            <trkpt lon="99.237179" lat="13.550550">
                <ele>271.229126</ele>
                <time>2009-04-25T10:44:22Z</time>
            </trkpt>
            <trkpt lon="99.237131" lat="13.550599">
                <ele>272.671143</ele>
                <time>2009-04-25T10:44:25Z</time>
            </trkpt>
            <trkpt lon="99.236957" lat="13.550817">
                <ele>271.229126</ele>
                <time>2009-04-25T10:44:36Z</time>
            </trkpt>
            <trkpt lon="99.236749" lat="13.551041">
                <ele>272.190430</ele>
                <time>2009-04-25T10:44:47Z</time>
            </trkpt>
            <trkpt lon="99.236613" lat="13.551172">
                <ele>274.593750</ele>
                <time>2009-04-25T10:44:56Z</time>
            </trkpt>
            <trkpt lon="99.236492" lat="13.551299">
                <ele>277.477661</ele>
                <time>2009-04-25T10:45:05Z</time>
            </trkpt>
            <trkpt lon="99.236292" lat="13.551425">
                <ele>278.919678</ele>
                <time>2009-04-25T10:45:18Z</time>
            </trkpt>
            <trkpt lon="99.236213" lat="13.551469">
                <ele>279.880859</ele>
                <time>2009-04-25T10:45:24Z</time>
            </trkpt>
            <trkpt lon="99.236178" lat="13.551526">
                <ele>280.842407</ele>
                <time>2009-04-25T10:45:29Z</time>
            </trkpt>
            <trkpt lon="99.236163" lat="13.551531">
                <ele>280.842407</ele>
                <time>2009-04-25T10:45:30Z</time>
            </trkpt>
            <trkpt lon="99.236032" lat="13.551615">
                <ele>280.842407</ele>
                <time>2009-04-25T10:45:41Z</time>
            </trkpt>
            <trkpt lon="99.235903" lat="13.551696">
                <ele>281.322998</ele>
                <time>2009-04-25T10:45:51Z</time>
            </trkpt>
            <trkpt lon="99.235847" lat="13.551740">
                <ele>281.803589</ele>
                <time>2009-04-25T10:45:56Z</time>
            </trkpt>
            <trkpt lon="99.235677" lat="13.551796">
                <ele>282.284302</ele>
                <time>2009-04-25T10:46:06Z</time>
            </trkpt>
            <trkpt lon="99.235363" lat="13.551816">
                <ele>283.726196</ele>
                <time>2009-04-25T10:46:21Z</time>
            </trkpt>
            <trkpt lon="99.235148" lat="13.551806">
                <ele>280.842407</ele>
                <time>2009-04-25T10:46:32Z</time>
            </trkpt>
            <trkpt lon="99.235125" lat="13.551804">
                <ele>280.842407</ele>
                <time>2009-04-25T10:46:33Z</time>
            </trkpt>
            <trkpt lon="99.234976" lat="13.551777">
                <ele>277.477661</ele>
                <time>2009-04-25T10:46:37Z</time>
            </trkpt>
            <trkpt lon="99.234812" lat="13.551751">
                <ele>276.516357</ele>
                <time>2009-04-25T10:46:40Z</time>
            </trkpt>
            <trkpt lon="99.234477" lat="13.551849">
                <ele>276.997070</ele>
                <time>2009-04-25T10:46:45Z</time>
            </trkpt>
            <trkpt lon="99.234168" lat="13.551996">
                <ele>278.438965</ele>
                <time>2009-04-25T10:46:50Z</time>
            </trkpt>
            <trkpt lon="99.233860" lat="13.552121">
                <ele>280.842407</ele>
                <time>2009-04-25T10:46:57Z</time>
            </trkpt>
            <trkpt lon="99.233637" lat="13.552157">
                <ele>282.284302</ele>
                <time>2009-04-25T10:47:09Z</time>
            </trkpt>
            <trkpt lon="99.233441" lat="13.552158">
                <ele>284.687622</ele>
                <time>2009-04-25T10:47:20Z</time>
            </trkpt>
            <trkpt lon="99.233293" lat="13.552174">
                <ele>286.129517</ele>
                <time>2009-04-25T10:47:31Z</time>
            </trkpt>
            <trkpt lon="99.233175" lat="13.552226">
                <ele>287.090820</ele>
                <time>2009-04-25T10:47:41Z</time>
            </trkpt>
            <trkpt lon="99.233080" lat="13.552244">
                <ele>288.532959</ele>
                <time>2009-04-25T10:47:49Z</time>
            </trkpt>
            <trkpt lon="99.233060" lat="13.552254">
                <ele>289.013550</ele>
                <time>2009-04-25T10:48:03Z</time>
            </trkpt>
            <trkpt lon="99.233051" lat="13.552247">
                <ele>288.052246</ele>
                <time>2009-04-25T10:48:24Z</time>
            </trkpt>
            <trkpt lon="99.233060" lat="13.552259">
                <ele>288.532959</ele>
                <time>2009-04-25T10:48:49Z</time>
            </trkpt>
            <trkpt lon="99.233072" lat="13.552303">
                <ele>288.532959</ele>
                <time>2009-04-25T10:48:51Z</time>
            </trkpt>
            <trkpt lon="99.233008" lat="13.552320">
                <ele>289.013550</ele>
                <time>2009-04-25T10:48:56Z</time>
            </trkpt>
            <trkpt lon="99.232858" lat="13.552349">
                <ele>289.494141</ele>
                <time>2009-04-25T10:49:06Z</time>
            </trkpt>
            <trkpt lon="99.232722" lat="13.552435">
                <ele>290.936157</ele>
                <time>2009-04-25T10:49:16Z</time>
            </trkpt>
            <trkpt lon="99.232585" lat="13.552509">
                <ele>291.897461</ele>
                <time>2009-04-25T10:49:26Z</time>
            </trkpt>
            <trkpt lon="99.232453" lat="13.552609">
                <ele>293.339356</ele>
                <time>2009-04-25T10:49:37Z</time>
            </trkpt>
            <trkpt lon="99.232332" lat="13.552733">
                <ele>294.300781</ele>
                <time>2009-04-25T10:49:49Z</time>
            </trkpt>
            <trkpt lon="99.232233" lat="13.552856">
                <ele>294.781372</ele>
                <time>2009-04-25T10:49:59Z</time>
            </trkpt>
            <trkpt lon="99.232112" lat="13.553023">
                <ele>295.261963</ele>
                <time>2009-04-25T10:50:11Z</time>
            </trkpt>
            <trkpt lon="99.231982" lat="13.553154">
                <ele>295.261963</ele>
                <time>2009-04-25T10:50:21Z</time>
            </trkpt>
            <trkpt lon="99.231839" lat="13.553275">
                <ele>296.704102</ele>
                <time>2009-04-25T10:50:31Z</time>
            </trkpt>
            <trkpt lon="99.231747" lat="13.553363">
                <ele>297.184692</ele>
                <time>2009-04-25T10:50:38Z</time>
            </trkpt>
            <trkpt lon="99.231687" lat="13.553410">
                <ele>297.184692</ele>
                <time>2009-04-25T10:50:45Z</time>
            </trkpt>
            <trkpt lon="99.231618" lat="13.553428">
                <ele>297.665405</ele>
                <time>2009-04-25T10:50:50Z</time>
            </trkpt>
            <trkpt lon="99.231581" lat="13.553487">
                <ele>298.146118</ele>
                <time>2009-04-25T10:50:55Z</time>
            </trkpt>
            <trkpt lon="99.231540" lat="13.553492">
                <ele>298.146118</ele>
                <time>2009-04-25T10:50:58Z</time>
            </trkpt>
            <trkpt lon="99.231519" lat="13.553543">
                <ele>298.146118</ele>
                <time>2009-04-25T10:51:02Z</time>
            </trkpt>
            <trkpt lon="99.231508" lat="13.553591">
                <ele>298.146118</ele>
                <time>2009-04-25T10:51:07Z</time>
            </trkpt>
            <trkpt lon="99.231426" lat="13.553634">
                <ele>299.107300</ele>
                <time>2009-04-25T10:51:14Z</time>
            </trkpt>
            <trkpt lon="99.231408" lat="13.553702">
                <ele>299.107300</ele>
                <time>2009-04-25T10:51:19Z</time>
            </trkpt>
            <trkpt lon="99.231385" lat="13.553708">
                <ele>299.107300</ele>
                <time>2009-04-25T10:51:21Z</time>
            </trkpt>
            <trkpt lon="99.231346" lat="13.553713">
                <ele>299.107300</ele>
                <time>2009-04-25T10:51:24Z</time>
            </trkpt>
            <trkpt lon="99.231278" lat="13.553816">
                <ele>301.029907</ele>
                <time>2009-04-25T10:51:33Z</time>
            </trkpt>
            <trkpt lon="99.231281" lat="13.553833">
                <ele>301.029907</ele>
                <time>2009-04-25T10:51:34Z</time>
            </trkpt>
            <trkpt lon="99.231208" lat="13.553875">
                <ele>302.471924</ele>
                <time>2009-04-25T10:51:41Z</time>
            </trkpt>
            <trkpt lon="99.231172" lat="13.553930">
                <ele>301.991333</ele>
                <time>2009-04-25T10:51:47Z</time>
            </trkpt>
            <trkpt lon="99.231140" lat="13.553962">
                <ele>303.433227</ele>
                <time>2009-04-25T10:51:51Z</time>
            </trkpt>
            <trkpt lon="99.231080" lat="13.553968">
                <ele>303.433227</ele>
                <time>2009-04-25T10:51:55Z</time>
            </trkpt>
            <trkpt lon="99.231076" lat="13.554018">
                <ele>303.913940</ele>
                <time>2009-04-25T10:51:59Z</time>
            </trkpt>
            <trkpt lon="99.231044" lat="13.554149">
                <ele>305.355957</ele>
                <time>2009-04-25T10:52:08Z</time>
            </trkpt>
            <trkpt lon="99.230960" lat="13.554265">
                <ele>307.759277</ele>
                <time>2009-04-25T10:52:15Z</time>
            </trkpt>
            <trkpt lon="99.230953" lat="13.554283">
                <ele>307.759277</ele>
                <time>2009-04-25T10:52:22Z</time>
            </trkpt>
            <trkpt lon="99.230919" lat="13.554334">
                <ele>308.720459</ele>
                <time>2009-04-25T10:52:31Z</time>
            </trkpt>
            <trkpt lon="99.230852" lat="13.554379">
                <ele>310.643066</ele>
                <time>2009-04-25T10:52:43Z</time>
            </trkpt>
            <trkpt lon="99.230848" lat="13.554372">
                <ele>310.162476</ele>
                <time>2009-04-25T10:52:53Z</time>
            </trkpt>
            <trkpt lon="99.230827" lat="13.554385">
                <ele>312.085205</ele>
                <time>2009-04-25T10:53:03Z</time>
            </trkpt>
            <trkpt lon="99.230699" lat="13.554445">
                <ele>314.969116</ele>
                <time>2009-04-25T10:53:19Z</time>
            </trkpt>
            <trkpt lon="99.230576" lat="13.554520">
                <ele>317.372436</ele>
                <time>2009-04-25T10:53:35Z</time>
            </trkpt>
            <trkpt lon="99.230550" lat="13.554545">
                <ele>317.853027</ele>
                <time>2009-04-25T10:53:44Z</time>
            </trkpt>
            <trkpt lon="99.230524" lat="13.554605">
                <ele>318.333618</ele>
                <time>2009-04-25T10:53:56Z</time>
            </trkpt>
            <trkpt lon="99.230523" lat="13.554640">
                <ele>320.256348</ele>
                <time>2009-04-25T10:54:01Z</time>
            </trkpt>
            <trkpt lon="99.230528" lat="13.554737">
                <ele>321.698364</ele>
                <time>2009-04-25T10:54:15Z</time>
            </trkpt>
            <trkpt lon="99.230537" lat="13.554756">
                <ele>322.178955</ele>
                <time>2009-04-25T10:54:26Z</time>
            </trkpt>
            <trkpt lon="99.230548" lat="13.554819">
                <ele>325.543579</ele>
                <time>2009-04-25T10:54:36Z</time>
            </trkpt>
            <trkpt lon="99.230570" lat="13.554890">
                <ele>327.946777</ele>
                <time>2009-04-25T10:54:48Z</time>
            </trkpt>
            <trkpt lon="99.230587" lat="13.554903">
                <ele>327.946777</ele>
                <time>2009-04-25T10:55:02Z</time>
            </trkpt>
            <trkpt lon="99.230625" lat="13.554986">
                <ele>328.427612</ele>
                <time>2009-04-25T10:55:13Z</time>
            </trkpt>
            <trkpt lon="99.230619" lat="13.555030">
                <ele>328.908325</ele>
                <time>2009-04-25T10:55:23Z</time>
            </trkpt>
            <trkpt lon="99.230622" lat="13.555059">
                <ele>327.946777</ele>
                <time>2009-04-25T10:55:30Z</time>
            </trkpt>
            <trkpt lon="99.230535" lat="13.555025">
                <ele>331.311523</ele>
                <time>2009-04-25T11:02:23Z</time>
            </trkpt>
            <trkpt lon="99.230583" lat="13.555049">
                <ele>331.792114</ele>
                <time>2009-04-25T11:04:24Z</time>
            </trkpt>
            <trkpt lon="99.230570" lat="13.555024">
                <ele>332.753540</ele>
                <time>2009-04-25T11:04:59Z</time>
            </trkpt>
            <trkpt lon="99.230584" lat="13.555005">
                <ele>330.830933</ele>
                <time>2009-04-25T11:16:37Z</time>
            </trkpt>
        </trkseg>
    </trk>
</gpx>